<?xml version="1.0" encoding="UTF-8" standalone="no" ?>
<gpx xmlns="http://www.topografix.com/GPX/1/1" xmlns:xsi="http://www.w3.org/2001/XMLSchema-instance" xsi:schemaLocation="http://www.topografix.com/GPX/1/1 http://www.topografix.com/GPX/1/1/gpx.xsd" version="1.1" creator="VisuGPX - https://www.visugpx.com">
  <metadata>
    <name>Les bernes-15km</name>
    <desc><![CDATA[Ballade aux alentours des Bernes.]]></desc>
  </metadata>
  <trk>
    <name><![CDATA[81 Rue des Clos]]></name>
    <desc><![CDATA[]]></desc>
    <trkseg>
      <trkpt lat="43.70041" lon="5.96649">
        <ele>563</ele>
        <time>2015-10-24T08:17:01.814Z</time>
      </trkpt>
      <trkpt lat="43.70035" lon="5.96656">
        <ele>572</ele>
        <time>2015-10-24T08:17:20.976Z</time>
      </trkpt>
      <trkpt lat="43.70031" lon="5.96658">
        <ele>570</ele>
        <time>2015-10-24T08:17:21.954Z</time>
      </trkpt>
      <trkpt lat="43.70026" lon="5.96668">
        <ele>572</ele>
        <time>2015-10-24T08:18:59.546Z</time>
      </trkpt>
      <trkpt lat="43.70026" lon="5.96671">
        <ele>572</ele>
        <time>2015-10-24T08:19:00.736Z</time>
      </trkpt>
      <trkpt lat="43.7003" lon="5.96677">
        <ele>573</ele>
        <time>2015-10-24T08:19:03.545Z</time>
      </trkpt>
      <trkpt lat="43.70032" lon="5.96679">
        <ele>573</ele>
        <time>2015-10-24T08:19:04.522Z</time>
      </trkpt>
      <trkpt lat="43.70038" lon="5.96683">
        <ele>573</ele>
        <time>2015-10-24T08:19:06.545Z</time>
      </trkpt>
      <trkpt lat="43.70041" lon="5.96685">
        <ele>573</ele>
        <time>2015-10-24T08:19:07.521Z</time>
      </trkpt>
      <trkpt lat="43.70046" lon="5.96689">
        <ele>573</ele>
        <time>2015-10-24T08:19:09.543Z</time>
      </trkpt>
      <trkpt lat="43.70049" lon="5.96691">
        <ele>573</ele>
        <time>2015-10-24T08:19:10.522Z</time>
      </trkpt>
      <trkpt lat="43.70054" lon="5.96695">
        <ele>573</ele>
        <time>2015-10-24T08:19:12.546Z</time>
      </trkpt>
      <trkpt lat="43.70057" lon="5.96697">
        <ele>573</ele>
        <time>2015-10-24T08:19:13.522Z</time>
      </trkpt>
      <trkpt lat="43.70062" lon="5.967">
        <ele>573</ele>
        <time>2015-10-24T08:19:15.544Z</time>
      </trkpt>
      <trkpt lat="43.70065" lon="5.96702">
        <ele>573</ele>
        <time>2015-10-24T08:19:16.522Z</time>
      </trkpt>
      <trkpt lat="43.70072" lon="5.96708">
        <ele>573</ele>
        <time>2015-10-24T08:19:19.573Z</time>
      </trkpt>
      <trkpt lat="43.70075" lon="5.9671">
        <ele>572</ele>
        <time>2015-10-24T08:19:20.521Z</time>
      </trkpt>
      <trkpt lat="43.70081" lon="5.96715">
        <ele>573</ele>
        <time>2015-10-24T08:19:23.545Z</time>
      </trkpt>
      <trkpt lat="43.70083" lon="5.96716">
        <ele>573</ele>
        <time>2015-10-24T08:19:24.523Z</time>
      </trkpt>
      <trkpt lat="43.70087" lon="5.96727">
        <ele>573</ele>
        <time>2015-10-24T08:19:28.545Z</time>
      </trkpt>
      <trkpt lat="43.70087" lon="5.96731">
        <ele>573</ele>
        <time>2015-10-24T08:19:29.522Z</time>
      </trkpt>
      <trkpt lat="43.70085" lon="5.96739">
        <ele>573</ele>
        <time>2015-10-24T08:19:31.545Z</time>
      </trkpt>
      <trkpt lat="43.70084" lon="5.96743">
        <ele>573</ele>
        <time>2015-10-24T08:19:32.522Z</time>
      </trkpt>
      <trkpt lat="43.70082" lon="5.96754">
        <ele>573</ele>
        <time>2015-10-24T08:19:35.547Z</time>
      </trkpt>
      <trkpt lat="43.70081" lon="5.96757">
        <ele>573</ele>
        <time>2015-10-24T08:19:36.522Z</time>
      </trkpt>
      <trkpt lat="43.70079" lon="5.96767">
        <ele>573</ele>
        <time>2015-10-24T08:19:39.543Z</time>
      </trkpt>
      <trkpt lat="43.70079" lon="5.9677">
        <ele>573</ele>
        <time>2015-10-24T08:19:40.521Z</time>
      </trkpt>
      <trkpt lat="43.70076" lon="5.9678">
        <ele>573</ele>
        <time>2015-10-24T08:19:43.569Z</time>
      </trkpt>
      <trkpt lat="43.70075" lon="5.96784">
        <ele>572</ele>
        <time>2015-10-24T08:19:44.525Z</time>
      </trkpt>
      <trkpt lat="43.70072" lon="5.96795">
        <ele>572</ele>
        <time>2015-10-24T08:19:47.547Z</time>
      </trkpt>
      <trkpt lat="43.70071" lon="5.96799">
        <ele>572</ele>
        <time>2015-10-24T08:19:48.523Z</time>
      </trkpt>
      <trkpt lat="43.70069" lon="5.96807">
        <ele>572</ele>
        <time>2015-10-24T08:19:50.546Z</time>
      </trkpt>
      <trkpt lat="43.70067" lon="5.96811">
        <ele>572</ele>
        <time>2015-10-24T08:19:51.522Z</time>
      </trkpt>
      <trkpt lat="43.70064" lon="5.96818">
        <ele>572</ele>
        <time>2015-10-24T08:19:53.547Z</time>
      </trkpt>
      <trkpt lat="43.70062" lon="5.96822">
        <ele>572</ele>
        <time>2015-10-24T08:19:54.522Z</time>
      </trkpt>
      <trkpt lat="43.70059" lon="5.96829">
        <ele>572</ele>
        <time>2015-10-24T08:19:56.552Z</time>
      </trkpt>
      <trkpt lat="43.70057" lon="5.96832">
        <ele>572</ele>
        <time>2015-10-24T08:19:57.522Z</time>
      </trkpt>
      <trkpt lat="43.70052" lon="5.96841">
        <ele>572</ele>
        <time>2015-10-24T08:20:00.545Z</time>
      </trkpt>
      <trkpt lat="43.70051" lon="5.96843">
        <ele>572</ele>
        <time>2015-10-24T08:20:01.523Z</time>
      </trkpt>
      <trkpt lat="43.70046" lon="5.9685">
        <ele>572</ele>
        <time>2015-10-24T08:20:04.541Z</time>
      </trkpt>
      <trkpt lat="43.70044" lon="5.96852">
        <ele>573</ele>
        <time>2015-10-24T08:20:05.520Z</time>
      </trkpt>
      <trkpt lat="43.7004" lon="5.9686">
        <ele>573</ele>
        <time>2015-10-24T08:20:08.545Z</time>
      </trkpt>
      <trkpt lat="43.70038" lon="5.96862">
        <ele>573</ele>
        <time>2015-10-24T08:20:09.522Z</time>
      </trkpt>
      <trkpt lat="43.70033" lon="5.9687">
        <ele>573</ele>
        <time>2015-10-24T08:20:12.547Z</time>
      </trkpt>
      <trkpt lat="43.70031" lon="5.96872">
        <ele>573</ele>
        <time>2015-10-24T08:20:13.560Z</time>
      </trkpt>
      <trkpt lat="43.70025" lon="5.9688">
        <ele>573</ele>
        <time>2015-10-24T08:20:16.543Z</time>
      </trkpt>
      <trkpt lat="43.70023" lon="5.96882">
        <ele>573</ele>
        <time>2015-10-24T08:20:17.521Z</time>
      </trkpt>
      <trkpt lat="43.70017" lon="5.9689">
        <ele>573</ele>
        <time>2015-10-24T08:20:20.545Z</time>
      </trkpt>
      <trkpt lat="43.70015" lon="5.96892">
        <ele>573</ele>
        <time>2015-10-24T08:20:21.525Z</time>
      </trkpt>
      <trkpt lat="43.70008" lon="5.969">
        <ele>573</ele>
        <time>2015-10-24T08:20:24.573Z</time>
      </trkpt>
      <trkpt lat="43.70006" lon="5.96903">
        <ele>573</ele>
        <time>2015-10-24T08:20:25.524Z</time>
      </trkpt>
      <trkpt lat="43.70001" lon="5.96908">
        <ele>573</ele>
        <time>2015-10-24T08:20:27.546Z</time>
      </trkpt>
      <trkpt lat="43.69999" lon="5.96911">
        <ele>573</ele>
        <time>2015-10-24T08:20:28.522Z</time>
      </trkpt>
      <trkpt lat="43.69992" lon="5.96919">
        <ele>573</ele>
        <time>2015-10-24T08:20:31.535Z</time>
      </trkpt>
      <trkpt lat="43.6999" lon="5.96921">
        <ele>573</ele>
        <time>2015-10-24T08:20:32.520Z</time>
      </trkpt>
      <trkpt lat="43.69984" lon="5.96929">
        <ele>573</ele>
        <time>2015-10-24T08:20:35.576Z</time>
      </trkpt>
      <trkpt lat="43.69982" lon="5.96931">
        <ele>573</ele>
        <time>2015-10-24T08:20:36.521Z</time>
      </trkpt>
      <trkpt lat="43.69976" lon="5.96938">
        <ele>573</ele>
        <time>2015-10-24T08:20:39.548Z</time>
      </trkpt>
      <trkpt lat="43.69974" lon="5.9694">
        <ele>573</ele>
        <time>2015-10-24T08:20:40.526Z</time>
      </trkpt>
      <trkpt lat="43.69969" lon="5.96947">
        <ele>573</ele>
        <time>2015-10-24T08:20:43.545Z</time>
      </trkpt>
      <trkpt lat="43.69968" lon="5.9695">
        <ele>573</ele>
        <time>2015-10-24T08:20:44.519Z</time>
      </trkpt>
      <trkpt lat="43.69962" lon="5.96957">
        <ele>573</ele>
        <time>2015-10-24T08:20:47.544Z</time>
      </trkpt>
      <trkpt lat="43.69961" lon="5.9696">
        <ele>573</ele>
        <time>2015-10-24T08:20:48.521Z</time>
      </trkpt>
      <trkpt lat="43.69955" lon="5.96969">
        <ele>573</ele>
        <time>2015-10-24T08:20:51.546Z</time>
      </trkpt>
      <trkpt lat="43.69954" lon="5.96972">
        <ele>573</ele>
        <time>2015-10-24T08:20:52.522Z</time>
      </trkpt>
      <trkpt lat="43.69949" lon="5.96981">
        <ele>573</ele>
        <time>2015-10-24T08:20:55.546Z</time>
      </trkpt>
      <trkpt lat="43.69947" lon="5.96984">
        <ele>573</ele>
        <time>2015-10-24T08:20:56.521Z</time>
      </trkpt>
      <trkpt lat="43.69942" lon="5.96993">
        <ele>573</ele>
        <time>2015-10-24T08:20:59.544Z</time>
      </trkpt>
      <trkpt lat="43.6994" lon="5.96996">
        <ele>573</ele>
        <time>2015-10-24T08:21:00.521Z</time>
      </trkpt>
      <trkpt lat="43.69934" lon="5.97005">
        <ele>573</ele>
        <time>2015-10-24T08:21:03.545Z</time>
      </trkpt>
      <trkpt lat="43.69932" lon="5.97009">
        <ele>574</ele>
        <time>2015-10-24T08:21:04.521Z</time>
      </trkpt>
      <trkpt lat="43.69926" lon="5.97018">
        <ele>573</ele>
        <time>2015-10-24T08:21:07.545Z</time>
      </trkpt>
      <trkpt lat="43.69924" lon="5.97021">
        <ele>574</ele>
        <time>2015-10-24T08:21:08.522Z</time>
      </trkpt>
      <trkpt lat="43.6992" lon="5.97027">
        <ele>574</ele>
        <time>2015-10-24T08:21:10.544Z</time>
      </trkpt>
      <trkpt lat="43.69918" lon="5.9703">
        <ele>574</ele>
        <time>2015-10-24T08:21:11.521Z</time>
      </trkpt>
      <trkpt lat="43.69913" lon="5.97036">
        <ele>574</ele>
        <time>2015-10-24T08:21:13.620Z</time>
      </trkpt>
      <trkpt lat="43.69911" lon="5.97039">
        <ele>574</ele>
        <time>2015-10-24T08:21:14.522Z</time>
      </trkpt>
      <trkpt lat="43.69907" lon="5.97045">
        <ele>575</ele>
        <time>2015-10-24T08:21:16.544Z</time>
      </trkpt>
      <trkpt lat="43.69905" lon="5.97049">
        <ele>575</ele>
        <time>2015-10-24T08:21:17.523Z</time>
      </trkpt>
      <trkpt lat="43.69901" lon="5.97055">
        <ele>575</ele>
        <time>2015-10-24T08:21:19.545Z</time>
      </trkpt>
      <trkpt lat="43.69898" lon="5.97059">
        <ele>575</ele>
        <time>2015-10-24T08:21:20.523Z</time>
      </trkpt>
      <trkpt lat="43.69894" lon="5.97065">
        <ele>575</ele>
        <time>2015-10-24T08:21:22.545Z</time>
      </trkpt>
      <trkpt lat="43.69892" lon="5.97068">
        <ele>575</ele>
        <time>2015-10-24T08:21:23.548Z</time>
      </trkpt>
      <trkpt lat="43.69888" lon="5.97075">
        <ele>575</ele>
        <time>2015-10-24T08:21:25.543Z</time>
      </trkpt>
      <trkpt lat="43.69886" lon="5.97078">
        <ele>575</ele>
        <time>2015-10-24T08:21:26.519Z</time>
      </trkpt>
      <trkpt lat="43.69882" lon="5.97085">
        <ele>576</ele>
        <time>2015-10-24T08:21:28.600Z</time>
      </trkpt>
      <trkpt lat="43.6988" lon="5.97089">
        <ele>576</ele>
        <time>2015-10-24T08:21:29.522Z</time>
      </trkpt>
      <trkpt lat="43.69875" lon="5.97099">
        <ele>576</ele>
        <time>2015-10-24T08:21:32.546Z</time>
      </trkpt>
      <trkpt lat="43.69874" lon="5.97102">
        <ele>576</ele>
        <time>2015-10-24T08:21:33.523Z</time>
      </trkpt>
      <trkpt lat="43.69869" lon="5.97112">
        <ele>576</ele>
        <time>2015-10-24T08:21:36.546Z</time>
      </trkpt>
      <trkpt lat="43.69867" lon="5.97114">
        <ele>576</ele>
        <time>2015-10-24T08:21:37.522Z</time>
      </trkpt>
      <trkpt lat="43.69863" lon="5.97121">
        <ele>576</ele>
        <time>2015-10-24T08:21:40.544Z</time>
      </trkpt>
      <trkpt lat="43.69861" lon="5.97124">
        <ele>576</ele>
        <time>2015-10-24T08:21:41.522Z</time>
      </trkpt>
      <trkpt lat="43.69857" lon="5.97133">
        <ele>577</ele>
        <time>2015-10-24T08:21:44.545Z</time>
      </trkpt>
      <trkpt lat="43.69856" lon="5.97135">
        <ele>576</ele>
        <time>2015-10-24T08:21:45.522Z</time>
      </trkpt>
      <trkpt lat="43.69851" lon="5.97144">
        <ele>577</ele>
        <time>2015-10-24T08:21:48.545Z</time>
      </trkpt>
      <trkpt lat="43.6985" lon="5.97147">
        <ele>577</ele>
        <time>2015-10-24T08:21:49.523Z</time>
      </trkpt>
      <trkpt lat="43.69845" lon="5.97155">
        <ele>577</ele>
        <time>2015-10-24T08:21:54.543Z</time>
      </trkpt>
      <trkpt lat="43.69844" lon="5.97159">
        <ele>577</ele>
        <time>2015-10-24T08:21:55.525Z</time>
      </trkpt>
      <trkpt lat="43.69839" lon="5.97168">
        <ele>577</ele>
        <time>2015-10-24T08:21:58.583Z</time>
      </trkpt>
      <trkpt lat="43.69837" lon="5.97171">
        <ele>577</ele>
        <time>2015-10-24T08:21:59.521Z</time>
      </trkpt>
      <trkpt lat="43.69833" lon="5.9718">
        <ele>577</ele>
        <time>2015-10-24T08:22:02.544Z</time>
      </trkpt>
      <trkpt lat="43.69831" lon="5.97183">
        <ele>577</ele>
        <time>2015-10-24T08:22:03.522Z</time>
      </trkpt>
      <trkpt lat="43.69826" lon="5.97193">
        <ele>577</ele>
        <time>2015-10-24T08:22:06.543Z</time>
      </trkpt>
      <trkpt lat="43.69825" lon="5.97196">
        <ele>578</ele>
        <time>2015-10-24T08:22:07.522Z</time>
      </trkpt>
      <trkpt lat="43.6982" lon="5.97205">
        <ele>578</ele>
        <time>2015-10-24T08:22:10.545Z</time>
      </trkpt>
      <trkpt lat="43.69818" lon="5.97208">
        <ele>578</ele>
        <time>2015-10-24T08:22:11.521Z</time>
      </trkpt>
      <trkpt lat="43.69813" lon="5.97218">
        <ele>578</ele>
        <time>2015-10-24T08:22:14.544Z</time>
      </trkpt>
      <trkpt lat="43.69811" lon="5.97221">
        <ele>578</ele>
        <time>2015-10-24T08:22:15.522Z</time>
      </trkpt>
      <trkpt lat="43.69806" lon="5.9723">
        <ele>578</ele>
        <time>2015-10-24T08:22:18.545Z</time>
      </trkpt>
      <trkpt lat="43.69805" lon="5.97233">
        <ele>578</ele>
        <time>2015-10-24T08:22:19.523Z</time>
      </trkpt>
      <trkpt lat="43.698" lon="5.97243">
        <ele>578</ele>
        <time>2015-10-24T08:22:22.544Z</time>
      </trkpt>
      <trkpt lat="43.69799" lon="5.97246">
        <ele>578</ele>
        <time>2015-10-24T08:22:23.522Z</time>
      </trkpt>
      <trkpt lat="43.69794" lon="5.97256">
        <ele>578</ele>
        <time>2015-10-24T08:22:26.544Z</time>
      </trkpt>
      <trkpt lat="43.69792" lon="5.97259">
        <ele>578</ele>
        <time>2015-10-24T08:22:27.523Z</time>
      </trkpt>
      <trkpt lat="43.69788" lon="5.97269">
        <ele>578</ele>
        <time>2015-10-24T08:22:30.544Z</time>
      </trkpt>
      <trkpt lat="43.69787" lon="5.97272">
        <ele>579</ele>
        <time>2015-10-24T08:22:31.521Z</time>
      </trkpt>
      <trkpt lat="43.69784" lon="5.97282">
        <ele>579</ele>
        <time>2015-10-24T08:22:34.545Z</time>
      </trkpt>
      <trkpt lat="43.69783" lon="5.97285">
        <ele>579</ele>
        <time>2015-10-24T08:22:35.521Z</time>
      </trkpt>
      <trkpt lat="43.69779" lon="5.97295">
        <ele>579</ele>
        <time>2015-10-24T08:22:39.537Z</time>
      </trkpt>
      <trkpt lat="43.69778" lon="5.97298">
        <ele>579</ele>
        <time>2015-10-24T08:22:40.518Z</time>
      </trkpt>
      <trkpt lat="43.69775" lon="5.97306">
        <ele>579</ele>
        <time>2015-10-24T08:22:43.545Z</time>
      </trkpt>
      <trkpt lat="43.69774" lon="5.97309">
        <ele>579</ele>
        <time>2015-10-24T08:22:44.522Z</time>
      </trkpt>
      <trkpt lat="43.69771" lon="5.97319">
        <ele>579</ele>
        <time>2015-10-24T08:22:47.545Z</time>
      </trkpt>
      <trkpt lat="43.6977" lon="5.97322">
        <ele>579</ele>
        <time>2015-10-24T08:22:48.523Z</time>
      </trkpt>
      <trkpt lat="43.69767" lon="5.97332">
        <ele>580</ele>
        <time>2015-10-24T08:22:51.545Z</time>
      </trkpt>
      <trkpt lat="43.69766" lon="5.97335">
        <ele>580</ele>
        <time>2015-10-24T08:22:52.521Z</time>
      </trkpt>
      <trkpt lat="43.69764" lon="5.97344">
        <ele>580</ele>
        <time>2015-10-24T08:22:55.545Z</time>
      </trkpt>
      <trkpt lat="43.69763" lon="5.97347">
        <ele>580</ele>
        <time>2015-10-24T08:22:56.522Z</time>
      </trkpt>
      <trkpt lat="43.69759" lon="5.97356">
        <ele>580</ele>
        <time>2015-10-24T08:22:59.544Z</time>
      </trkpt>
      <trkpt lat="43.69758" lon="5.97358">
        <ele>581</ele>
        <time>2015-10-24T08:23:00.522Z</time>
      </trkpt>
      <trkpt lat="43.69751" lon="5.97362">
        <ele>580</ele>
        <time>2015-10-24T08:23:03.544Z</time>
      </trkpt>
      <trkpt lat="43.69748" lon="5.97362">
        <ele>580</ele>
        <time>2015-10-24T08:23:04.522Z</time>
      </trkpt>
      <trkpt lat="43.69741" lon="5.9736">
        <ele>580</ele>
        <time>2015-10-24T08:23:07.554Z</time>
      </trkpt>
      <trkpt lat="43.69738" lon="5.97359">
        <ele>580</ele>
        <time>2015-10-24T08:23:08.521Z</time>
      </trkpt>
      <trkpt lat="43.69731" lon="5.97355">
        <ele>580</ele>
        <time>2015-10-24T08:23:11.546Z</time>
      </trkpt>
      <trkpt lat="43.69729" lon="5.97353">
        <ele>580</ele>
        <time>2015-10-24T08:23:12.541Z</time>
      </trkpt>
      <trkpt lat="43.69723" lon="5.97349">
        <ele>581</ele>
        <time>2015-10-24T08:23:15.543Z</time>
      </trkpt>
      <trkpt lat="43.69721" lon="5.97348">
        <ele>581</ele>
        <time>2015-10-24T08:23:16.518Z</time>
      </trkpt>
      <trkpt lat="43.69714" lon="5.97343">
        <ele>582</ele>
        <time>2015-10-24T08:23:19.529Z</time>
      </trkpt>
      <trkpt lat="43.69712" lon="5.97342">
        <ele>582</ele>
        <time>2015-10-24T08:23:20.523Z</time>
      </trkpt>
      <trkpt lat="43.69705" lon="5.97338">
        <ele>583</ele>
        <time>2015-10-24T08:23:23.546Z</time>
      </trkpt>
      <trkpt lat="43.69704" lon="5.97337">
        <ele>583</ele>
        <time>2015-10-24T08:23:24.524Z</time>
      </trkpt>
      <trkpt lat="43.69697" lon="5.97332">
        <ele>583</ele>
        <time>2015-10-24T08:23:27.546Z</time>
      </trkpt>
      <trkpt lat="43.69695" lon="5.97331">
        <ele>584</ele>
        <time>2015-10-24T08:23:28.551Z</time>
      </trkpt>
      <trkpt lat="43.69688" lon="5.97327">
        <ele>586</ele>
        <time>2015-10-24T08:23:32.544Z</time>
      </trkpt>
      <trkpt lat="43.69686" lon="5.97326">
        <ele>586</ele>
        <time>2015-10-24T08:23:33.522Z</time>
      </trkpt>
      <trkpt lat="43.69678" lon="5.97319">
        <ele>587</ele>
        <time>2015-10-24T08:23:37.556Z</time>
      </trkpt>
      <trkpt lat="43.69676" lon="5.97317">
        <ele>586</ele>
        <time>2015-10-24T08:23:38.523Z</time>
      </trkpt>
      <trkpt lat="43.6967" lon="5.97311">
        <ele>587</ele>
        <time>2015-10-24T08:23:41.545Z</time>
      </trkpt>
      <trkpt lat="43.69668" lon="5.9731">
        <ele>587</ele>
        <time>2015-10-24T08:23:42.522Z</time>
      </trkpt>
      <trkpt lat="43.6966" lon="5.97312">
        <ele>587</ele>
        <time>2015-10-24T08:23:45.546Z</time>
      </trkpt>
      <trkpt lat="43.69659" lon="5.97314">
        <ele>587</ele>
        <time>2015-10-24T08:23:46.523Z</time>
      </trkpt>
      <trkpt lat="43.69658" lon="5.97326">
        <ele>587</ele>
        <time>2015-10-24T08:23:51.546Z</time>
      </trkpt>
      <trkpt lat="43.69658" lon="5.97329">
        <ele>588</ele>
        <time>2015-10-24T08:23:52.522Z</time>
      </trkpt>
      <trkpt lat="43.69658" lon="5.9734">
        <ele>588</ele>
        <time>2015-10-24T08:23:56.545Z</time>
      </trkpt>
      <trkpt lat="43.69658" lon="5.97343">
        <ele>588</ele>
        <time>2015-10-24T08:23:57.534Z</time>
      </trkpt>
      <trkpt lat="43.69658" lon="5.97355">
        <ele>589</ele>
        <time>2015-10-24T08:24:01.755Z</time>
      </trkpt>
      <trkpt lat="43.69657" lon="5.97359">
        <ele>588</ele>
        <time>2015-10-24T08:24:02.523Z</time>
      </trkpt>
      <trkpt lat="43.69657" lon="5.97371">
        <ele>588</ele>
        <time>2015-10-24T08:24:05.546Z</time>
      </trkpt>
      <trkpt lat="43.69656" lon="5.97375">
        <ele>588</ele>
        <time>2015-10-24T08:24:06.549Z</time>
      </trkpt>
      <trkpt lat="43.69655" lon="5.97385">
        <ele>587</ele>
        <time>2015-10-24T08:24:08.545Z</time>
      </trkpt>
      <trkpt lat="43.69654" lon="5.97389">
        <ele>587</ele>
        <time>2015-10-24T08:24:09.534Z</time>
      </trkpt>
      <trkpt lat="43.69653" lon="5.97401">
        <ele>587</ele>
        <time>2015-10-24T08:24:13.553Z</time>
      </trkpt>
      <trkpt lat="43.69653" lon="5.97403">
        <ele>587</ele>
        <time>2015-10-24T08:24:14.523Z</time>
      </trkpt>
      <trkpt lat="43.6965" lon="5.97413">
        <ele>587</ele>
        <time>2015-10-24T08:24:18.544Z</time>
      </trkpt>
      <trkpt lat="43.69649" lon="5.97417">
        <ele>587</ele>
        <time>2015-10-24T08:24:19.522Z</time>
      </trkpt>
      <trkpt lat="43.69647" lon="5.97425">
        <ele>586</ele>
        <time>2015-10-24T08:24:21.545Z</time>
      </trkpt>
      <trkpt lat="43.69646" lon="5.97429">
        <ele>586</ele>
        <time>2015-10-24T08:24:22.524Z</time>
      </trkpt>
      <trkpt lat="43.69644" lon="5.97439">
        <ele>587</ele>
        <time>2015-10-24T08:24:24.547Z</time>
      </trkpt>
      <trkpt lat="43.69643" lon="5.97443">
        <ele>587</ele>
        <time>2015-10-24T08:24:25.524Z</time>
      </trkpt>
      <trkpt lat="43.6964" lon="5.97452">
        <ele>586</ele>
        <time>2015-10-24T08:24:27.544Z</time>
      </trkpt>
      <trkpt lat="43.69639" lon="5.97457">
        <ele>586</ele>
        <time>2015-10-24T08:24:28.759Z</time>
      </trkpt>
      <trkpt lat="43.69637" lon="5.97467">
        <ele>586</ele>
        <time>2015-10-24T08:24:30.546Z</time>
      </trkpt>
      <trkpt lat="43.69636" lon="5.97472">
        <ele>586</ele>
        <time>2015-10-24T08:24:31.523Z</time>
      </trkpt>
      <trkpt lat="43.69633" lon="5.97481">
        <ele>586</ele>
        <time>2015-10-24T08:24:33.546Z</time>
      </trkpt>
      <trkpt lat="43.69631" lon="5.97485">
        <ele>586</ele>
        <time>2015-10-24T08:24:34.524Z</time>
      </trkpt>
      <trkpt lat="43.69628" lon="5.97494">
        <ele>587</ele>
        <time>2015-10-24T08:24:36.545Z</time>
      </trkpt>
      <trkpt lat="43.69626" lon="5.97498">
        <ele>587</ele>
        <time>2015-10-24T08:24:37.523Z</time>
      </trkpt>
      <trkpt lat="43.69622" lon="5.97506">
        <ele>587</ele>
        <time>2015-10-24T08:24:39.572Z</time>
      </trkpt>
      <trkpt lat="43.6962" lon="5.9751">
        <ele>588</ele>
        <time>2015-10-24T08:24:40.527Z</time>
      </trkpt>
      <trkpt lat="43.69617" lon="5.97517">
        <ele>587</ele>
        <time>2015-10-24T08:24:42.545Z</time>
      </trkpt>
      <trkpt lat="43.69615" lon="5.97521">
        <ele>587</ele>
        <time>2015-10-24T08:24:43.523Z</time>
      </trkpt>
      <trkpt lat="43.69612" lon="5.97529">
        <ele>587</ele>
        <time>2015-10-24T08:24:45.545Z</time>
      </trkpt>
      <trkpt lat="43.6961" lon="5.97532">
        <ele>587</ele>
        <time>2015-10-24T08:24:46.517Z</time>
      </trkpt>
      <trkpt lat="43.69607" lon="5.97542">
        <ele>586</ele>
        <time>2015-10-24T08:24:49.546Z</time>
      </trkpt>
      <trkpt lat="43.69605" lon="5.97545">
        <ele>586</ele>
        <time>2015-10-24T08:24:50.549Z</time>
      </trkpt>
      <trkpt lat="43.69602" lon="5.97555">
        <ele>586</ele>
        <time>2015-10-24T08:24:53.544Z</time>
      </trkpt>
      <trkpt lat="43.69601" lon="5.97558">
        <ele>587</ele>
        <time>2015-10-24T08:24:54.523Z</time>
      </trkpt>
      <trkpt lat="43.69597" lon="5.97567">
        <ele>587</ele>
        <time>2015-10-24T08:24:57.545Z</time>
      </trkpt>
      <trkpt lat="43.69596" lon="5.9757">
        <ele>587</ele>
        <time>2015-10-24T08:24:58.523Z</time>
      </trkpt>
      <trkpt lat="43.69593" lon="5.97579">
        <ele>588</ele>
        <time>2015-10-24T08:25:01.546Z</time>
      </trkpt>
      <trkpt lat="43.69592" lon="5.97581">
        <ele>588</ele>
        <time>2015-10-24T08:25:02.524Z</time>
      </trkpt>
      <trkpt lat="43.69589" lon="5.97591">
        <ele>588</ele>
        <time>2015-10-24T08:25:05.547Z</time>
      </trkpt>
      <trkpt lat="43.69588" lon="5.97593">
        <ele>589</ele>
        <time>2015-10-24T08:25:06.533Z</time>
      </trkpt>
      <trkpt lat="43.69585" lon="5.97603">
        <ele>589</ele>
        <time>2015-10-24T08:25:10.763Z</time>
      </trkpt>
      <trkpt lat="43.69584" lon="5.97606">
        <ele>590</ele>
        <time>2015-10-24T08:25:11.523Z</time>
      </trkpt>
      <trkpt lat="43.69582" lon="5.97614">
        <ele>590</ele>
        <time>2015-10-24T08:25:14.545Z</time>
      </trkpt>
      <trkpt lat="43.69581" lon="5.97618">
        <ele>590</ele>
        <time>2015-10-24T08:25:15.526Z</time>
      </trkpt>
      <trkpt lat="43.69578" lon="5.97628">
        <ele>590</ele>
        <time>2015-10-24T08:25:18.544Z</time>
      </trkpt>
      <trkpt lat="43.69577" lon="5.97631">
        <ele>590</ele>
        <time>2015-10-24T08:25:19.523Z</time>
      </trkpt>
      <trkpt lat="43.69575" lon="5.97641">
        <ele>590</ele>
        <time>2015-10-24T08:25:22.567Z</time>
      </trkpt>
      <trkpt lat="43.69575" lon="5.97645">
        <ele>590</ele>
        <time>2015-10-24T08:25:23.523Z</time>
      </trkpt>
      <trkpt lat="43.69573" lon="5.97655">
        <ele>590</ele>
        <time>2015-10-24T08:25:26.545Z</time>
      </trkpt>
      <trkpt lat="43.69572" lon="5.97658">
        <ele>590</ele>
        <time>2015-10-24T08:25:27.523Z</time>
      </trkpt>
      <trkpt lat="43.6957" lon="5.97668">
        <ele>590</ele>
        <time>2015-10-24T08:25:30.546Z</time>
      </trkpt>
      <trkpt lat="43.6957" lon="5.97672">
        <ele>590</ele>
        <time>2015-10-24T08:25:31.534Z</time>
      </trkpt>
      <trkpt lat="43.69568" lon="5.97682">
        <ele>590</ele>
        <time>2015-10-24T08:25:34.545Z</time>
      </trkpt>
      <trkpt lat="43.69568" lon="5.97686">
        <ele>590</ele>
        <time>2015-10-24T08:25:35.521Z</time>
      </trkpt>
      <trkpt lat="43.69566" lon="5.97696">
        <ele>590</ele>
        <time>2015-10-24T08:25:38.540Z</time>
      </trkpt>
      <trkpt lat="43.69566" lon="5.97699">
        <ele>591</ele>
        <time>2015-10-24T08:25:39.549Z</time>
      </trkpt>
      <trkpt lat="43.69564" lon="5.97709">
        <ele>592</ele>
        <time>2015-10-24T08:25:42.546Z</time>
      </trkpt>
      <trkpt lat="43.69563" lon="5.97712">
        <ele>592</ele>
        <time>2015-10-24T08:25:43.523Z</time>
      </trkpt>
      <trkpt lat="43.69562" lon="5.97723">
        <ele>592</ele>
        <time>2015-10-24T08:25:46.544Z</time>
      </trkpt>
      <trkpt lat="43.69561" lon="5.97727">
        <ele>592</ele>
        <time>2015-10-24T08:25:47.523Z</time>
      </trkpt>
      <trkpt lat="43.69559" lon="5.97737">
        <ele>593</ele>
        <time>2015-10-24T08:25:50.571Z</time>
      </trkpt>
      <trkpt lat="43.69558" lon="5.97741">
        <ele>593</ele>
        <time>2015-10-24T08:25:51.523Z</time>
      </trkpt>
      <trkpt lat="43.69557" lon="5.97751">
        <ele>593</ele>
        <time>2015-10-24T08:25:54.545Z</time>
      </trkpt>
      <trkpt lat="43.69556" lon="5.97755">
        <ele>593</ele>
        <time>2015-10-24T08:25:55.522Z</time>
      </trkpt>
      <trkpt lat="43.69554" lon="5.97765">
        <ele>593</ele>
        <time>2015-10-24T08:25:58.545Z</time>
      </trkpt>
      <trkpt lat="43.69553" lon="5.97769">
        <ele>594</ele>
        <time>2015-10-24T08:25:59.518Z</time>
      </trkpt>
      <trkpt lat="43.69551" lon="5.97779">
        <ele>593</ele>
        <time>2015-10-24T08:26:02.546Z</time>
      </trkpt>
      <trkpt lat="43.69551" lon="5.97782">
        <ele>593</ele>
        <time>2015-10-24T08:26:03.521Z</time>
      </trkpt>
      <trkpt lat="43.69549" lon="5.97792">
        <ele>593</ele>
        <time>2015-10-24T08:26:06.545Z</time>
      </trkpt>
      <trkpt lat="43.69548" lon="5.97796">
        <ele>593</ele>
        <time>2015-10-24T08:26:07.521Z</time>
      </trkpt>
      <trkpt lat="43.69546" lon="5.97806">
        <ele>593</ele>
        <time>2015-10-24T08:26:10.545Z</time>
      </trkpt>
      <trkpt lat="43.69545" lon="5.97809">
        <ele>593</ele>
        <time>2015-10-24T08:26:11.523Z</time>
      </trkpt>
      <trkpt lat="43.69543" lon="5.97819">
        <ele>594</ele>
        <time>2015-10-24T08:26:14.543Z</time>
      </trkpt>
      <trkpt lat="43.69542" lon="5.97822">
        <ele>594</ele>
        <time>2015-10-24T08:26:15.523Z</time>
      </trkpt>
      <trkpt lat="43.6954" lon="5.97832">
        <ele>594</ele>
        <time>2015-10-24T08:26:18.532Z</time>
      </trkpt>
      <trkpt lat="43.6954" lon="5.97835">
        <ele>594</ele>
        <time>2015-10-24T08:26:19.523Z</time>
      </trkpt>
      <trkpt lat="43.69537" lon="5.97845">
        <ele>594</ele>
        <time>2015-10-24T08:26:22.544Z</time>
      </trkpt>
      <trkpt lat="43.69536" lon="5.97848">
        <ele>594</ele>
        <time>2015-10-24T08:26:23.549Z</time>
      </trkpt>
      <trkpt lat="43.69534" lon="5.97857">
        <ele>596</ele>
        <time>2015-10-24T08:26:26.543Z</time>
      </trkpt>
      <trkpt lat="43.69533" lon="5.9786">
        <ele>595</ele>
        <time>2015-10-24T08:26:27.522Z</time>
      </trkpt>
      <trkpt lat="43.6953" lon="5.97869">
        <ele>596</ele>
        <time>2015-10-24T08:26:30.544Z</time>
      </trkpt>
      <trkpt lat="43.69529" lon="5.97872">
        <ele>596</ele>
        <time>2015-10-24T08:26:31.523Z</time>
      </trkpt>
      <trkpt lat="43.69523" lon="5.97877">
        <ele>596</ele>
        <time>2015-10-24T08:26:34.574Z</time>
      </trkpt>
      <trkpt lat="43.6952" lon="5.97876">
        <ele>596</ele>
        <time>2015-10-24T08:26:35.523Z</time>
      </trkpt>
      <trkpt lat="43.69513" lon="5.97872">
        <ele>597</ele>
        <time>2015-10-24T08:26:38.546Z</time>
      </trkpt>
      <trkpt lat="43.69511" lon="5.97871">
        <ele>598</ele>
        <time>2015-10-24T08:26:39.524Z</time>
      </trkpt>
      <trkpt lat="43.69505" lon="5.97867">
        <ele>598</ele>
        <time>2015-10-24T08:26:41.547Z</time>
      </trkpt>
      <trkpt lat="43.69502" lon="5.97864">
        <ele>598</ele>
        <time>2015-10-24T08:26:42.524Z</time>
      </trkpt>
      <trkpt lat="43.69495" lon="5.97859">
        <ele>598</ele>
        <time>2015-10-24T08:26:44.545Z</time>
      </trkpt>
      <trkpt lat="43.69492" lon="5.97857">
        <ele>599</ele>
        <time>2015-10-24T08:26:45.549Z</time>
      </trkpt>
      <trkpt lat="43.69485" lon="5.97853">
        <ele>598</ele>
        <time>2015-10-24T08:26:47.546Z</time>
      </trkpt>
      <trkpt lat="43.69482" lon="5.9785">
        <ele>598</ele>
        <time>2015-10-24T08:26:48.525Z</time>
      </trkpt>
      <trkpt lat="43.69478" lon="5.97847">
        <ele>598</ele>
        <time>2015-10-24T08:26:49.544Z</time>
      </trkpt>
      <trkpt lat="43.69472" lon="5.97842">
        <ele>597</ele>
        <time>2015-10-24T08:26:50.522Z</time>
      </trkpt>
      <trkpt lat="43.69467" lon="5.97839">
        <ele>597</ele>
        <time>2015-10-24T08:26:51.547Z</time>
      </trkpt>
      <trkpt lat="43.69463" lon="5.97835">
        <ele>597</ele>
        <time>2015-10-24T08:26:52.525Z</time>
      </trkpt>
      <trkpt lat="43.69458" lon="5.97831">
        <ele>597</ele>
        <time>2015-10-24T08:26:53.548Z</time>
      </trkpt>
      <trkpt lat="43.69454" lon="5.97829">
        <ele>597</ele>
        <time>2015-10-24T08:26:54.525Z</time>
      </trkpt>
      <trkpt lat="43.69446" lon="5.97829">
        <ele>598</ele>
        <time>2015-10-24T08:26:56.581Z</time>
      </trkpt>
      <trkpt lat="43.69442" lon="5.9783">
        <ele>598</ele>
        <time>2015-10-24T08:26:57.524Z</time>
      </trkpt>
      <trkpt lat="43.69437" lon="5.97829">
        <ele>598</ele>
        <time>2015-10-24T08:26:58.547Z</time>
      </trkpt>
      <trkpt lat="43.69432" lon="5.97829">
        <ele>599</ele>
        <time>2015-10-24T08:26:59.524Z</time>
      </trkpt>
      <trkpt lat="43.69427" lon="5.97825">
        <ele>598</ele>
        <time>2015-10-24T08:27:00.547Z</time>
      </trkpt>
      <trkpt lat="43.69423" lon="5.97822">
        <ele>598</ele>
        <time>2015-10-24T08:27:01.521Z</time>
      </trkpt>
      <trkpt lat="43.69415" lon="5.97818">
        <ele>598</ele>
        <time>2015-10-24T08:27:03.541Z</time>
      </trkpt>
      <trkpt lat="43.6941" lon="5.97817">
        <ele>599</ele>
        <time>2015-10-24T08:27:04.522Z</time>
      </trkpt>
      <trkpt lat="43.69404" lon="5.97821">
        <ele>600</ele>
        <time>2015-10-24T08:27:06.586Z</time>
      </trkpt>
      <trkpt lat="43.694" lon="5.97822">
        <ele>599</ele>
        <time>2015-10-24T08:27:07.522Z</time>
      </trkpt>
      <trkpt lat="43.69392" lon="5.97825">
        <ele>599</ele>
        <time>2015-10-24T08:27:09.546Z</time>
      </trkpt>
      <trkpt lat="43.69388" lon="5.97826">
        <ele>599</ele>
        <time>2015-10-24T08:27:10.526Z</time>
      </trkpt>
      <trkpt lat="43.6938" lon="5.9783">
        <ele>599</ele>
        <time>2015-10-24T08:27:12.573Z</time>
      </trkpt>
      <trkpt lat="43.69377" lon="5.97832">
        <ele>599</ele>
        <time>2015-10-24T08:27:13.523Z</time>
      </trkpt>
      <trkpt lat="43.69369" lon="5.97837">
        <ele>599</ele>
        <time>2015-10-24T08:27:15.546Z</time>
      </trkpt>
      <trkpt lat="43.69366" lon="5.9784">
        <ele>599</ele>
        <time>2015-10-24T08:27:16.524Z</time>
      </trkpt>
      <trkpt lat="43.69359" lon="5.97845">
        <ele>599</ele>
        <time>2015-10-24T08:27:18.549Z</time>
      </trkpt>
      <trkpt lat="43.69355" lon="5.97848">
        <ele>599</ele>
        <time>2015-10-24T08:27:19.525Z</time>
      </trkpt>
      <trkpt lat="43.69349" lon="5.97855">
        <ele>600</ele>
        <time>2015-10-24T08:27:21.548Z</time>
      </trkpt>
      <trkpt lat="43.69346" lon="5.97859">
        <ele>600</ele>
        <time>2015-10-24T08:27:22.523Z</time>
      </trkpt>
      <trkpt lat="43.69339" lon="5.97866">
        <ele>600</ele>
        <time>2015-10-24T08:27:24.534Z</time>
      </trkpt>
      <trkpt lat="43.69335" lon="5.97869">
        <ele>600</ele>
        <time>2015-10-24T08:27:25.525Z</time>
      </trkpt>
      <trkpt lat="43.69331" lon="5.9787">
        <ele>601</ele>
        <time>2015-10-24T08:27:26.546Z</time>
      </trkpt>
      <trkpt lat="43.69325" lon="5.97871">
        <ele>601</ele>
        <time>2015-10-24T08:27:27.524Z</time>
      </trkpt>
      <trkpt lat="43.69317" lon="5.97874">
        <ele>601</ele>
        <time>2015-10-24T08:27:29.547Z</time>
      </trkpt>
      <trkpt lat="43.69313" lon="5.97876">
        <ele>601</ele>
        <time>2015-10-24T08:27:30.524Z</time>
      </trkpt>
      <trkpt lat="43.69307" lon="5.97881">
        <ele>601</ele>
        <time>2015-10-24T08:27:32.547Z</time>
      </trkpt>
      <trkpt lat="43.69304" lon="5.97884">
        <ele>601</ele>
        <time>2015-10-24T08:27:33.522Z</time>
      </trkpt>
      <trkpt lat="43.69298" lon="5.97888">
        <ele>601</ele>
        <time>2015-10-24T08:27:35.547Z</time>
      </trkpt>
      <trkpt lat="43.69295" lon="5.97889">
        <ele>601</ele>
        <time>2015-10-24T08:27:36.524Z</time>
      </trkpt>
      <trkpt lat="43.69288" lon="5.97891">
        <ele>601</ele>
        <time>2015-10-24T08:27:38.547Z</time>
      </trkpt>
      <trkpt lat="43.69285" lon="5.97893">
        <ele>601</ele>
        <time>2015-10-24T08:27:39.524Z</time>
      </trkpt>
      <trkpt lat="43.69277" lon="5.97898">
        <ele>601</ele>
        <time>2015-10-24T08:27:42.547Z</time>
      </trkpt>
      <trkpt lat="43.69276" lon="5.97898">
        <ele>601</ele>
        <time>2015-10-24T08:27:43.523Z</time>
      </trkpt>
      <trkpt lat="43.69269" lon="5.97901">
        <ele>601</ele>
        <time>2015-10-24T08:27:47.547Z</time>
      </trkpt>
      <trkpt lat="43.69267" lon="5.97902">
        <ele>601</ele>
        <time>2015-10-24T08:27:48.525Z</time>
      </trkpt>
      <trkpt lat="43.69259" lon="5.97906">
        <ele>602</ele>
        <time>2015-10-24T08:27:53.600Z</time>
      </trkpt>
      <trkpt lat="43.69258" lon="5.97908">
        <ele>602</ele>
        <time>2015-10-24T08:27:54.524Z</time>
      </trkpt>
      <trkpt lat="43.69251" lon="5.97914">
        <ele>601</ele>
        <time>2015-10-24T08:27:58.548Z</time>
      </trkpt>
      <trkpt lat="43.69249" lon="5.97916">
        <ele>601</ele>
        <time>2015-10-24T08:27:59.523Z</time>
      </trkpt>
      <trkpt lat="43.69242" lon="5.9792">
        <ele>600</ele>
        <time>2015-10-24T08:28:02.548Z</time>
      </trkpt>
      <trkpt lat="43.69239" lon="5.9792">
        <ele>600</ele>
        <time>2015-10-24T08:28:03.524Z</time>
      </trkpt>
      <trkpt lat="43.69231" lon="5.97923">
        <ele>600</ele>
        <time>2015-10-24T08:28:06.545Z</time>
      </trkpt>
      <trkpt lat="43.69228" lon="5.97925">
        <ele>600</ele>
        <time>2015-10-24T08:28:07.524Z</time>
      </trkpt>
      <trkpt lat="43.69223" lon="5.9793">
        <ele>600</ele>
        <time>2015-10-24T08:28:09.546Z</time>
      </trkpt>
      <trkpt lat="43.6922" lon="5.97934">
        <ele>600</ele>
        <time>2015-10-24T08:28:10.523Z</time>
      </trkpt>
      <trkpt lat="43.69212" lon="5.9794">
        <ele>599</ele>
        <time>2015-10-24T08:28:12.574Z</time>
      </trkpt>
      <trkpt lat="43.69209" lon="5.97942">
        <ele>600</ele>
        <time>2015-10-24T08:28:13.524Z</time>
      </trkpt>
      <trkpt lat="43.692" lon="5.97945">
        <ele>599</ele>
        <time>2015-10-24T08:28:16.546Z</time>
      </trkpt>
      <trkpt lat="43.69198" lon="5.97947">
        <ele>600</ele>
        <time>2015-10-24T08:28:17.524Z</time>
      </trkpt>
      <trkpt lat="43.69191" lon="5.97954">
        <ele>601</ele>
        <time>2015-10-24T08:28:20.547Z</time>
      </trkpt>
      <trkpt lat="43.69189" lon="5.97956">
        <ele>601</ele>
        <time>2015-10-24T08:28:21.523Z</time>
      </trkpt>
      <trkpt lat="43.69181" lon="5.97961">
        <ele>601</ele>
        <time>2015-10-24T08:28:24.547Z</time>
      </trkpt>
      <trkpt lat="43.69179" lon="5.97962">
        <ele>601</ele>
        <time>2015-10-24T08:28:25.524Z</time>
      </trkpt>
      <trkpt lat="43.69171" lon="5.97967">
        <ele>601</ele>
        <time>2015-10-24T08:28:28.575Z</time>
      </trkpt>
      <trkpt lat="43.69168" lon="5.97968">
        <ele>601</ele>
        <time>2015-10-24T08:28:29.523Z</time>
      </trkpt>
      <trkpt lat="43.69161" lon="5.97973">
        <ele>601</ele>
        <time>2015-10-24T08:28:32.546Z</time>
      </trkpt>
      <trkpt lat="43.69158" lon="5.97974">
        <ele>601</ele>
        <time>2015-10-24T08:28:33.524Z</time>
      </trkpt>
      <trkpt lat="43.69152" lon="5.97978">
        <ele>601</ele>
        <time>2015-10-24T08:28:35.547Z</time>
      </trkpt>
      <trkpt lat="43.69148" lon="5.9798">
        <ele>602</ele>
        <time>2015-10-24T08:28:36.525Z</time>
      </trkpt>
      <trkpt lat="43.69142" lon="5.97985">
        <ele>602</ele>
        <time>2015-10-24T08:28:38.548Z</time>
      </trkpt>
      <trkpt lat="43.69139" lon="5.97987">
        <ele>602</ele>
        <time>2015-10-24T08:28:39.551Z</time>
      </trkpt>
      <trkpt lat="43.69133" lon="5.9799">
        <ele>602</ele>
        <time>2015-10-24T08:28:41.548Z</time>
      </trkpt>
      <trkpt lat="43.6913" lon="5.97992">
        <ele>602</ele>
        <time>2015-10-24T08:28:42.524Z</time>
      </trkpt>
      <trkpt lat="43.69124" lon="5.97995">
        <ele>602</ele>
        <time>2015-10-24T08:28:44.547Z</time>
      </trkpt>
      <trkpt lat="43.6912" lon="5.97997">
        <ele>602</ele>
        <time>2015-10-24T08:28:45.524Z</time>
      </trkpt>
      <trkpt lat="43.69115" lon="5.98001">
        <ele>602</ele>
        <time>2015-10-24T08:28:47.553Z</time>
      </trkpt>
      <trkpt lat="43.69112" lon="5.98003">
        <ele>601</ele>
        <time>2015-10-24T08:28:48.744Z</time>
      </trkpt>
      <trkpt lat="43.69104" lon="5.98009">
        <ele>601</ele>
        <time>2015-10-24T08:28:51.546Z</time>
      </trkpt>
      <trkpt lat="43.69102" lon="5.98011">
        <ele>602</ele>
        <time>2015-10-24T08:28:52.524Z</time>
      </trkpt>
      <trkpt lat="43.69094" lon="5.98017">
        <ele>602</ele>
        <time>2015-10-24T08:28:55.546Z</time>
      </trkpt>
      <trkpt lat="43.69091" lon="5.98018">
        <ele>601</ele>
        <time>2015-10-24T08:28:56.527Z</time>
      </trkpt>
      <trkpt lat="43.69085" lon="5.9802">
        <ele>601</ele>
        <time>2015-10-24T08:28:58.546Z</time>
      </trkpt>
      <trkpt lat="43.69082" lon="5.98022">
        <ele>601</ele>
        <time>2015-10-24T08:28:59.524Z</time>
      </trkpt>
      <trkpt lat="43.69076" lon="5.98025">
        <ele>601</ele>
        <time>2015-10-24T08:29:01.573Z</time>
      </trkpt>
      <trkpt lat="43.69074" lon="5.98026">
        <ele>601</ele>
        <time>2015-10-24T08:29:02.750Z</time>
      </trkpt>
      <trkpt lat="43.69067" lon="5.98031">
        <ele>602</ele>
        <time>2015-10-24T08:29:05.548Z</time>
      </trkpt>
      <trkpt lat="43.69065" lon="5.98033">
        <ele>602</ele>
        <time>2015-10-24T08:29:06.525Z</time>
      </trkpt>
      <trkpt lat="43.69058" lon="5.98039">
        <ele>602</ele>
        <time>2015-10-24T08:29:09.545Z</time>
      </trkpt>
      <trkpt lat="43.69055" lon="5.9804">
        <ele>602</ele>
        <time>2015-10-24T08:29:10.524Z</time>
      </trkpt>
      <trkpt lat="43.69047" lon="5.98045">
        <ele>601</ele>
        <time>2015-10-24T08:29:13.546Z</time>
      </trkpt>
      <trkpt lat="43.69044" lon="5.98046">
        <ele>601</ele>
        <time>2015-10-24T08:29:14.523Z</time>
      </trkpt>
      <trkpt lat="43.69037" lon="5.98051">
        <ele>600</ele>
        <time>2015-10-24T08:29:17.547Z</time>
      </trkpt>
      <trkpt lat="43.69034" lon="5.98052">
        <ele>601</ele>
        <time>2015-10-24T08:29:18.524Z</time>
      </trkpt>
      <trkpt lat="43.69027" lon="5.98057">
        <ele>600</ele>
        <time>2015-10-24T08:29:21.547Z</time>
      </trkpt>
      <trkpt lat="43.69025" lon="5.98059">
        <ele>600</ele>
        <time>2015-10-24T08:29:22.523Z</time>
      </trkpt>
      <trkpt lat="43.69017" lon="5.98062">
        <ele>601</ele>
        <time>2015-10-24T08:29:25.546Z</time>
      </trkpt>
      <trkpt lat="43.69015" lon="5.98063">
        <ele>602</ele>
        <time>2015-10-24T08:29:26.524Z</time>
      </trkpt>
      <trkpt lat="43.69008" lon="5.98069">
        <ele>602</ele>
        <time>2015-10-24T08:29:29.547Z</time>
      </trkpt>
      <trkpt lat="43.69005" lon="5.9807">
        <ele>603</ele>
        <time>2015-10-24T08:29:30.525Z</time>
      </trkpt>
      <trkpt lat="43.68997" lon="5.98072">
        <ele>603</ele>
        <time>2015-10-24T08:29:33.546Z</time>
      </trkpt>
      <trkpt lat="43.68994" lon="5.98071">
        <ele>602</ele>
        <time>2015-10-24T08:29:34.527Z</time>
      </trkpt>
      <trkpt lat="43.68988" lon="5.98071">
        <ele>602</ele>
        <time>2015-10-24T08:29:36.545Z</time>
      </trkpt>
      <trkpt lat="43.68984" lon="5.98072">
        <ele>601</ele>
        <time>2015-10-24T08:29:37.531Z</time>
      </trkpt>
      <trkpt lat="43.68976" lon="5.98073">
        <ele>601</ele>
        <time>2015-10-24T08:29:39.573Z</time>
      </trkpt>
      <trkpt lat="43.68972" lon="5.98074">
        <ele>601</ele>
        <time>2015-10-24T08:29:40.524Z</time>
      </trkpt>
      <trkpt lat="43.68965" lon="5.98077">
        <ele>601</ele>
        <time>2015-10-24T08:29:42.555Z</time>
      </trkpt>
      <trkpt lat="43.68961" lon="5.98078">
        <ele>601</ele>
        <time>2015-10-24T08:29:43.524Z</time>
      </trkpt>
      <trkpt lat="43.68954" lon="5.98079">
        <ele>600</ele>
        <time>2015-10-24T08:29:45.547Z</time>
      </trkpt>
      <trkpt lat="43.6895" lon="5.98079">
        <ele>600</ele>
        <time>2015-10-24T08:29:46.524Z</time>
      </trkpt>
      <trkpt lat="43.68943" lon="5.98082">
        <ele>601</ele>
        <time>2015-10-24T08:29:48.546Z</time>
      </trkpt>
      <trkpt lat="43.68939" lon="5.98084">
        <ele>601</ele>
        <time>2015-10-24T08:29:49.524Z</time>
      </trkpt>
      <trkpt lat="43.68932" lon="5.98088">
        <ele>600</ele>
        <time>2015-10-24T08:29:51.547Z</time>
      </trkpt>
      <trkpt lat="43.68928" lon="5.9809">
        <ele>600</ele>
        <time>2015-10-24T08:29:52.524Z</time>
      </trkpt>
      <trkpt lat="43.68921" lon="5.98093">
        <ele>601</ele>
        <time>2015-10-24T08:29:54.546Z</time>
      </trkpt>
      <trkpt lat="43.68918" lon="5.98094">
        <ele>600</ele>
        <time>2015-10-24T08:29:55.525Z</time>
      </trkpt>
      <trkpt lat="43.6891" lon="5.98097">
        <ele>600</ele>
        <time>2015-10-24T08:29:57.546Z</time>
      </trkpt>
      <trkpt lat="43.68907" lon="5.98099">
        <ele>601</ele>
        <time>2015-10-24T08:29:58.525Z</time>
      </trkpt>
      <trkpt lat="43.689" lon="5.98104">
        <ele>601</ele>
        <time>2015-10-24T08:30:00.548Z</time>
      </trkpt>
      <trkpt lat="43.68897" lon="5.98105">
        <ele>602</ele>
        <time>2015-10-24T08:30:01.551Z</time>
      </trkpt>
      <trkpt lat="43.68889" lon="5.98109">
        <ele>602</ele>
        <time>2015-10-24T08:30:03.546Z</time>
      </trkpt>
      <trkpt lat="43.68886" lon="5.98111">
        <ele>602</ele>
        <time>2015-10-24T08:30:04.536Z</time>
      </trkpt>
      <trkpt lat="43.68879" lon="5.98115">
        <ele>602</ele>
        <time>2015-10-24T08:30:06.546Z</time>
      </trkpt>
      <trkpt lat="43.68876" lon="5.98117">
        <ele>602</ele>
        <time>2015-10-24T08:30:07.524Z</time>
      </trkpt>
      <trkpt lat="43.68869" lon="5.98121">
        <ele>603</ele>
        <time>2015-10-24T08:30:09.546Z</time>
      </trkpt>
      <trkpt lat="43.68866" lon="5.98123">
        <ele>604</ele>
        <time>2015-10-24T08:30:10.736Z</time>
      </trkpt>
      <trkpt lat="43.68859" lon="5.98127">
        <ele>602</ele>
        <time>2015-10-24T08:30:12.573Z</time>
      </trkpt>
      <trkpt lat="43.68856" lon="5.9813">
        <ele>602</ele>
        <time>2015-10-24T08:30:13.519Z</time>
      </trkpt>
      <trkpt lat="43.6885" lon="5.98135">
        <ele>602</ele>
        <time>2015-10-24T08:30:15.546Z</time>
      </trkpt>
      <trkpt lat="43.68847" lon="5.98137">
        <ele>602</ele>
        <time>2015-10-24T08:30:16.523Z</time>
      </trkpt>
      <trkpt lat="43.68842" lon="5.98143">
        <ele>602</ele>
        <time>2015-10-24T08:30:18.545Z</time>
      </trkpt>
      <trkpt lat="43.68839" lon="5.98146">
        <ele>601</ele>
        <time>2015-10-24T08:30:19.525Z</time>
      </trkpt>
      <trkpt lat="43.68833" lon="5.98151">
        <ele>601</ele>
        <time>2015-10-24T08:30:21.548Z</time>
      </trkpt>
      <trkpt lat="43.6883" lon="5.98153">
        <ele>600</ele>
        <time>2015-10-24T08:30:22.524Z</time>
      </trkpt>
      <trkpt lat="43.68823" lon="5.98156">
        <ele>600</ele>
        <time>2015-10-24T08:30:24.542Z</time>
      </trkpt>
      <trkpt lat="43.6882" lon="5.98157">
        <ele>600</ele>
        <time>2015-10-24T08:30:25.522Z</time>
      </trkpt>
      <trkpt lat="43.68813" lon="5.98158">
        <ele>600</ele>
        <time>2015-10-24T08:30:27.543Z</time>
      </trkpt>
      <trkpt lat="43.6881" lon="5.9816">
        <ele>599</ele>
        <time>2015-10-24T08:30:28.523Z</time>
      </trkpt>
      <trkpt lat="43.68803" lon="5.98164">
        <ele>599</ele>
        <time>2015-10-24T08:30:30.543Z</time>
      </trkpt>
      <trkpt lat="43.688" lon="5.98166">
        <ele>599</ele>
        <time>2015-10-24T08:30:31.522Z</time>
      </trkpt>
      <trkpt lat="43.68794" lon="5.98171">
        <ele>600</ele>
        <time>2015-10-24T08:30:33.544Z</time>
      </trkpt>
      <trkpt lat="43.68791" lon="5.98172">
        <ele>600</ele>
        <time>2015-10-24T08:30:34.550Z</time>
      </trkpt>
      <trkpt lat="43.68785" lon="5.98175">
        <ele>600</ele>
        <time>2015-10-24T08:30:36.547Z</time>
      </trkpt>
      <trkpt lat="43.68781" lon="5.98176">
        <ele>600</ele>
        <time>2015-10-24T08:30:37.524Z</time>
      </trkpt>
      <trkpt lat="43.68774" lon="5.98176">
        <ele>601</ele>
        <time>2015-10-24T08:30:39.547Z</time>
      </trkpt>
      <trkpt lat="43.6877" lon="5.98176">
        <ele>602</ele>
        <time>2015-10-24T08:30:40.525Z</time>
      </trkpt>
      <trkpt lat="43.68764" lon="5.98177">
        <ele>604</ele>
        <time>2015-10-24T08:30:42.546Z</time>
      </trkpt>
      <trkpt lat="43.6876" lon="5.98178">
        <ele>605</ele>
        <time>2015-10-24T08:30:43.523Z</time>
      </trkpt>
      <trkpt lat="43.68753" lon="5.98179">
        <ele>604</ele>
        <time>2015-10-24T08:30:45.573Z</time>
      </trkpt>
      <trkpt lat="43.68749" lon="5.9818">
        <ele>604</ele>
        <time>2015-10-24T08:30:46.526Z</time>
      </trkpt>
      <trkpt lat="43.68742" lon="5.98181">
        <ele>604</ele>
        <time>2015-10-24T08:30:48.545Z</time>
      </trkpt>
      <trkpt lat="43.68738" lon="5.98181">
        <ele>604</ele>
        <time>2015-10-24T08:30:49.524Z</time>
      </trkpt>
      <trkpt lat="43.68731" lon="5.98182">
        <ele>604</ele>
        <time>2015-10-24T08:30:51.548Z</time>
      </trkpt>
      <trkpt lat="43.68728" lon="5.98183">
        <ele>605</ele>
        <time>2015-10-24T08:30:52.524Z</time>
      </trkpt>
      <trkpt lat="43.68721" lon="5.98185">
        <ele>604</ele>
        <time>2015-10-24T08:30:55.543Z</time>
      </trkpt>
      <trkpt lat="43.68718" lon="5.98185">
        <ele>604</ele>
        <time>2015-10-24T08:30:56.550Z</time>
      </trkpt>
      <trkpt lat="43.6871" lon="5.98187">
        <ele>604</ele>
        <time>2015-10-24T08:30:58.544Z</time>
      </trkpt>
      <trkpt lat="43.68707" lon="5.98188">
        <ele>605</ele>
        <time>2015-10-24T08:30:59.533Z</time>
      </trkpt>
      <trkpt lat="43.68699" lon="5.98192">
        <ele>604</ele>
        <time>2015-10-24T08:31:01.542Z</time>
      </trkpt>
      <trkpt lat="43.68696" lon="5.98194">
        <ele>604</ele>
        <time>2015-10-24T08:31:02.522Z</time>
      </trkpt>
      <trkpt lat="43.68688" lon="5.98197">
        <ele>604</ele>
        <time>2015-10-24T08:31:04.547Z</time>
      </trkpt>
      <trkpt lat="43.68685" lon="5.98198">
        <ele>604</ele>
        <time>2015-10-24T08:31:05.524Z</time>
      </trkpt>
      <trkpt lat="43.68677" lon="5.98199">
        <ele>603</ele>
        <time>2015-10-24T08:31:07.547Z</time>
      </trkpt>
      <trkpt lat="43.68673" lon="5.98199">
        <ele>603</ele>
        <time>2015-10-24T08:31:08.519Z</time>
      </trkpt>
      <trkpt lat="43.68666" lon="5.98201">
        <ele>601</ele>
        <time>2015-10-24T08:31:10.548Z</time>
      </trkpt>
      <trkpt lat="43.68662" lon="5.98202">
        <ele>601</ele>
        <time>2015-10-24T08:31:11.524Z</time>
      </trkpt>
      <trkpt lat="43.68657" lon="5.9821">
        <ele>600</ele>
        <time>2015-10-24T08:31:13.544Z</time>
      </trkpt>
      <trkpt lat="43.68655" lon="5.98215">
        <ele>601</ele>
        <time>2015-10-24T08:31:14.524Z</time>
      </trkpt>
      <trkpt lat="43.68654" lon="5.98225">
        <ele>601</ele>
        <time>2015-10-24T08:31:16.544Z</time>
      </trkpt>
      <trkpt lat="43.68653" lon="5.9823">
        <ele>602</ele>
        <time>2015-10-24T08:31:17.524Z</time>
      </trkpt>
      <trkpt lat="43.68651" lon="5.98239">
        <ele>602</ele>
        <time>2015-10-24T08:31:19.544Z</time>
      </trkpt>
      <trkpt lat="43.6865" lon="5.98244">
        <ele>601</ele>
        <time>2015-10-24T08:31:20.525Z</time>
      </trkpt>
      <trkpt lat="43.68649" lon="5.98253">
        <ele>602</ele>
        <time>2015-10-24T08:31:22.547Z</time>
      </trkpt>
      <trkpt lat="43.68648" lon="5.98258">
        <ele>602</ele>
        <time>2015-10-24T08:31:23.550Z</time>
      </trkpt>
      <trkpt lat="43.68647" lon="5.98267">
        <ele>602</ele>
        <time>2015-10-24T08:31:25.535Z</time>
      </trkpt>
      <trkpt lat="43.68647" lon="5.98271">
        <ele>602</ele>
        <time>2015-10-24T08:31:26.524Z</time>
      </trkpt>
      <trkpt lat="43.68644" lon="5.9828">
        <ele>602</ele>
        <time>2015-10-24T08:31:28.556Z</time>
      </trkpt>
      <trkpt lat="43.68641" lon="5.98281">
        <ele>603</ele>
        <time>2015-10-24T08:31:29.525Z</time>
      </trkpt>
      <trkpt lat="43.68634" lon="5.98279">
        <ele>602</ele>
        <time>2015-10-24T08:31:31.554Z</time>
      </trkpt>
      <trkpt lat="43.6863" lon="5.98277">
        <ele>602</ele>
        <time>2015-10-24T08:31:32.524Z</time>
      </trkpt>
      <trkpt lat="43.68622" lon="5.98276">
        <ele>603</ele>
        <time>2015-10-24T08:31:34.573Z</time>
      </trkpt>
      <trkpt lat="43.68618" lon="5.98275">
        <ele>603</ele>
        <time>2015-10-24T08:31:35.524Z</time>
      </trkpt>
      <trkpt lat="43.68611" lon="5.9827">
        <ele>604</ele>
        <time>2015-10-24T08:31:37.547Z</time>
      </trkpt>
      <trkpt lat="43.68608" lon="5.98266">
        <ele>603</ele>
        <time>2015-10-24T08:31:38.525Z</time>
      </trkpt>
      <trkpt lat="43.68603" lon="5.98258">
        <ele>603</ele>
        <time>2015-10-24T08:31:40.547Z</time>
      </trkpt>
      <trkpt lat="43.686" lon="5.98254">
        <ele>603</ele>
        <time>2015-10-24T08:31:41.525Z</time>
      </trkpt>
      <trkpt lat="43.68595" lon="5.98247">
        <ele>602</ele>
        <time>2015-10-24T08:31:43.541Z</time>
      </trkpt>
      <trkpt lat="43.68591" lon="5.98244">
        <ele>602</ele>
        <time>2015-10-24T08:31:44.525Z</time>
      </trkpt>
      <trkpt lat="43.68584" lon="5.98241">
        <ele>602</ele>
        <time>2015-10-24T08:31:46.546Z</time>
      </trkpt>
      <trkpt lat="43.6858" lon="5.98239">
        <ele>603</ele>
        <time>2015-10-24T08:31:47.524Z</time>
      </trkpt>
      <trkpt lat="43.68573" lon="5.98233">
        <ele>603</ele>
        <time>2015-10-24T08:31:50.547Z</time>
      </trkpt>
      <trkpt lat="43.68571" lon="5.98231">
        <ele>604</ele>
        <time>2015-10-24T08:31:51.525Z</time>
      </trkpt>
      <trkpt lat="43.68564" lon="5.98228">
        <ele>603</ele>
        <time>2015-10-24T08:31:54.546Z</time>
      </trkpt>
      <trkpt lat="43.68561" lon="5.98226">
        <ele>602</ele>
        <time>2015-10-24T08:31:55.524Z</time>
      </trkpt>
      <trkpt lat="43.68553" lon="5.98223">
        <ele>605</ele>
        <time>2015-10-24T08:31:58.531Z</time>
      </trkpt>
      <trkpt lat="43.68549" lon="5.98221">
        <ele>605</ele>
        <time>2015-10-24T08:31:59.515Z</time>
      </trkpt>
      <trkpt lat="43.68544" lon="5.98217">
        <ele>605</ele>
        <time>2015-10-24T08:32:01.541Z</time>
      </trkpt>
      <trkpt lat="43.68541" lon="5.98214">
        <ele>605</ele>
        <time>2015-10-24T08:32:02.523Z</time>
      </trkpt>
      <trkpt lat="43.68537" lon="5.98208">
        <ele>605</ele>
        <time>2015-10-24T08:32:04.553Z</time>
      </trkpt>
      <trkpt lat="43.68534" lon="5.98205">
        <ele>605</ele>
        <time>2015-10-24T08:32:05.522Z</time>
      </trkpt>
      <trkpt lat="43.6853" lon="5.98199">
        <ele>606</ele>
        <time>2015-10-24T08:32:07.539Z</time>
      </trkpt>
      <trkpt lat="43.68527" lon="5.98197">
        <ele>607</ele>
        <time>2015-10-24T08:32:08.523Z</time>
      </trkpt>
      <trkpt lat="43.68521" lon="5.98193">
        <ele>608</ele>
        <time>2015-10-24T08:32:10.548Z</time>
      </trkpt>
      <trkpt lat="43.68519" lon="5.9819">
        <ele>609</ele>
        <time>2015-10-24T08:32:11.526Z</time>
      </trkpt>
      <trkpt lat="43.68514" lon="5.98185">
        <ele>610</ele>
        <time>2015-10-24T08:32:13.547Z</time>
      </trkpt>
      <trkpt lat="43.68512" lon="5.98182">
        <ele>609</ele>
        <time>2015-10-24T08:32:14.525Z</time>
      </trkpt>
      <trkpt lat="43.68507" lon="5.98176">
        <ele>610</ele>
        <time>2015-10-24T08:32:16.549Z</time>
      </trkpt>
      <trkpt lat="43.68504" lon="5.98174">
        <ele>610</ele>
        <time>2015-10-24T08:32:17.524Z</time>
      </trkpt>
      <trkpt lat="43.68499" lon="5.9817">
        <ele>611</ele>
        <time>2015-10-24T08:32:19.560Z</time>
      </trkpt>
      <trkpt lat="43.68496" lon="5.98168">
        <ele>611</ele>
        <time>2015-10-24T08:32:20.525Z</time>
      </trkpt>
      <trkpt lat="43.6849" lon="5.98165">
        <ele>612</ele>
        <time>2015-10-24T08:32:22.548Z</time>
      </trkpt>
      <trkpt lat="43.68487" lon="5.98162">
        <ele>611</ele>
        <time>2015-10-24T08:32:23.550Z</time>
      </trkpt>
      <trkpt lat="43.68482" lon="5.98159">
        <ele>610</ele>
        <time>2015-10-24T08:32:25.547Z</time>
      </trkpt>
      <trkpt lat="43.68478" lon="5.98158">
        <ele>610</ele>
        <time>2015-10-24T08:32:26.524Z</time>
      </trkpt>
      <trkpt lat="43.68472" lon="5.98158">
        <ele>610</ele>
        <time>2015-10-24T08:32:28.596Z</time>
      </trkpt>
      <trkpt lat="43.68469" lon="5.98158">
        <ele>611</ele>
        <time>2015-10-24T08:32:29.526Z</time>
      </trkpt>
      <trkpt lat="43.6846" lon="5.98161">
        <ele>612</ele>
        <time>2015-10-24T08:32:32.546Z</time>
      </trkpt>
      <trkpt lat="43.68458" lon="5.98163">
        <ele>611</ele>
        <time>2015-10-24T08:32:33.524Z</time>
      </trkpt>
      <trkpt lat="43.6845" lon="5.98165">
        <ele>611</ele>
        <time>2015-10-24T08:32:36.764Z</time>
      </trkpt>
      <trkpt lat="43.68447" lon="5.98165">
        <ele>611</ele>
        <time>2015-10-24T08:32:37.524Z</time>
      </trkpt>
      <trkpt lat="43.68439" lon="5.9817">
        <ele>608</ele>
        <time>2015-10-24T08:32:40.546Z</time>
      </trkpt>
      <trkpt lat="43.68437" lon="5.98172">
        <ele>608</ele>
        <time>2015-10-24T08:32:41.525Z</time>
      </trkpt>
      <trkpt lat="43.68428" lon="5.98171">
        <ele>608</ele>
        <time>2015-10-24T08:32:44.547Z</time>
      </trkpt>
      <trkpt lat="43.68425" lon="5.9817">
        <ele>608</ele>
        <time>2015-10-24T08:32:45.525Z</time>
      </trkpt>
      <trkpt lat="43.68419" lon="5.98168">
        <ele>608</ele>
        <time>2015-10-24T08:32:47.548Z</time>
      </trkpt>
      <trkpt lat="43.68416" lon="5.98166">
        <ele>607</ele>
        <time>2015-10-24T08:32:48.525Z</time>
      </trkpt>
      <trkpt lat="43.68408" lon="5.98161">
        <ele>604</ele>
        <time>2015-10-24T08:33:06.542Z</time>
      </trkpt>
      <trkpt lat="43.68408" lon="5.98161">
        <ele>604</ele>
        <time>2015-10-24T08:33:07.520Z</time>
      </trkpt>
      <trkpt lat="43.68404" lon="5.98162">
        <ele>603</ele>
        <time>2015-10-24T08:33:48.943Z</time>
      </trkpt>
      <trkpt lat="43.68395" lon="5.9817">
        <ele>631</ele>
        <time>2015-10-24T08:38:01.643Z</time>
      </trkpt>
      <trkpt lat="43.68401" lon="5.98164">
        <ele>627</ele>
        <time>2015-10-24T08:38:10.561Z</time>
      </trkpt>
      <trkpt lat="43.68403" lon="5.98163">
        <ele>615</ele>
        <time>2015-10-24T08:38:11.525Z</time>
      </trkpt>
      <trkpt lat="43.68394" lon="5.98164">
        <ele>603</ele>
        <time>2015-10-24T08:38:38.549Z</time>
      </trkpt>
      <trkpt lat="43.68391" lon="5.98164">
        <ele>603</ele>
        <time>2015-10-24T08:38:39.525Z</time>
      </trkpt>
      <trkpt lat="43.68384" lon="5.98163">
        <ele>603</ele>
        <time>2015-10-24T08:38:41.548Z</time>
      </trkpt>
      <trkpt lat="43.68379" lon="5.98163">
        <ele>602</ele>
        <time>2015-10-24T08:38:42.524Z</time>
      </trkpt>
      <trkpt lat="43.68374" lon="5.98162">
        <ele>601</ele>
        <time>2015-10-24T08:38:43.549Z</time>
      </trkpt>
      <trkpt lat="43.68368" lon="5.9816">
        <ele>600</ele>
        <time>2015-10-24T08:38:44.526Z</time>
      </trkpt>
      <trkpt lat="43.68362" lon="5.98159">
        <ele>599</ele>
        <time>2015-10-24T08:38:45.559Z</time>
      </trkpt>
      <trkpt lat="43.68357" lon="5.98157">
        <ele>599</ele>
        <time>2015-10-24T08:38:46.525Z</time>
      </trkpt>
      <trkpt lat="43.6835" lon="5.98156">
        <ele>597</ele>
        <time>2015-10-24T08:38:47.576Z</time>
      </trkpt>
      <trkpt lat="43.68344" lon="5.98154">
        <ele>596</ele>
        <time>2015-10-24T08:38:48.526Z</time>
      </trkpt>
      <trkpt lat="43.68339" lon="5.98153">
        <ele>595</ele>
        <time>2015-10-24T08:38:49.548Z</time>
      </trkpt>
      <trkpt lat="43.68332" lon="5.98151">
        <ele>594</ele>
        <time>2015-10-24T08:38:50.525Z</time>
      </trkpt>
      <trkpt lat="43.68326" lon="5.9815">
        <ele>593</ele>
        <time>2015-10-24T08:38:51.549Z</time>
      </trkpt>
      <trkpt lat="43.6832" lon="5.98152">
        <ele>592</ele>
        <time>2015-10-24T08:38:52.537Z</time>
      </trkpt>
      <trkpt lat="43.68313" lon="5.98154">
        <ele>590</ele>
        <time>2015-10-24T08:38:53.548Z</time>
      </trkpt>
      <trkpt lat="43.68306" lon="5.98159">
        <ele>590</ele>
        <time>2015-10-24T08:38:54.514Z</time>
      </trkpt>
      <trkpt lat="43.68299" lon="5.98166">
        <ele>589</ele>
        <time>2015-10-24T08:38:55.548Z</time>
      </trkpt>
      <trkpt lat="43.68293" lon="5.98172">
        <ele>588</ele>
        <time>2015-10-24T08:38:56.525Z</time>
      </trkpt>
      <trkpt lat="43.68288" lon="5.9818">
        <ele>588</ele>
        <time>2015-10-24T08:38:57.549Z</time>
      </trkpt>
      <trkpt lat="43.68282" lon="5.98189">
        <ele>588</ele>
        <time>2015-10-24T08:38:58.527Z</time>
      </trkpt>
      <trkpt lat="43.68278" lon="5.98196">
        <ele>587</ele>
        <time>2015-10-24T08:38:59.552Z</time>
      </trkpt>
      <trkpt lat="43.68273" lon="5.98204">
        <ele>585</ele>
        <time>2015-10-24T08:39:00.525Z</time>
      </trkpt>
      <trkpt lat="43.68267" lon="5.98211">
        <ele>584</ele>
        <time>2015-10-24T08:39:01.548Z</time>
      </trkpt>
      <trkpt lat="43.6826" lon="5.98216">
        <ele>583</ele>
        <time>2015-10-24T08:39:02.526Z</time>
      </trkpt>
      <trkpt lat="43.68253" lon="5.98222">
        <ele>582</ele>
        <time>2015-10-24T08:39:03.581Z</time>
      </trkpt>
      <trkpt lat="43.68246" lon="5.98228">
        <ele>582</ele>
        <time>2015-10-24T08:39:04.526Z</time>
      </trkpt>
      <trkpt lat="43.68241" lon="5.98232">
        <ele>583</ele>
        <time>2015-10-24T08:39:05.550Z</time>
      </trkpt>
      <trkpt lat="43.68236" lon="5.98237">
        <ele>582</ele>
        <time>2015-10-24T08:39:06.527Z</time>
      </trkpt>
      <trkpt lat="43.68231" lon="5.98242">
        <ele>582</ele>
        <time>2015-10-24T08:39:07.548Z</time>
      </trkpt>
      <trkpt lat="43.68227" lon="5.98247">
        <ele>582</ele>
        <time>2015-10-24T08:39:08.527Z</time>
      </trkpt>
      <trkpt lat="43.6822" lon="5.98254">
        <ele>582</ele>
        <time>2015-10-24T08:39:10.549Z</time>
      </trkpt>
      <trkpt lat="43.68218" lon="5.98256">
        <ele>582</ele>
        <time>2015-10-24T08:39:11.526Z</time>
      </trkpt>
      <trkpt lat="43.68209" lon="5.98255">
        <ele>581</ele>
        <time>2015-10-24T08:39:14.583Z</time>
      </trkpt>
      <trkpt lat="43.68206" lon="5.98257">
        <ele>582</ele>
        <time>2015-10-24T08:39:15.527Z</time>
      </trkpt>
      <trkpt lat="43.68201" lon="5.98261">
        <ele>581</ele>
        <time>2015-10-24T08:39:17.549Z</time>
      </trkpt>
      <trkpt lat="43.68198" lon="5.98263">
        <ele>581</ele>
        <time>2015-10-24T08:39:18.526Z</time>
      </trkpt>
      <trkpt lat="43.68192" lon="5.98258">
        <ele>581</ele>
        <time>2015-10-24T08:39:21.550Z</time>
      </trkpt>
      <trkpt lat="43.6819" lon="5.98255">
        <ele>581</ele>
        <time>2015-10-24T08:39:22.526Z</time>
      </trkpt>
      <trkpt lat="43.68187" lon="5.98244">
        <ele>582</ele>
        <time>2015-10-24T08:39:25.578Z</time>
      </trkpt>
      <trkpt lat="43.68186" lon="5.9824">
        <ele>581</ele>
        <time>2015-10-24T08:39:26.526Z</time>
      </trkpt>
      <trkpt lat="43.68184" lon="5.98231">
        <ele>579</ele>
        <time>2015-10-24T08:39:28.550Z</time>
      </trkpt>
      <trkpt lat="43.68181" lon="5.98225">
        <ele>579</ele>
        <time>2015-10-24T08:39:29.525Z</time>
      </trkpt>
      <trkpt lat="43.68178" lon="5.98217">
        <ele>579</ele>
        <time>2015-10-24T08:39:30.548Z</time>
      </trkpt>
      <trkpt lat="43.68178" lon="5.98211">
        <ele>578</ele>
        <time>2015-10-24T08:39:31.524Z</time>
      </trkpt>
      <trkpt lat="43.68177" lon="5.98202">
        <ele>579</ele>
        <time>2015-10-24T08:39:32.548Z</time>
      </trkpt>
      <trkpt lat="43.68174" lon="5.98194">
        <ele>579</ele>
        <time>2015-10-24T08:39:33.525Z</time>
      </trkpt>
      <trkpt lat="43.6817" lon="5.98188">
        <ele>579</ele>
        <time>2015-10-24T08:39:34.550Z</time>
      </trkpt>
      <trkpt lat="43.68166" lon="5.98181">
        <ele>579</ele>
        <time>2015-10-24T08:39:35.526Z</time>
      </trkpt>
      <trkpt lat="43.68162" lon="5.98174">
        <ele>579</ele>
        <time>2015-10-24T08:39:36.549Z</time>
      </trkpt>
      <trkpt lat="43.68159" lon="5.98167">
        <ele>579</ele>
        <time>2015-10-24T08:39:37.526Z</time>
      </trkpt>
      <trkpt lat="43.68155" lon="5.98161">
        <ele>578</ele>
        <time>2015-10-24T08:39:38.548Z</time>
      </trkpt>
      <trkpt lat="43.68152" lon="5.98155">
        <ele>577</ele>
        <time>2015-10-24T08:39:39.525Z</time>
      </trkpt>
      <trkpt lat="43.68148" lon="5.9815">
        <ele>577</ele>
        <time>2015-10-24T08:39:40.547Z</time>
      </trkpt>
      <trkpt lat="43.68144" lon="5.98146">
        <ele>577</ele>
        <time>2015-10-24T08:39:41.560Z</time>
      </trkpt>
      <trkpt lat="43.68136" lon="5.98141">
        <ele>576</ele>
        <time>2015-10-24T08:39:43.550Z</time>
      </trkpt>
      <trkpt lat="43.68132" lon="5.98142">
        <ele>577</ele>
        <time>2015-10-24T08:39:44.526Z</time>
      </trkpt>
      <trkpt lat="43.68124" lon="5.98143">
        <ele>577</ele>
        <time>2015-10-24T08:39:46.549Z</time>
      </trkpt>
      <trkpt lat="43.6812" lon="5.98143">
        <ele>578</ele>
        <time>2015-10-24T08:39:47.534Z</time>
      </trkpt>
      <trkpt lat="43.68112" lon="5.98142">
        <ele>578</ele>
        <time>2015-10-24T08:39:49.550Z</time>
      </trkpt>
      <trkpt lat="43.68108" lon="5.98141">
        <ele>578</ele>
        <time>2015-10-24T08:39:50.527Z</time>
      </trkpt>
      <trkpt lat="43.68101" lon="5.98134">
        <ele>578</ele>
        <time>2015-10-24T08:39:52.575Z</time>
      </trkpt>
      <trkpt lat="43.68098" lon="5.98132">
        <ele>578</ele>
        <time>2015-10-24T08:39:53.524Z</time>
      </trkpt>
      <trkpt lat="43.68091" lon="5.98125">
        <ele>577</ele>
        <time>2015-10-24T08:39:55.559Z</time>
      </trkpt>
      <trkpt lat="43.68087" lon="5.98122">
        <ele>577</ele>
        <time>2015-10-24T08:39:56.526Z</time>
      </trkpt>
      <trkpt lat="43.68083" lon="5.98117">
        <ele>577</ele>
        <time>2015-10-24T08:39:57.549Z</time>
      </trkpt>
      <trkpt lat="43.68079" lon="5.98113">
        <ele>576</ele>
        <time>2015-10-24T08:39:58.525Z</time>
      </trkpt>
      <trkpt lat="43.68076" lon="5.98109">
        <ele>575</ele>
        <time>2015-10-24T08:39:59.549Z</time>
      </trkpt>
      <trkpt lat="43.68073" lon="5.98103">
        <ele>576</ele>
        <time>2015-10-24T08:40:00.526Z</time>
      </trkpt>
      <trkpt lat="43.6807" lon="5.98097">
        <ele>575</ele>
        <time>2015-10-24T08:40:01.549Z</time>
      </trkpt>
      <trkpt lat="43.68067" lon="5.98091">
        <ele>574</ele>
        <time>2015-10-24T08:40:02.536Z</time>
      </trkpt>
      <trkpt lat="43.68065" lon="5.98083">
        <ele>574</ele>
        <time>2015-10-24T08:40:03.576Z</time>
      </trkpt>
      <trkpt lat="43.68064" lon="5.98075">
        <ele>574</ele>
        <time>2015-10-24T08:40:04.527Z</time>
      </trkpt>
      <trkpt lat="43.68063" lon="5.98066">
        <ele>573</ele>
        <time>2015-10-24T08:40:05.542Z</time>
      </trkpt>
      <trkpt lat="43.68064" lon="5.98059">
        <ele>573</ele>
        <time>2015-10-24T08:40:06.527Z</time>
      </trkpt>
      <trkpt lat="43.68066" lon="5.98051">
        <ele>573</ele>
        <time>2015-10-24T08:40:07.771Z</time>
      </trkpt>
      <trkpt lat="43.68068" lon="5.98043">
        <ele>573</ele>
        <time>2015-10-24T08:40:08.528Z</time>
      </trkpt>
      <trkpt lat="43.6807" lon="5.98037">
        <ele>573</ele>
        <time>2015-10-24T08:40:09.550Z</time>
      </trkpt>
      <trkpt lat="43.68073" lon="5.98031">
        <ele>572</ele>
        <time>2015-10-24T08:40:10.538Z</time>
      </trkpt>
      <trkpt lat="43.68075" lon="5.98025">
        <ele>573</ele>
        <time>2015-10-24T08:40:11.556Z</time>
      </trkpt>
      <trkpt lat="43.68078" lon="5.98019">
        <ele>573</ele>
        <time>2015-10-24T08:40:12.534Z</time>
      </trkpt>
      <trkpt lat="43.68081" lon="5.98012">
        <ele>573</ele>
        <time>2015-10-24T08:40:13.548Z</time>
      </trkpt>
      <trkpt lat="43.68083" lon="5.98007">
        <ele>573</ele>
        <time>2015-10-24T08:40:14.554Z</time>
      </trkpt>
      <trkpt lat="43.68086" lon="5.98001">
        <ele>573</ele>
        <time>2015-10-24T08:40:15.549Z</time>
      </trkpt>
      <trkpt lat="43.68088" lon="5.97996">
        <ele>573</ele>
        <time>2015-10-24T08:40:16.534Z</time>
      </trkpt>
      <trkpt lat="43.68093" lon="5.97986">
        <ele>574</ele>
        <time>2015-10-24T08:40:18.549Z</time>
      </trkpt>
      <trkpt lat="43.68095" lon="5.97982">
        <ele>574</ele>
        <time>2015-10-24T08:40:19.516Z</time>
      </trkpt>
      <trkpt lat="43.68097" lon="5.97975">
        <ele>574</ele>
        <time>2015-10-24T08:40:20.760Z</time>
      </trkpt>
      <trkpt lat="43.681" lon="5.97969">
        <ele>574</ele>
        <time>2015-10-24T08:40:21.525Z</time>
      </trkpt>
      <trkpt lat="43.68103" lon="5.97965">
        <ele>574</ele>
        <time>2015-10-24T08:40:22.549Z</time>
      </trkpt>
      <trkpt lat="43.68106" lon="5.97959">
        <ele>574</ele>
        <time>2015-10-24T08:40:23.526Z</time>
      </trkpt>
      <trkpt lat="43.68111" lon="5.9795">
        <ele>574</ele>
        <time>2015-10-24T08:40:25.575Z</time>
      </trkpt>
      <trkpt lat="43.68114" lon="5.97944">
        <ele>573</ele>
        <time>2015-10-24T08:40:26.526Z</time>
      </trkpt>
      <trkpt lat="43.6812" lon="5.97935">
        <ele>572</ele>
        <time>2015-10-24T08:40:28.549Z</time>
      </trkpt>
      <trkpt lat="43.68123" lon="5.97929">
        <ele>572</ele>
        <time>2015-10-24T08:40:29.524Z</time>
      </trkpt>
      <trkpt lat="43.68128" lon="5.97919">
        <ele>573</ele>
        <time>2015-10-24T08:40:31.549Z</time>
      </trkpt>
      <trkpt lat="43.6813" lon="5.97914">
        <ele>573</ele>
        <time>2015-10-24T08:40:32.526Z</time>
      </trkpt>
      <trkpt lat="43.68135" lon="5.97905">
        <ele>572</ele>
        <time>2015-10-24T08:40:34.550Z</time>
      </trkpt>
      <trkpt lat="43.68137" lon="5.97901">
        <ele>572</ele>
        <time>2015-10-24T08:40:35.527Z</time>
      </trkpt>
      <trkpt lat="43.68142" lon="5.97891">
        <ele>572</ele>
        <time>2015-10-24T08:40:37.549Z</time>
      </trkpt>
      <trkpt lat="43.68145" lon="5.97887">
        <ele>572</ele>
        <time>2015-10-24T08:40:38.526Z</time>
      </trkpt>
      <trkpt lat="43.68148" lon="5.97883">
        <ele>571</ele>
        <time>2015-10-24T08:40:39.550Z</time>
      </trkpt>
      <trkpt lat="43.68151" lon="5.97878">
        <ele>571</ele>
        <time>2015-10-24T08:40:40.526Z</time>
      </trkpt>
      <trkpt lat="43.68157" lon="5.97869">
        <ele>571</ele>
        <time>2015-10-24T08:40:42.549Z</time>
      </trkpt>
      <trkpt lat="43.68159" lon="5.97864">
        <ele>571</ele>
        <time>2015-10-24T08:40:43.526Z</time>
      </trkpt>
      <trkpt lat="43.68164" lon="5.97855">
        <ele>572</ele>
        <time>2015-10-24T08:40:45.550Z</time>
      </trkpt>
      <trkpt lat="43.68165" lon="5.97849">
        <ele>572</ele>
        <time>2015-10-24T08:40:46.528Z</time>
      </trkpt>
      <trkpt lat="43.68168" lon="5.97843">
        <ele>572</ele>
        <time>2015-10-24T08:40:47.577Z</time>
      </trkpt>
      <trkpt lat="43.6817" lon="5.97838">
        <ele>572</ele>
        <time>2015-10-24T08:40:48.526Z</time>
      </trkpt>
      <trkpt lat="43.68172" lon="5.97832">
        <ele>571</ele>
        <time>2015-10-24T08:40:49.550Z</time>
      </trkpt>
      <trkpt lat="43.68174" lon="5.97826">
        <ele>571</ele>
        <time>2015-10-24T08:40:50.526Z</time>
      </trkpt>
      <trkpt lat="43.68177" lon="5.97821">
        <ele>571</ele>
        <time>2015-10-24T08:40:51.549Z</time>
      </trkpt>
      <trkpt lat="43.68179" lon="5.97815">
        <ele>571</ele>
        <time>2015-10-24T08:40:52.523Z</time>
      </trkpt>
      <trkpt lat="43.68182" lon="5.97808">
        <ele>571</ele>
        <time>2015-10-24T08:40:53.537Z</time>
      </trkpt>
      <trkpt lat="43.68184" lon="5.97804">
        <ele>571</ele>
        <time>2015-10-24T08:40:54.534Z</time>
      </trkpt>
      <trkpt lat="43.68187" lon="5.97798">
        <ele>571</ele>
        <time>2015-10-24T08:40:55.557Z</time>
      </trkpt>
      <trkpt lat="43.68189" lon="5.97792">
        <ele>571</ele>
        <time>2015-10-24T08:40:56.526Z</time>
      </trkpt>
      <trkpt lat="43.68191" lon="5.97787">
        <ele>571</ele>
        <time>2015-10-24T08:40:57.548Z</time>
      </trkpt>
      <trkpt lat="43.68193" lon="5.9778">
        <ele>570</ele>
        <time>2015-10-24T08:40:58.525Z</time>
      </trkpt>
      <trkpt lat="43.68196" lon="5.97773">
        <ele>570</ele>
        <time>2015-10-24T08:40:59.549Z</time>
      </trkpt>
      <trkpt lat="43.68198" lon="5.97767">
        <ele>570</ele>
        <time>2015-10-24T08:41:00.525Z</time>
      </trkpt>
      <trkpt lat="43.68201" lon="5.97762">
        <ele>569</ele>
        <time>2015-10-24T08:41:01.559Z</time>
      </trkpt>
      <trkpt lat="43.68203" lon="5.97757">
        <ele>569</ele>
        <time>2015-10-24T08:41:02.525Z</time>
      </trkpt>
      <trkpt lat="43.68207" lon="5.97751">
        <ele>569</ele>
        <time>2015-10-24T08:41:03.575Z</time>
      </trkpt>
      <trkpt lat="43.68209" lon="5.97745">
        <ele>569</ele>
        <time>2015-10-24T08:41:04.536Z</time>
      </trkpt>
      <trkpt lat="43.68211" lon="5.9774">
        <ele>569</ele>
        <time>2015-10-24T08:41:05.557Z</time>
      </trkpt>
      <trkpt lat="43.68214" lon="5.97735">
        <ele>569</ele>
        <time>2015-10-24T08:41:06.526Z</time>
      </trkpt>
      <trkpt lat="43.68219" lon="5.97725">
        <ele>569</ele>
        <time>2015-10-24T08:41:08.549Z</time>
      </trkpt>
      <trkpt lat="43.68221" lon="5.97721">
        <ele>569</ele>
        <time>2015-10-24T08:41:09.526Z</time>
      </trkpt>
      <trkpt lat="43.68226" lon="5.97712">
        <ele>569</ele>
        <time>2015-10-24T08:41:11.760Z</time>
      </trkpt>
      <trkpt lat="43.68228" lon="5.97707">
        <ele>570</ele>
        <time>2015-10-24T08:41:12.527Z</time>
      </trkpt>
      <trkpt lat="43.68233" lon="5.97698">
        <ele>570</ele>
        <time>2015-10-24T08:41:14.576Z</time>
      </trkpt>
      <trkpt lat="43.68235" lon="5.97694">
        <ele>570</ele>
        <time>2015-10-24T08:41:15.525Z</time>
      </trkpt>
      <trkpt lat="43.68238" lon="5.97684">
        <ele>570</ele>
        <time>2015-10-24T08:41:17.561Z</time>
      </trkpt>
      <trkpt lat="43.68238" lon="5.97679">
        <ele>569</ele>
        <time>2015-10-24T08:41:18.526Z</time>
      </trkpt>
      <trkpt lat="43.68239" lon="5.97667">
        <ele>569</ele>
        <time>2015-10-24T08:41:20.543Z</time>
      </trkpt>
      <trkpt lat="43.68238" lon="5.97662">
        <ele>569</ele>
        <time>2015-10-24T08:41:21.526Z</time>
      </trkpt>
      <trkpt lat="43.68235" lon="5.9765">
        <ele>569</ele>
        <time>2015-10-24T08:41:23.612Z</time>
      </trkpt>
      <trkpt lat="43.6823" lon="5.97645">
        <ele>569</ele>
        <time>2015-10-24T08:41:24.526Z</time>
      </trkpt>
      <trkpt lat="43.68227" lon="5.97639">
        <ele>568</ele>
        <time>2015-10-24T08:41:25.586Z</time>
      </trkpt>
      <trkpt lat="43.68225" lon="5.97634">
        <ele>568</ele>
        <time>2015-10-24T08:41:26.526Z</time>
      </trkpt>
      <trkpt lat="43.68222" lon="5.97629">
        <ele>568</ele>
        <time>2015-10-24T08:41:27.550Z</time>
      </trkpt>
      <trkpt lat="43.68219" lon="5.97623">
        <ele>569</ele>
        <time>2015-10-24T08:41:28.527Z</time>
      </trkpt>
      <trkpt lat="43.68216" lon="5.97618">
        <ele>568</ele>
        <time>2015-10-24T08:41:29.550Z</time>
      </trkpt>
      <trkpt lat="43.68213" lon="5.97613">
        <ele>568</ele>
        <time>2015-10-24T08:41:30.534Z</time>
      </trkpt>
      <trkpt lat="43.6821" lon="5.97607">
        <ele>568</ele>
        <time>2015-10-24T08:41:31.550Z</time>
      </trkpt>
      <trkpt lat="43.68208" lon="5.97603">
        <ele>568</ele>
        <time>2015-10-24T08:41:32.538Z</time>
      </trkpt>
      <trkpt lat="43.68203" lon="5.97593">
        <ele>567</ele>
        <time>2015-10-24T08:41:34.551Z</time>
      </trkpt>
      <trkpt lat="43.682" lon="5.97587">
        <ele>567</ele>
        <time>2015-10-24T08:41:35.526Z</time>
      </trkpt>
      <trkpt lat="43.68197" lon="5.97582">
        <ele>568</ele>
        <time>2015-10-24T08:41:36.798Z</time>
      </trkpt>
      <trkpt lat="43.68195" lon="5.97576">
        <ele>568</ele>
        <time>2015-10-24T08:41:37.525Z</time>
      </trkpt>
      <trkpt lat="43.68192" lon="5.97571">
        <ele>568</ele>
        <time>2015-10-24T08:41:38.549Z</time>
      </trkpt>
      <trkpt lat="43.68189" lon="5.97566">
        <ele>568</ele>
        <time>2015-10-24T08:41:39.525Z</time>
      </trkpt>
      <trkpt lat="43.68186" lon="5.97561">
        <ele>568</ele>
        <time>2015-10-24T08:41:40.549Z</time>
      </trkpt>
      <trkpt lat="43.68183" lon="5.97555">
        <ele>568</ele>
        <time>2015-10-24T08:41:41.526Z</time>
      </trkpt>
      <trkpt lat="43.68177" lon="5.97547">
        <ele>568</ele>
        <time>2015-10-24T08:41:43.549Z</time>
      </trkpt>
      <trkpt lat="43.68174" lon="5.97542">
        <ele>567</ele>
        <time>2015-10-24T08:41:44.526Z</time>
      </trkpt>
      <trkpt lat="43.68172" lon="5.97537">
        <ele>567</ele>
        <time>2015-10-24T08:41:45.549Z</time>
      </trkpt>
      <trkpt lat="43.68169" lon="5.97531">
        <ele>567</ele>
        <time>2015-10-24T08:41:46.526Z</time>
      </trkpt>
      <trkpt lat="43.68165" lon="5.97521">
        <ele>567</ele>
        <time>2015-10-24T08:41:48.549Z</time>
      </trkpt>
      <trkpt lat="43.68162" lon="5.97515">
        <ele>567</ele>
        <time>2015-10-24T08:41:49.526Z</time>
      </trkpt>
      <trkpt lat="43.68157" lon="5.97505">
        <ele>568</ele>
        <time>2015-10-24T08:41:51.550Z</time>
      </trkpt>
      <trkpt lat="43.68154" lon="5.97499">
        <ele>568</ele>
        <time>2015-10-24T08:41:52.538Z</time>
      </trkpt>
      <trkpt lat="43.68152" lon="5.97494">
        <ele>568</ele>
        <time>2015-10-24T08:41:53.548Z</time>
      </trkpt>
      <trkpt lat="43.68149" lon="5.97489">
        <ele>568</ele>
        <time>2015-10-24T08:41:54.525Z</time>
      </trkpt>
      <trkpt lat="43.68144" lon="5.97478">
        <ele>568</ele>
        <time>2015-10-24T08:41:56.549Z</time>
      </trkpt>
      <trkpt lat="43.68141" lon="5.97473">
        <ele>568</ele>
        <time>2015-10-24T08:41:57.525Z</time>
      </trkpt>
      <trkpt lat="43.68139" lon="5.97468">
        <ele>568</ele>
        <time>2015-10-24T08:41:58.548Z</time>
      </trkpt>
      <trkpt lat="43.68136" lon="5.97462">
        <ele>568</ele>
        <time>2015-10-24T08:41:59.524Z</time>
      </trkpt>
      <trkpt lat="43.68133" lon="5.97457">
        <ele>568</ele>
        <time>2015-10-24T08:42:00.551Z</time>
      </trkpt>
      <trkpt lat="43.6813" lon="5.97452">
        <ele>568</ele>
        <time>2015-10-24T08:42:01.538Z</time>
      </trkpt>
      <trkpt lat="43.68127" lon="5.97446">
        <ele>568</ele>
        <time>2015-10-24T08:42:02.549Z</time>
      </trkpt>
      <trkpt lat="43.68124" lon="5.97441">
        <ele>568</ele>
        <time>2015-10-24T08:42:03.552Z</time>
      </trkpt>
      <trkpt lat="43.68121" lon="5.97436">
        <ele>567</ele>
        <time>2015-10-24T08:42:04.548Z</time>
      </trkpt>
      <trkpt lat="43.68118" lon="5.97431">
        <ele>567</ele>
        <time>2015-10-24T08:42:05.525Z</time>
      </trkpt>
      <trkpt lat="43.68116" lon="5.97426">
        <ele>567</ele>
        <time>2015-10-24T08:42:06.584Z</time>
      </trkpt>
      <trkpt lat="43.68113" lon="5.9742">
        <ele>567</ele>
        <time>2015-10-24T08:42:07.527Z</time>
      </trkpt>
      <trkpt lat="43.68109" lon="5.97411">
        <ele>567</ele>
        <time>2015-10-24T08:42:09.549Z</time>
      </trkpt>
      <trkpt lat="43.68107" lon="5.97406">
        <ele>567</ele>
        <time>2015-10-24T08:42:10.526Z</time>
      </trkpt>
      <trkpt lat="43.68103" lon="5.97398">
        <ele>568</ele>
        <time>2015-10-24T08:42:12.547Z</time>
      </trkpt>
      <trkpt lat="43.681" lon="5.97393">
        <ele>568</ele>
        <time>2015-10-24T08:42:13.526Z</time>
      </trkpt>
      <trkpt lat="43.68096" lon="5.97385">
        <ele>569</ele>
        <time>2015-10-24T08:42:15.549Z</time>
      </trkpt>
      <trkpt lat="43.68094" lon="5.97381">
        <ele>569</ele>
        <time>2015-10-24T08:42:16.526Z</time>
      </trkpt>
      <trkpt lat="43.68088" lon="5.97373">
        <ele>568</ele>
        <time>2015-10-24T08:42:18.550Z</time>
      </trkpt>
      <trkpt lat="43.68086" lon="5.9737">
        <ele>569</ele>
        <time>2015-10-24T08:42:19.563Z</time>
      </trkpt>
      <trkpt lat="43.68081" lon="5.97362">
        <ele>569</ele>
        <time>2015-10-24T08:42:21.549Z</time>
      </trkpt>
      <trkpt lat="43.68079" lon="5.97358">
        <ele>569</ele>
        <time>2015-10-24T08:42:22.526Z</time>
      </trkpt>
      <trkpt lat="43.68075" lon="5.97349">
        <ele>569</ele>
        <time>2015-10-24T08:42:24.549Z</time>
      </trkpt>
      <trkpt lat="43.68073" lon="5.97346">
        <ele>569</ele>
        <time>2015-10-24T08:42:25.526Z</time>
      </trkpt>
      <trkpt lat="43.68069" lon="5.97337">
        <ele>569</ele>
        <time>2015-10-24T08:42:27.779Z</time>
      </trkpt>
      <trkpt lat="43.68068" lon="5.97334">
        <ele>569</ele>
        <time>2015-10-24T08:42:28.525Z</time>
      </trkpt>
      <trkpt lat="43.68063" lon="5.97323">
        <ele>570</ele>
        <time>2015-10-24T08:42:31.548Z</time>
      </trkpt>
      <trkpt lat="43.68061" lon="5.9732">
        <ele>570</ele>
        <time>2015-10-24T08:42:32.527Z</time>
      </trkpt>
      <trkpt lat="43.68057" lon="5.9731">
        <ele>570</ele>
        <time>2015-10-24T08:42:35.550Z</time>
      </trkpt>
      <trkpt lat="43.68056" lon="5.97306">
        <ele>570</ele>
        <time>2015-10-24T08:42:36.528Z</time>
      </trkpt>
      <trkpt lat="43.68053" lon="5.97298">
        <ele>570</ele>
        <time>2015-10-24T08:42:38.562Z</time>
      </trkpt>
      <trkpt lat="43.68052" lon="5.97293">
        <ele>570</ele>
        <time>2015-10-24T08:42:39.525Z</time>
      </trkpt>
      <trkpt lat="43.68048" lon="5.97285">
        <ele>569</ele>
        <time>2015-10-24T08:42:41.800Z</time>
      </trkpt>
      <trkpt lat="43.68045" lon="5.97281">
        <ele>569</ele>
        <time>2015-10-24T08:42:42.537Z</time>
      </trkpt>
      <trkpt lat="43.68041" lon="5.97273">
        <ele>569</ele>
        <time>2015-10-24T08:42:44.549Z</time>
      </trkpt>
      <trkpt lat="43.68039" lon="5.97269">
        <ele>569</ele>
        <time>2015-10-24T08:42:45.526Z</time>
      </trkpt>
      <trkpt lat="43.68034" lon="5.97261">
        <ele>569</ele>
        <time>2015-10-24T08:42:47.550Z</time>
      </trkpt>
      <trkpt lat="43.68032" lon="5.97256">
        <ele>569</ele>
        <time>2015-10-24T08:42:48.526Z</time>
      </trkpt>
      <trkpt lat="43.68028" lon="5.97248">
        <ele>569</ele>
        <time>2015-10-24T08:42:50.550Z</time>
      </trkpt>
      <trkpt lat="43.68026" lon="5.97244">
        <ele>569</ele>
        <time>2015-10-24T08:42:51.525Z</time>
      </trkpt>
      <trkpt lat="43.68022" lon="5.97236">
        <ele>569</ele>
        <time>2015-10-24T08:42:53.547Z</time>
      </trkpt>
      <trkpt lat="43.6802" lon="5.97232">
        <ele>570</ele>
        <time>2015-10-24T08:42:54.526Z</time>
      </trkpt>
      <trkpt lat="43.68016" lon="5.97224">
        <ele>570</ele>
        <time>2015-10-24T08:42:56.550Z</time>
      </trkpt>
      <trkpt lat="43.68014" lon="5.97221">
        <ele>570</ele>
        <time>2015-10-24T08:42:57.526Z</time>
      </trkpt>
      <trkpt lat="43.68009" lon="5.97213">
        <ele>570</ele>
        <time>2015-10-24T08:42:59.550Z</time>
      </trkpt>
      <trkpt lat="43.68007" lon="5.97209">
        <ele>570</ele>
        <time>2015-10-24T08:43:00.525Z</time>
      </trkpt>
      <trkpt lat="43.68004" lon="5.97201">
        <ele>571</ele>
        <time>2015-10-24T08:43:02.549Z</time>
      </trkpt>
      <trkpt lat="43.68001" lon="5.97197">
        <ele>571</ele>
        <time>2015-10-24T08:43:03.552Z</time>
      </trkpt>
      <trkpt lat="43.67997" lon="5.97192">
        <ele>571</ele>
        <time>2015-10-24T08:43:05.549Z</time>
      </trkpt>
      <trkpt lat="43.67995" lon="5.97188">
        <ele>571</ele>
        <time>2015-10-24T08:43:06.527Z</time>
      </trkpt>
      <trkpt lat="43.67993" lon="5.97177">
        <ele>571</ele>
        <time>2015-10-24T08:43:09.550Z</time>
      </trkpt>
      <trkpt lat="43.67994" lon="5.97174">
        <ele>572</ele>
        <time>2015-10-24T08:43:10.526Z</time>
      </trkpt>
      <trkpt lat="43.67998" lon="5.97167">
        <ele>571</ele>
        <time>2015-10-24T08:43:12.548Z</time>
      </trkpt>
      <trkpt lat="43.68001" lon="5.97165">
        <ele>572</ele>
        <time>2015-10-24T08:43:13.525Z</time>
      </trkpt>
      <trkpt lat="43.68007" lon="5.97156">
        <ele>572</ele>
        <time>2015-10-24T08:43:16.550Z</time>
      </trkpt>
      <trkpt lat="43.68009" lon="5.97153">
        <ele>572</ele>
        <time>2015-10-24T08:43:17.526Z</time>
      </trkpt>
      <trkpt lat="43.68015" lon="5.97145">
        <ele>573</ele>
        <time>2015-10-24T08:43:20.548Z</time>
      </trkpt>
      <trkpt lat="43.68018" lon="5.97142">
        <ele>573</ele>
        <time>2015-10-24T08:43:21.527Z</time>
      </trkpt>
      <trkpt lat="43.68022" lon="5.97136">
        <ele>573</ele>
        <time>2015-10-24T08:43:23.549Z</time>
      </trkpt>
      <trkpt lat="43.68024" lon="5.97133">
        <ele>574</ele>
        <time>2015-10-24T08:43:24.538Z</time>
      </trkpt>
      <trkpt lat="43.68029" lon="5.97127">
        <ele>574</ele>
        <time>2015-10-24T08:43:26.550Z</time>
      </trkpt>
      <trkpt lat="43.68032" lon="5.97124">
        <ele>574</ele>
        <time>2015-10-24T08:43:27.537Z</time>
      </trkpt>
      <trkpt lat="43.68036" lon="5.97118">
        <ele>574</ele>
        <time>2015-10-24T08:43:29.597Z</time>
      </trkpt>
      <trkpt lat="43.68038" lon="5.97114">
        <ele>574</ele>
        <time>2015-10-24T08:43:30.526Z</time>
      </trkpt>
      <trkpt lat="43.68043" lon="5.97107">
        <ele>575</ele>
        <time>2015-10-24T08:43:32.549Z</time>
      </trkpt>
      <trkpt lat="43.68045" lon="5.97104">
        <ele>575</ele>
        <time>2015-10-24T08:43:33.525Z</time>
      </trkpt>
      <trkpt lat="43.68049" lon="5.97096">
        <ele>575</ele>
        <time>2015-10-24T08:43:35.549Z</time>
      </trkpt>
      <trkpt lat="43.68051" lon="5.97092">
        <ele>575</ele>
        <time>2015-10-24T08:43:36.531Z</time>
      </trkpt>
      <trkpt lat="43.68054" lon="5.97085">
        <ele>575</ele>
        <time>2015-10-24T08:43:38.549Z</time>
      </trkpt>
      <trkpt lat="43.68056" lon="5.97082">
        <ele>575</ele>
        <time>2015-10-24T08:43:39.536Z</time>
      </trkpt>
      <trkpt lat="43.6806" lon="5.97071">
        <ele>575</ele>
        <time>2015-10-24T08:43:42.560Z</time>
      </trkpt>
      <trkpt lat="43.68062" lon="5.97068">
        <ele>575</ele>
        <time>2015-10-24T08:43:43.525Z</time>
      </trkpt>
      <trkpt lat="43.68066" lon="5.97058">
        <ele>576</ele>
        <time>2015-10-24T08:43:46.549Z</time>
      </trkpt>
      <trkpt lat="43.68068" lon="5.97054">
        <ele>576</ele>
        <time>2015-10-24T08:43:47.563Z</time>
      </trkpt>
      <trkpt lat="43.68073" lon="5.97045">
        <ele>576</ele>
        <time>2015-10-24T08:43:50.550Z</time>
      </trkpt>
      <trkpt lat="43.68075" lon="5.97041">
        <ele>577</ele>
        <time>2015-10-24T08:43:51.526Z</time>
      </trkpt>
      <trkpt lat="43.6808" lon="5.97031">
        <ele>577</ele>
        <time>2015-10-24T08:43:54.551Z</time>
      </trkpt>
      <trkpt lat="43.68081" lon="5.97028">
        <ele>577</ele>
        <time>2015-10-24T08:43:55.526Z</time>
      </trkpt>
      <trkpt lat="43.68086" lon="5.97019">
        <ele>576</ele>
        <time>2015-10-24T08:43:58.549Z</time>
      </trkpt>
      <trkpt lat="43.68088" lon="5.97015">
        <ele>576</ele>
        <time>2015-10-24T08:43:59.527Z</time>
      </trkpt>
      <trkpt lat="43.68094" lon="5.97006">
        <ele>576</ele>
        <time>2015-10-24T08:44:02.550Z</time>
      </trkpt>
      <trkpt lat="43.68096" lon="5.97004">
        <ele>576</ele>
        <time>2015-10-24T08:44:03.526Z</time>
      </trkpt>
      <trkpt lat="43.68103" lon="5.96996">
        <ele>577</ele>
        <time>2015-10-24T08:44:06.549Z</time>
      </trkpt>
      <trkpt lat="43.68105" lon="5.96993">
        <ele>577</ele>
        <time>2015-10-24T08:44:07.526Z</time>
      </trkpt>
      <trkpt lat="43.68111" lon="5.96985">
        <ele>577</ele>
        <time>2015-10-24T08:44:10.549Z</time>
      </trkpt>
      <trkpt lat="43.68113" lon="5.96982">
        <ele>577</ele>
        <time>2015-10-24T08:44:11.526Z</time>
      </trkpt>
      <trkpt lat="43.68119" lon="5.96974">
        <ele>578</ele>
        <time>2015-10-24T08:44:14.554Z</time>
      </trkpt>
      <trkpt lat="43.68121" lon="5.96971">
        <ele>577</ele>
        <time>2015-10-24T08:44:15.527Z</time>
      </trkpt>
      <trkpt lat="43.68128" lon="5.96963">
        <ele>578</ele>
        <time>2015-10-24T08:44:18.561Z</time>
      </trkpt>
      <trkpt lat="43.6813" lon="5.96961">
        <ele>578</ele>
        <time>2015-10-24T08:44:19.554Z</time>
      </trkpt>
      <trkpt lat="43.68137" lon="5.96955">
        <ele>578</ele>
        <time>2015-10-24T08:44:22.550Z</time>
      </trkpt>
      <trkpt lat="43.6814" lon="5.96953">
        <ele>578</ele>
        <time>2015-10-24T08:44:23.526Z</time>
      </trkpt>
      <trkpt lat="43.68148" lon="5.96948">
        <ele>579</ele>
        <time>2015-10-24T08:44:26.551Z</time>
      </trkpt>
      <trkpt lat="43.6815" lon="5.96946">
        <ele>579</ele>
        <time>2015-10-24T08:44:27.526Z</time>
      </trkpt>
      <trkpt lat="43.68157" lon="5.96939">
        <ele>579</ele>
        <time>2015-10-24T08:44:30.797Z</time>
      </trkpt>
      <trkpt lat="43.68159" lon="5.96936">
        <ele>579</ele>
        <time>2015-10-24T08:44:31.526Z</time>
      </trkpt>
      <trkpt lat="43.68165" lon="5.96928">
        <ele>579</ele>
        <time>2015-10-24T08:44:34.550Z</time>
      </trkpt>
      <trkpt lat="43.68167" lon="5.96926">
        <ele>580</ele>
        <time>2015-10-24T08:44:35.527Z</time>
      </trkpt>
      <trkpt lat="43.68172" lon="5.96919">
        <ele>580</ele>
        <time>2015-10-24T08:44:37.549Z</time>
      </trkpt>
      <trkpt lat="43.68174" lon="5.96916">
        <ele>580</ele>
        <time>2015-10-24T08:44:38.527Z</time>
      </trkpt>
      <trkpt lat="43.68178" lon="5.96909">
        <ele>580</ele>
        <time>2015-10-24T08:44:40.549Z</time>
      </trkpt>
      <trkpt lat="43.6818" lon="5.96906">
        <ele>580</ele>
        <time>2015-10-24T08:44:41.552Z</time>
      </trkpt>
      <trkpt lat="43.68184" lon="5.96895">
        <ele>580</ele>
        <time>2015-10-24T08:44:44.549Z</time>
      </trkpt>
      <trkpt lat="43.68185" lon="5.96892">
        <ele>580</ele>
        <time>2015-10-24T08:44:45.526Z</time>
      </trkpt>
      <trkpt lat="43.6819" lon="5.96883">
        <ele>581</ele>
        <time>2015-10-24T08:44:48.549Z</time>
      </trkpt>
      <trkpt lat="43.68192" lon="5.9688">
        <ele>581</ele>
        <time>2015-10-24T08:44:49.526Z</time>
      </trkpt>
      <trkpt lat="43.68198" lon="5.96874">
        <ele>581</ele>
        <time>2015-10-24T08:44:51.549Z</time>
      </trkpt>
      <trkpt lat="43.68201" lon="5.96872">
        <ele>581</ele>
        <time>2015-10-24T08:44:52.553Z</time>
      </trkpt>
      <trkpt lat="43.68207" lon="5.96866">
        <ele>582</ele>
        <time>2015-10-24T08:44:54.549Z</time>
      </trkpt>
      <trkpt lat="43.6821" lon="5.96863">
        <ele>581</ele>
        <time>2015-10-24T08:44:55.526Z</time>
      </trkpt>
      <trkpt lat="43.68216" lon="5.9686">
        <ele>581</ele>
        <time>2015-10-24T08:44:57.551Z</time>
      </trkpt>
      <trkpt lat="43.68219" lon="5.96858">
        <ele>581</ele>
        <time>2015-10-24T08:44:58.525Z</time>
      </trkpt>
      <trkpt lat="43.68225" lon="5.96855">
        <ele>582</ele>
        <time>2015-10-24T08:45:00.552Z</time>
      </trkpt>
      <trkpt lat="43.68229" lon="5.96852">
        <ele>581</ele>
        <time>2015-10-24T08:45:01.526Z</time>
      </trkpt>
      <trkpt lat="43.68235" lon="5.96846">
        <ele>581</ele>
        <time>2015-10-24T08:45:03.581Z</time>
      </trkpt>
      <trkpt lat="43.68238" lon="5.96842">
        <ele>581</ele>
        <time>2015-10-24T08:45:04.526Z</time>
      </trkpt>
      <trkpt lat="43.68245" lon="5.96835">
        <ele>581</ele>
        <time>2015-10-24T08:45:06.559Z</time>
      </trkpt>
      <trkpt lat="43.68248" lon="5.96832">
        <ele>580</ele>
        <time>2015-10-24T08:45:07.526Z</time>
      </trkpt>
      <trkpt lat="43.68254" lon="5.96825">
        <ele>580</ele>
        <time>2015-10-24T08:45:09.548Z</time>
      </trkpt>
      <trkpt lat="43.68257" lon="5.96821">
        <ele>580</ele>
        <time>2015-10-24T08:45:10.523Z</time>
      </trkpt>
      <trkpt lat="43.68264" lon="5.96814">
        <ele>580</ele>
        <time>2015-10-24T08:45:12.546Z</time>
      </trkpt>
      <trkpt lat="43.68267" lon="5.96812">
        <ele>580</ele>
        <time>2015-10-24T08:45:13.526Z</time>
      </trkpt>
      <trkpt lat="43.68274" lon="5.96806">
        <ele>581</ele>
        <time>2015-10-24T08:45:15.561Z</time>
      </trkpt>
      <trkpt lat="43.68277" lon="5.96803">
        <ele>581</ele>
        <time>2015-10-24T08:45:16.525Z</time>
      </trkpt>
      <trkpt lat="43.68283" lon="5.96798">
        <ele>582</ele>
        <time>2015-10-24T08:45:18.549Z</time>
      </trkpt>
      <trkpt lat="43.68287" lon="5.96795">
        <ele>582</ele>
        <time>2015-10-24T08:45:19.526Z</time>
      </trkpt>
      <trkpt lat="43.68293" lon="5.9679">
        <ele>582</ele>
        <time>2015-10-24T08:45:21.549Z</time>
      </trkpt>
      <trkpt lat="43.68297" lon="5.96787">
        <ele>582</ele>
        <time>2015-10-24T08:45:22.537Z</time>
      </trkpt>
      <trkpt lat="43.68304" lon="5.96781">
        <ele>582</ele>
        <time>2015-10-24T08:45:24.550Z</time>
      </trkpt>
      <trkpt lat="43.68307" lon="5.96778">
        <ele>583</ele>
        <time>2015-10-24T08:45:25.551Z</time>
      </trkpt>
      <trkpt lat="43.68312" lon="5.96773">
        <ele>583</ele>
        <time>2015-10-24T08:45:27.549Z</time>
      </trkpt>
      <trkpt lat="43.68315" lon="5.9677">
        <ele>583</ele>
        <time>2015-10-24T08:45:28.533Z</time>
      </trkpt>
      <trkpt lat="43.6832" lon="5.96764">
        <ele>582</ele>
        <time>2015-10-24T08:45:30.557Z</time>
      </trkpt>
      <trkpt lat="43.68322" lon="5.9676">
        <ele>581</ele>
        <time>2015-10-24T08:45:31.526Z</time>
      </trkpt>
      <trkpt lat="43.68324" lon="5.96756">
        <ele>581</ele>
        <time>2015-10-24T08:45:32.559Z</time>
      </trkpt>
      <trkpt lat="43.68327" lon="5.9675">
        <ele>581</ele>
        <time>2015-10-24T08:45:33.525Z</time>
      </trkpt>
      <trkpt lat="43.68333" lon="5.96744">
        <ele>579</ele>
        <time>2015-10-24T08:45:35.560Z</time>
      </trkpt>
      <trkpt lat="43.68336" lon="5.96744">
        <ele>578</ele>
        <time>2015-10-24T08:45:36.553Z</time>
      </trkpt>
      <trkpt lat="43.68344" lon="5.96742">
        <ele>576</ele>
        <time>2015-10-24T08:45:39.549Z</time>
      </trkpt>
      <trkpt lat="43.68347" lon="5.96739">
        <ele>577</ele>
        <time>2015-10-24T08:45:40.526Z</time>
      </trkpt>
      <trkpt lat="43.6835" lon="5.96732">
        <ele>576</ele>
        <time>2015-10-24T08:45:42.550Z</time>
      </trkpt>
      <trkpt lat="43.68353" lon="5.96728">
        <ele>576</ele>
        <time>2015-10-24T08:45:43.527Z</time>
      </trkpt>
      <trkpt lat="43.68359" lon="5.96724">
        <ele>577</ele>
        <time>2015-10-24T08:45:45.548Z</time>
      </trkpt>
      <trkpt lat="43.68363" lon="5.96721">
        <ele>577</ele>
        <time>2015-10-24T08:45:46.536Z</time>
      </trkpt>
      <trkpt lat="43.6837" lon="5.96716">
        <ele>577</ele>
        <time>2015-10-24T08:45:48.607Z</time>
      </trkpt>
      <trkpt lat="43.68374" lon="5.96713">
        <ele>577</ele>
        <time>2015-10-24T08:45:49.527Z</time>
      </trkpt>
      <trkpt lat="43.68381" lon="5.96708">
        <ele>577</ele>
        <time>2015-10-24T08:45:51.554Z</time>
      </trkpt>
      <trkpt lat="43.68385" lon="5.96705">
        <ele>577</ele>
        <time>2015-10-24T08:45:52.527Z</time>
      </trkpt>
      <trkpt lat="43.68392" lon="5.967">
        <ele>577</ele>
        <time>2015-10-24T08:45:55.549Z</time>
      </trkpt>
      <trkpt lat="43.68395" lon="5.96698">
        <ele>578</ele>
        <time>2015-10-24T08:45:56.527Z</time>
      </trkpt>
      <trkpt lat="43.684" lon="5.96695">
        <ele>577</ele>
        <time>2015-10-24T08:45:58.548Z</time>
      </trkpt>
      <trkpt lat="43.68403" lon="5.96693">
        <ele>577</ele>
        <time>2015-10-24T08:45:59.527Z</time>
      </trkpt>
      <trkpt lat="43.68409" lon="5.96689">
        <ele>576</ele>
        <time>2015-10-24T08:46:01.762Z</time>
      </trkpt>
      <trkpt lat="43.68412" lon="5.96686">
        <ele>575</ele>
        <time>2015-10-24T08:46:02.526Z</time>
      </trkpt>
      <trkpt lat="43.68418" lon="5.96682">
        <ele>577</ele>
        <time>2015-10-24T08:46:04.550Z</time>
      </trkpt>
      <trkpt lat="43.68421" lon="5.9668">
        <ele>576</ele>
        <time>2015-10-24T08:46:05.526Z</time>
      </trkpt>
      <trkpt lat="43.68427" lon="5.96675">
        <ele>576</ele>
        <time>2015-10-24T08:46:07.550Z</time>
      </trkpt>
      <trkpt lat="43.68429" lon="5.96673">
        <ele>576</ele>
        <time>2015-10-24T08:46:08.526Z</time>
      </trkpt>
      <trkpt lat="43.68435" lon="5.96668">
        <ele>577</ele>
        <time>2015-10-24T08:46:10.550Z</time>
      </trkpt>
      <trkpt lat="43.68437" lon="5.96666">
        <ele>578</ele>
        <time>2015-10-24T08:46:11.527Z</time>
      </trkpt>
      <trkpt lat="43.68443" lon="5.96661">
        <ele>577</ele>
        <time>2015-10-24T08:46:13.549Z</time>
      </trkpt>
      <trkpt lat="43.68445" lon="5.96658">
        <ele>577</ele>
        <time>2015-10-24T08:46:14.554Z</time>
      </trkpt>
      <trkpt lat="43.6845" lon="5.96652">
        <ele>577</ele>
        <time>2015-10-24T08:46:16.580Z</time>
      </trkpt>
      <trkpt lat="43.68452" lon="5.9665">
        <ele>577</ele>
        <time>2015-10-24T08:46:17.527Z</time>
      </trkpt>
      <trkpt lat="43.68458" lon="5.96645">
        <ele>578</ele>
        <time>2015-10-24T08:46:19.551Z</time>
      </trkpt>
      <trkpt lat="43.6846" lon="5.96643">
        <ele>578</ele>
        <time>2015-10-24T08:46:20.527Z</time>
      </trkpt>
      <trkpt lat="43.68467" lon="5.96635">
        <ele>579</ele>
        <time>2015-10-24T08:46:23.549Z</time>
      </trkpt>
      <trkpt lat="43.68469" lon="5.96633">
        <ele>579</ele>
        <time>2015-10-24T08:46:24.526Z</time>
      </trkpt>
      <trkpt lat="43.68475" lon="5.96624">
        <ele>580</ele>
        <time>2015-10-24T08:46:27.775Z</time>
      </trkpt>
      <trkpt lat="43.68476" lon="5.96621">
        <ele>580</ele>
        <time>2015-10-24T08:46:28.525Z</time>
      </trkpt>
      <trkpt lat="43.6848" lon="5.96615">
        <ele>580</ele>
        <time>2015-10-24T08:46:30.550Z</time>
      </trkpt>
      <trkpt lat="43.68482" lon="5.96611">
        <ele>579</ele>
        <time>2015-10-24T08:46:31.526Z</time>
      </trkpt>
      <trkpt lat="43.68486" lon="5.96605">
        <ele>580</ele>
        <time>2015-10-24T08:46:33.549Z</time>
      </trkpt>
      <trkpt lat="43.68489" lon="5.96602">
        <ele>579</ele>
        <time>2015-10-24T08:46:34.537Z</time>
      </trkpt>
      <trkpt lat="43.68493" lon="5.96596">
        <ele>579</ele>
        <time>2015-10-24T08:46:36.548Z</time>
      </trkpt>
      <trkpt lat="43.68496" lon="5.96593">
        <ele>579</ele>
        <time>2015-10-24T08:46:37.526Z</time>
      </trkpt>
      <trkpt lat="43.68502" lon="5.96583">
        <ele>580</ele>
        <time>2015-10-24T08:46:40.549Z</time>
      </trkpt>
      <trkpt lat="43.68503" lon="5.9658">
        <ele>580</ele>
        <time>2015-10-24T08:46:41.551Z</time>
      </trkpt>
      <trkpt lat="43.68506" lon="5.9657">
        <ele>581</ele>
        <time>2015-10-24T08:46:44.550Z</time>
      </trkpt>
      <trkpt lat="43.68507" lon="5.96566">
        <ele>581</ele>
        <time>2015-10-24T08:46:45.526Z</time>
      </trkpt>
      <trkpt lat="43.68503" lon="5.96556">
        <ele>582</ele>
        <time>2015-10-24T08:46:48.549Z</time>
      </trkpt>
      <trkpt lat="43.68501" lon="5.96554">
        <ele>582</ele>
        <time>2015-10-24T08:46:49.527Z</time>
      </trkpt>
      <trkpt lat="43.68495" lon="5.96548">
        <ele>581</ele>
        <time>2015-10-24T08:46:52.578Z</time>
      </trkpt>
      <trkpt lat="43.68493" lon="5.96546">
        <ele>581</ele>
        <time>2015-10-24T08:46:53.525Z</time>
      </trkpt>
      <trkpt lat="43.68487" lon="5.96542">
        <ele>582</ele>
        <time>2015-10-24T08:46:56.549Z</time>
      </trkpt>
      <trkpt lat="43.68485" lon="5.9654">
        <ele>582</ele>
        <time>2015-10-24T08:46:57.527Z</time>
      </trkpt>
      <trkpt lat="43.68479" lon="5.96534">
        <ele>583</ele>
        <time>2015-10-24T08:47:00.550Z</time>
      </trkpt>
      <trkpt lat="43.68478" lon="5.96532">
        <ele>583</ele>
        <time>2015-10-24T08:47:01.526Z</time>
      </trkpt>
      <trkpt lat="43.68472" lon="5.96526">
        <ele>584</ele>
        <time>2015-10-24T08:47:04.549Z</time>
      </trkpt>
      <trkpt lat="43.6847" lon="5.96524">
        <ele>584</ele>
        <time>2015-10-24T08:47:05.527Z</time>
      </trkpt>
      <trkpt lat="43.68465" lon="5.96518">
        <ele>584</ele>
        <time>2015-10-24T08:47:08.666Z</time>
      </trkpt>
      <trkpt lat="43.68463" lon="5.96515">
        <ele>584</ele>
        <time>2015-10-24T08:47:09.528Z</time>
      </trkpt>
      <trkpt lat="43.68457" lon="5.96506">
        <ele>585</ele>
        <time>2015-10-24T08:47:13.548Z</time>
      </trkpt>
      <trkpt lat="43.68455" lon="5.96504">
        <ele>585</ele>
        <time>2015-10-24T08:47:14.526Z</time>
      </trkpt>
      <trkpt lat="43.68449" lon="5.96496">
        <ele>585</ele>
        <time>2015-10-24T08:47:18.550Z</time>
      </trkpt>
      <trkpt lat="43.68447" lon="5.96493">
        <ele>585</ele>
        <time>2015-10-24T08:47:19.554Z</time>
      </trkpt>
      <trkpt lat="43.68443" lon="5.96486">
        <ele>586</ele>
        <time>2015-10-24T08:47:22.549Z</time>
      </trkpt>
      <trkpt lat="43.68441" lon="5.96484">
        <ele>586</ele>
        <time>2015-10-24T08:47:23.526Z</time>
      </trkpt>
      <trkpt lat="43.68435" lon="5.96478">
        <ele>587</ele>
        <time>2015-10-24T08:47:27.550Z</time>
      </trkpt>
      <trkpt lat="43.68433" lon="5.96477">
        <ele>587</ele>
        <time>2015-10-24T08:47:28.527Z</time>
      </trkpt>
      <trkpt lat="43.68425" lon="5.96472">
        <ele>589</ele>
        <time>2015-10-24T08:47:33.547Z</time>
      </trkpt>
      <trkpt lat="43.68423" lon="5.9647">
        <ele>589</ele>
        <time>2015-10-24T08:47:34.526Z</time>
      </trkpt>
      <trkpt lat="43.68418" lon="5.96462">
        <ele>590</ele>
        <time>2015-10-24T08:47:38.549Z</time>
      </trkpt>
      <trkpt lat="43.68416" lon="5.9646">
        <ele>590</ele>
        <time>2015-10-24T08:47:39.526Z</time>
      </trkpt>
      <trkpt lat="43.6841" lon="5.96453">
        <ele>592</ele>
        <time>2015-10-24T08:47:43.549Z</time>
      </trkpt>
      <trkpt lat="43.68409" lon="5.96451">
        <ele>592</ele>
        <time>2015-10-24T08:47:44.525Z</time>
      </trkpt>
      <trkpt lat="43.68403" lon="5.96444">
        <ele>593</ele>
        <time>2015-10-24T08:47:48.549Z</time>
      </trkpt>
      <trkpt lat="43.68402" lon="5.96442">
        <ele>593</ele>
        <time>2015-10-24T08:47:49.526Z</time>
      </trkpt>
      <trkpt lat="43.68397" lon="5.96435">
        <ele>594</ele>
        <time>2015-10-24T08:47:53.551Z</time>
      </trkpt>
      <trkpt lat="43.68395" lon="5.96433">
        <ele>594</ele>
        <time>2015-10-24T08:47:54.526Z</time>
      </trkpt>
      <trkpt lat="43.68389" lon="5.96426">
        <ele>595</ele>
        <time>2015-10-24T08:47:58.548Z</time>
      </trkpt>
      <trkpt lat="43.68387" lon="5.96424">
        <ele>595</ele>
        <time>2015-10-24T08:47:59.526Z</time>
      </trkpt>
      <trkpt lat="43.68381" lon="5.96417">
        <ele>596</ele>
        <time>2015-10-24T08:48:03.548Z</time>
      </trkpt>
      <trkpt lat="43.68379" lon="5.96415">
        <ele>596</ele>
        <time>2015-10-24T08:48:04.524Z</time>
      </trkpt>
      <trkpt lat="43.68372" lon="5.96407">
        <ele>597</ele>
        <time>2015-10-24T08:48:08.577Z</time>
      </trkpt>
      <trkpt lat="43.68371" lon="5.96405">
        <ele>598</ele>
        <time>2015-10-24T08:48:09.528Z</time>
      </trkpt>
      <trkpt lat="43.68365" lon="5.96398">
        <ele>598</ele>
        <time>2015-10-24T08:48:12.562Z</time>
      </trkpt>
      <trkpt lat="43.68364" lon="5.96396">
        <ele>599</ele>
        <time>2015-10-24T08:48:13.526Z</time>
      </trkpt>
      <trkpt lat="43.68357" lon="5.96389">
        <ele>599</ele>
        <time>2015-10-24T08:48:17.577Z</time>
      </trkpt>
      <trkpt lat="43.68355" lon="5.96387">
        <ele>600</ele>
        <time>2015-10-24T08:48:18.526Z</time>
      </trkpt>
      <trkpt lat="43.68347" lon="5.96383">
        <ele>601</ele>
        <time>2015-10-24T08:48:22.549Z</time>
      </trkpt>
      <trkpt lat="43.68345" lon="5.96381">
        <ele>601</ele>
        <time>2015-10-24T08:48:23.530Z</time>
      </trkpt>
      <trkpt lat="43.68339" lon="5.96373">
        <ele>602</ele>
        <time>2015-10-24T08:48:27.551Z</time>
      </trkpt>
      <trkpt lat="43.68337" lon="5.96372">
        <ele>601</ele>
        <time>2015-10-24T08:48:28.527Z</time>
      </trkpt>
      <trkpt lat="43.68329" lon="5.96368">
        <ele>602</ele>
        <time>2015-10-24T08:48:32.550Z</time>
      </trkpt>
      <trkpt lat="43.68327" lon="5.96367">
        <ele>603</ele>
        <time>2015-10-24T08:48:33.526Z</time>
      </trkpt>
      <trkpt lat="43.68319" lon="5.96365">
        <ele>602</ele>
        <time>2015-10-24T08:48:37.550Z</time>
      </trkpt>
      <trkpt lat="43.68317" lon="5.96364">
        <ele>602</ele>
        <time>2015-10-24T08:48:38.526Z</time>
      </trkpt>
      <trkpt lat="43.68313" lon="5.96355">
        <ele>603</ele>
        <time>2015-10-24T08:48:42.550Z</time>
      </trkpt>
      <trkpt lat="43.68313" lon="5.96352">
        <ele>604</ele>
        <time>2015-10-24T08:48:43.526Z</time>
      </trkpt>
      <trkpt lat="43.68311" lon="5.96342">
        <ele>605</ele>
        <time>2015-10-24T08:48:48.549Z</time>
      </trkpt>
      <trkpt lat="43.68311" lon="5.9634">
        <ele>605</ele>
        <time>2015-10-24T08:48:49.526Z</time>
      </trkpt>
      <trkpt lat="43.68303" lon="5.96334">
        <ele>607</ele>
        <time>2015-10-24T08:49:01.548Z</time>
      </trkpt>
      <trkpt lat="43.68303" lon="5.96333">
        <ele>607</ele>
        <time>2015-10-24T08:49:02.527Z</time>
      </trkpt>
      <trkpt lat="43.68298" lon="5.96324">
        <ele>607</ele>
        <time>2015-10-24T08:49:08.550Z</time>
      </trkpt>
      <trkpt lat="43.68298" lon="5.96323">
        <ele>608</ele>
        <time>2015-10-24T08:49:09.526Z</time>
      </trkpt>
      <trkpt lat="43.68292" lon="5.96315">
        <ele>609</ele>
        <time>2015-10-24T08:49:17.549Z</time>
      </trkpt>
      <trkpt lat="43.68291" lon="5.96314">
        <ele>609</ele>
        <time>2015-10-24T08:49:18.527Z</time>
      </trkpt>
      <trkpt lat="43.68286" lon="5.96306">
        <ele>611</ele>
        <time>2015-10-24T08:49:24.551Z</time>
      </trkpt>
      <trkpt lat="43.68285" lon="5.96305">
        <ele>611</ele>
        <time>2015-10-24T08:49:25.555Z</time>
      </trkpt>
      <trkpt lat="43.68278" lon="5.96297">
        <ele>613</ele>
        <time>2015-10-24T08:49:35.560Z</time>
      </trkpt>
      <trkpt lat="43.68277" lon="5.96295">
        <ele>613</ele>
        <time>2015-10-24T08:49:36.551Z</time>
      </trkpt>
      <trkpt lat="43.68271" lon="5.96289">
        <ele>614</ele>
        <time>2015-10-24T08:49:40.548Z</time>
      </trkpt>
      <trkpt lat="43.68269" lon="5.96287">
        <ele>614</ele>
        <time>2015-10-24T08:49:41.526Z</time>
      </trkpt>
      <trkpt lat="43.68263" lon="5.96281">
        <ele>614</ele>
        <time>2015-10-24T08:49:44.549Z</time>
      </trkpt>
      <trkpt lat="43.68261" lon="5.96279">
        <ele>615</ele>
        <time>2015-10-24T08:49:45.525Z</time>
      </trkpt>
      <trkpt lat="43.68254" lon="5.96274">
        <ele>615</ele>
        <time>2015-10-24T08:49:48.551Z</time>
      </trkpt>
      <trkpt lat="43.68252" lon="5.96273">
        <ele>615</ele>
        <time>2015-10-24T08:49:49.527Z</time>
      </trkpt>
      <trkpt lat="43.68244" lon="5.96268">
        <ele>616</ele>
        <time>2015-10-24T08:52:12.549Z</time>
      </trkpt>
      <trkpt lat="43.68242" lon="5.96267">
        <ele>616</ele>
        <time>2015-10-24T08:52:13.551Z</time>
      </trkpt>
      <trkpt lat="43.68235" lon="5.96262">
        <ele>614</ele>
        <time>2015-10-24T08:52:17.549Z</time>
      </trkpt>
      <trkpt lat="43.68232" lon="5.9626">
        <ele>614</ele>
        <time>2015-10-24T08:52:18.526Z</time>
      </trkpt>
      <trkpt lat="43.68227" lon="5.96256">
        <ele>614</ele>
        <time>2015-10-24T08:52:20.548Z</time>
      </trkpt>
      <trkpt lat="43.68223" lon="5.96254">
        <ele>613</ele>
        <time>2015-10-24T08:52:21.526Z</time>
      </trkpt>
      <trkpt lat="43.68219" lon="5.9625">
        <ele>613</ele>
        <time>2015-10-24T08:52:22.548Z</time>
      </trkpt>
      <trkpt lat="43.68214" lon="5.96244">
        <ele>612</ele>
        <time>2015-10-24T08:52:23.521Z</time>
      </trkpt>
      <trkpt lat="43.68209" lon="5.9624">
        <ele>612</ele>
        <time>2015-10-24T08:52:24.573Z</time>
      </trkpt>
      <trkpt lat="43.68203" lon="5.96237">
        <ele>611</ele>
        <time>2015-10-24T08:52:25.527Z</time>
      </trkpt>
      <trkpt lat="43.68197" lon="5.96233">
        <ele>611</ele>
        <time>2015-10-24T08:52:26.548Z</time>
      </trkpt>
      <trkpt lat="43.6819" lon="5.96228">
        <ele>610</ele>
        <time>2015-10-24T08:52:27.527Z</time>
      </trkpt>
      <trkpt lat="43.68183" lon="5.96223">
        <ele>609</ele>
        <time>2015-10-24T08:52:28.548Z</time>
      </trkpt>
      <trkpt lat="43.68176" lon="5.96216">
        <ele>607</ele>
        <time>2015-10-24T08:52:29.526Z</time>
      </trkpt>
      <trkpt lat="43.6817" lon="5.96209">
        <ele>608</ele>
        <time>2015-10-24T08:52:30.548Z</time>
      </trkpt>
      <trkpt lat="43.68163" lon="5.96202">
        <ele>606</ele>
        <time>2015-10-24T08:52:31.526Z</time>
      </trkpt>
      <trkpt lat="43.68156" lon="5.96197">
        <ele>604</ele>
        <time>2015-10-24T08:52:32.548Z</time>
      </trkpt>
      <trkpt lat="43.68149" lon="5.96195">
        <ele>604</ele>
        <time>2015-10-24T08:52:33.526Z</time>
      </trkpt>
      <trkpt lat="43.68141" lon="5.96194">
        <ele>602</ele>
        <time>2015-10-24T08:52:34.550Z</time>
      </trkpt>
      <trkpt lat="43.68133" lon="5.96195">
        <ele>602</ele>
        <time>2015-10-24T08:52:35.550Z</time>
      </trkpt>
      <trkpt lat="43.68124" lon="5.96196">
        <ele>601</ele>
        <time>2015-10-24T08:52:36.550Z</time>
      </trkpt>
      <trkpt lat="43.68114" lon="5.96198">
        <ele>600</ele>
        <time>2015-10-24T08:52:37.526Z</time>
      </trkpt>
      <trkpt lat="43.68106" lon="5.96197">
        <ele>600</ele>
        <time>2015-10-24T08:52:38.548Z</time>
      </trkpt>
      <trkpt lat="43.68098" lon="5.96194">
        <ele>599</ele>
        <time>2015-10-24T08:52:39.526Z</time>
      </trkpt>
      <trkpt lat="43.6809" lon="5.96192">
        <ele>598</ele>
        <time>2015-10-24T08:52:40.548Z</time>
      </trkpt>
      <trkpt lat="43.68086" lon="5.96194">
        <ele>597</ele>
        <time>2015-10-24T08:52:41.527Z</time>
      </trkpt>
      <trkpt lat="43.6808" lon="5.96196">
        <ele>597</ele>
        <time>2015-10-24T08:52:42.548Z</time>
      </trkpt>
      <trkpt lat="43.68076" lon="5.96199">
        <ele>597</ele>
        <time>2015-10-24T08:52:43.528Z</time>
      </trkpt>
      <trkpt lat="43.68072" lon="5.96206">
        <ele>596</ele>
        <time>2015-10-24T08:52:44.547Z</time>
      </trkpt>
      <trkpt lat="43.68067" lon="5.9621">
        <ele>595</ele>
        <time>2015-10-24T08:52:45.526Z</time>
      </trkpt>
      <trkpt lat="43.68063" lon="5.96211">
        <ele>595</ele>
        <time>2015-10-24T08:52:46.793Z</time>
      </trkpt>
      <trkpt lat="43.68058" lon="5.96207">
        <ele>594</ele>
        <time>2015-10-24T08:52:47.526Z</time>
      </trkpt>
      <trkpt lat="43.68052" lon="5.96202">
        <ele>593</ele>
        <time>2015-10-24T08:52:48.558Z</time>
      </trkpt>
      <trkpt lat="43.68046" lon="5.96199">
        <ele>593</ele>
        <time>2015-10-24T08:52:49.525Z</time>
      </trkpt>
      <trkpt lat="43.68039" lon="5.96194">
        <ele>592</ele>
        <time>2015-10-24T08:52:50.549Z</time>
      </trkpt>
      <trkpt lat="43.68033" lon="5.96189">
        <ele>592</ele>
        <time>2015-10-24T08:52:51.525Z</time>
      </trkpt>
      <trkpt lat="43.68027" lon="5.96184">
        <ele>591</ele>
        <time>2015-10-24T08:52:52.550Z</time>
      </trkpt>
      <trkpt lat="43.6802" lon="5.96179">
        <ele>590</ele>
        <time>2015-10-24T08:52:53.521Z</time>
      </trkpt>
      <trkpt lat="43.68013" lon="5.96178">
        <ele>590</ele>
        <time>2015-10-24T08:52:54.549Z</time>
      </trkpt>
      <trkpt lat="43.68005" lon="5.96179">
        <ele>589</ele>
        <time>2015-10-24T08:52:55.527Z</time>
      </trkpt>
      <trkpt lat="43.67997" lon="5.96182">
        <ele>588</ele>
        <time>2015-10-24T08:52:56.548Z</time>
      </trkpt>
      <trkpt lat="43.6799" lon="5.96183">
        <ele>588</ele>
        <time>2015-10-24T08:52:57.527Z</time>
      </trkpt>
      <trkpt lat="43.67981" lon="5.96185">
        <ele>588</ele>
        <time>2015-10-24T08:52:58.552Z</time>
      </trkpt>
      <trkpt lat="43.67974" lon="5.96186">
        <ele>588</ele>
        <time>2015-10-24T08:52:59.527Z</time>
      </trkpt>
      <trkpt lat="43.67966" lon="5.96187">
        <ele>587</ele>
        <time>2015-10-24T08:53:00.587Z</time>
      </trkpt>
      <trkpt lat="43.67958" lon="5.96188">
        <ele>586</ele>
        <time>2015-10-24T08:53:01.526Z</time>
      </trkpt>
      <trkpt lat="43.67951" lon="5.9619">
        <ele>586</ele>
        <time>2015-10-24T08:53:02.596Z</time>
      </trkpt>
      <trkpt lat="43.67943" lon="5.96193">
        <ele>586</ele>
        <time>2015-10-24T08:53:03.533Z</time>
      </trkpt>
      <trkpt lat="43.67936" lon="5.96194">
        <ele>585</ele>
        <time>2015-10-24T08:53:04.568Z</time>
      </trkpt>
      <trkpt lat="43.67932" lon="5.96195">
        <ele>585</ele>
        <time>2015-10-24T08:53:05.528Z</time>
      </trkpt>
      <trkpt lat="43.67926" lon="5.96193">
        <ele>584</ele>
        <time>2015-10-24T08:53:06.549Z</time>
      </trkpt>
      <trkpt lat="43.67921" lon="5.96191">
        <ele>583</ele>
        <time>2015-10-24T08:53:07.550Z</time>
      </trkpt>
      <trkpt lat="43.67915" lon="5.96189">
        <ele>582</ele>
        <time>2015-10-24T08:53:08.543Z</time>
      </trkpt>
      <trkpt lat="43.67908" lon="5.96186">
        <ele>582</ele>
        <time>2015-10-24T08:53:09.528Z</time>
      </trkpt>
      <trkpt lat="43.67903" lon="5.96183">
        <ele>582</ele>
        <time>2015-10-24T08:53:10.548Z</time>
      </trkpt>
      <trkpt lat="43.67897" lon="5.96177">
        <ele>581</ele>
        <time>2015-10-24T08:53:11.527Z</time>
      </trkpt>
      <trkpt lat="43.6789" lon="5.96172">
        <ele>581</ele>
        <time>2015-10-24T08:53:12.551Z</time>
      </trkpt>
      <trkpt lat="43.67884" lon="5.96169">
        <ele>580</ele>
        <time>2015-10-24T08:53:13.527Z</time>
      </trkpt>
      <trkpt lat="43.67877" lon="5.96167">
        <ele>579</ele>
        <time>2015-10-24T08:53:14.550Z</time>
      </trkpt>
      <trkpt lat="43.6787" lon="5.96167">
        <ele>579</ele>
        <time>2015-10-24T08:53:15.528Z</time>
      </trkpt>
      <trkpt lat="43.67865" lon="5.96166">
        <ele>577</ele>
        <time>2015-10-24T08:53:16.550Z</time>
      </trkpt>
      <trkpt lat="43.67857" lon="5.96162">
        <ele>576</ele>
        <time>2015-10-24T08:53:17.527Z</time>
      </trkpt>
      <trkpt lat="43.67851" lon="5.96158">
        <ele>575</ele>
        <time>2015-10-24T08:53:18.555Z</time>
      </trkpt>
      <trkpt lat="43.67845" lon="5.96154">
        <ele>575</ele>
        <time>2015-10-24T08:53:19.525Z</time>
      </trkpt>
      <trkpt lat="43.67838" lon="5.96153">
        <ele>574</ele>
        <time>2015-10-24T08:53:20.551Z</time>
      </trkpt>
      <trkpt lat="43.67833" lon="5.96149">
        <ele>575</ele>
        <time>2015-10-24T08:53:21.534Z</time>
      </trkpt>
      <trkpt lat="43.67827" lon="5.96144">
        <ele>574</ele>
        <time>2015-10-24T08:53:22.550Z</time>
      </trkpt>
      <trkpt lat="43.67823" lon="5.9614">
        <ele>574</ele>
        <time>2015-10-24T08:53:23.528Z</time>
      </trkpt>
      <trkpt lat="43.67819" lon="5.96129">
        <ele>574</ele>
        <time>2015-10-24T08:53:25.549Z</time>
      </trkpt>
      <trkpt lat="43.67819" lon="5.96123">
        <ele>574</ele>
        <time>2015-10-24T08:53:26.527Z</time>
      </trkpt>
      <trkpt lat="43.67821" lon="5.96114">
        <ele>575</ele>
        <time>2015-10-24T08:53:28.574Z</time>
      </trkpt>
      <trkpt lat="43.67823" lon="5.96111">
        <ele>575</ele>
        <time>2015-10-24T08:53:29.527Z</time>
      </trkpt>
      <trkpt lat="43.67826" lon="5.96106">
        <ele>575</ele>
        <time>2015-10-24T08:53:30.549Z</time>
      </trkpt>
      <trkpt lat="43.67829" lon="5.961">
        <ele>575</ele>
        <time>2015-10-24T08:53:31.527Z</time>
      </trkpt>
      <trkpt lat="43.67834" lon="5.96091">
        <ele>575</ele>
        <time>2015-10-24T08:53:33.551Z</time>
      </trkpt>
      <trkpt lat="43.67836" lon="5.96087">
        <ele>574</ele>
        <time>2015-10-24T08:53:34.527Z</time>
      </trkpt>
      <trkpt lat="43.6784" lon="5.96076">
        <ele>574</ele>
        <time>2015-10-24T08:53:36.588Z</time>
      </trkpt>
      <trkpt lat="43.67841" lon="5.9607">
        <ele>575</ele>
        <time>2015-10-24T08:53:37.527Z</time>
      </trkpt>
      <trkpt lat="43.67845" lon="5.96061">
        <ele>574</ele>
        <time>2015-10-24T08:53:39.551Z</time>
      </trkpt>
      <trkpt lat="43.67847" lon="5.96056">
        <ele>575</ele>
        <time>2015-10-24T08:53:40.527Z</time>
      </trkpt>
      <trkpt lat="43.67853" lon="5.96048">
        <ele>575</ele>
        <time>2015-10-24T08:53:43.551Z</time>
      </trkpt>
      <trkpt lat="43.67855" lon="5.96046">
        <ele>576</ele>
        <time>2015-10-24T08:53:44.552Z</time>
      </trkpt>
      <trkpt lat="43.67861" lon="5.96037">
        <ele>574</ele>
        <time>2015-10-24T08:53:47.549Z</time>
      </trkpt>
      <trkpt lat="43.67863" lon="5.96034">
        <ele>575</ele>
        <time>2015-10-24T08:53:48.526Z</time>
      </trkpt>
      <trkpt lat="43.67868" lon="5.96027">
        <ele>576</ele>
        <time>2015-10-24T08:53:50.551Z</time>
      </trkpt>
      <trkpt lat="43.67871" lon="5.96024">
        <ele>576</ele>
        <time>2015-10-24T08:53:51.527Z</time>
      </trkpt>
      <trkpt lat="43.67874" lon="5.96017">
        <ele>576</ele>
        <time>2015-10-24T08:53:53.551Z</time>
      </trkpt>
      <trkpt lat="43.67876" lon="5.96014">
        <ele>575</ele>
        <time>2015-10-24T08:53:54.527Z</time>
      </trkpt>
      <trkpt lat="43.6788" lon="5.96007">
        <ele>576</ele>
        <time>2015-10-24T08:53:56.550Z</time>
      </trkpt>
      <trkpt lat="43.67883" lon="5.96003">
        <ele>574</ele>
        <time>2015-10-24T08:53:57.528Z</time>
      </trkpt>
      <trkpt lat="43.67887" lon="5.95997">
        <ele>575</ele>
        <time>2015-10-24T08:53:59.549Z</time>
      </trkpt>
      <trkpt lat="43.6789" lon="5.95994">
        <ele>575</ele>
        <time>2015-10-24T08:54:00.526Z</time>
      </trkpt>
      <trkpt lat="43.67894" lon="5.95988">
        <ele>574</ele>
        <time>2015-10-24T08:54:02.550Z</time>
      </trkpt>
      <trkpt lat="43.67895" lon="5.95983">
        <ele>575</ele>
        <time>2015-10-24T08:54:03.526Z</time>
      </trkpt>
      <trkpt lat="43.67891" lon="5.95974">
        <ele>573</ele>
        <time>2015-10-24T08:54:05.550Z</time>
      </trkpt>
      <trkpt lat="43.67887" lon="5.95969">
        <ele>572</ele>
        <time>2015-10-24T08:54:06.527Z</time>
      </trkpt>
      <trkpt lat="43.67887" lon="5.95969">
        <ele>572</ele>
        <time>2015-10-24T08:54:06.555Z</time>
      </trkpt>
      <trkpt lat="43.67879" lon="5.95962">
        <ele>573</ele>
        <time>2015-10-24T08:54:07.527Z</time>
      </trkpt>
      <trkpt lat="43.67876" lon="5.95955">
        <ele>573</ele>
        <time>2015-10-24T08:54:08.551Z</time>
      </trkpt>
      <trkpt lat="43.67872" lon="5.95951">
        <ele>573</ele>
        <time>2015-10-24T08:54:09.528Z</time>
      </trkpt>
      <trkpt lat="43.67867" lon="5.95946">
        <ele>572</ele>
        <time>2015-10-24T08:54:10.552Z</time>
      </trkpt>
      <trkpt lat="43.67862" lon="5.95942">
        <ele>571</ele>
        <time>2015-10-24T08:54:11.527Z</time>
      </trkpt>
      <trkpt lat="43.67858" lon="5.95937">
        <ele>572</ele>
        <time>2015-10-24T08:54:12.574Z</time>
      </trkpt>
      <trkpt lat="43.67854" lon="5.95931">
        <ele>571</ele>
        <time>2015-10-24T08:54:13.528Z</time>
      </trkpt>
      <trkpt lat="43.67851" lon="5.95925">
        <ele>571</ele>
        <time>2015-10-24T08:54:14.550Z</time>
      </trkpt>
      <trkpt lat="43.67847" lon="5.9592">
        <ele>571</ele>
        <time>2015-10-24T08:54:15.527Z</time>
      </trkpt>
      <trkpt lat="43.67843" lon="5.95915">
        <ele>572</ele>
        <time>2015-10-24T08:54:16.549Z</time>
      </trkpt>
      <trkpt lat="43.67838" lon="5.95912">
        <ele>571</ele>
        <time>2015-10-24T08:54:17.527Z</time>
      </trkpt>
      <trkpt lat="43.67832" lon="5.95909">
        <ele>571</ele>
        <time>2015-10-24T08:54:18.551Z</time>
      </trkpt>
      <trkpt lat="43.67826" lon="5.95906">
        <ele>570</ele>
        <time>2015-10-24T08:54:19.528Z</time>
      </trkpt>
      <trkpt lat="43.67821" lon="5.95901">
        <ele>570</ele>
        <time>2015-10-24T08:54:20.551Z</time>
      </trkpt>
      <trkpt lat="43.67816" lon="5.95893">
        <ele>569</ele>
        <time>2015-10-24T08:54:21.528Z</time>
      </trkpt>
      <trkpt lat="43.67811" lon="5.95886">
        <ele>569</ele>
        <time>2015-10-24T08:54:22.565Z</time>
      </trkpt>
      <trkpt lat="43.67804" lon="5.95878">
        <ele>569</ele>
        <time>2015-10-24T08:54:23.553Z</time>
      </trkpt>
      <trkpt lat="43.67799" lon="5.9587">
        <ele>569</ele>
        <time>2015-10-24T08:54:24.549Z</time>
      </trkpt>
      <trkpt lat="43.67795" lon="5.95863">
        <ele>568</ele>
        <time>2015-10-24T08:54:25.521Z</time>
      </trkpt>
      <trkpt lat="43.6779" lon="5.95855">
        <ele>568</ele>
        <time>2015-10-24T08:54:26.551Z</time>
      </trkpt>
      <trkpt lat="43.67784" lon="5.95849">
        <ele>567</ele>
        <time>2015-10-24T08:54:27.527Z</time>
      </trkpt>
      <trkpt lat="43.67779" lon="5.95846">
        <ele>567</ele>
        <time>2015-10-24T08:54:28.551Z</time>
      </trkpt>
      <trkpt lat="43.67774" lon="5.95843">
        <ele>566</ele>
        <time>2015-10-24T08:54:29.526Z</time>
      </trkpt>
      <trkpt lat="43.6777" lon="5.9584">
        <ele>565</ele>
        <time>2015-10-24T08:54:30.550Z</time>
      </trkpt>
      <trkpt lat="43.67765" lon="5.95835">
        <ele>566</ele>
        <time>2015-10-24T08:54:31.528Z</time>
      </trkpt>
      <trkpt lat="43.6776" lon="5.95834">
        <ele>565</ele>
        <time>2015-10-24T08:54:32.550Z</time>
      </trkpt>
      <trkpt lat="43.67755" lon="5.95833">
        <ele>565</ele>
        <time>2015-10-24T08:54:33.527Z</time>
      </trkpt>
      <trkpt lat="43.67749" lon="5.95832">
        <ele>564</ele>
        <time>2015-10-24T08:54:34.548Z</time>
      </trkpt>
      <trkpt lat="43.67743" lon="5.95832">
        <ele>564</ele>
        <time>2015-10-24T08:54:35.528Z</time>
      </trkpt>
      <trkpt lat="43.67738" lon="5.95833">
        <ele>564</ele>
        <time>2015-10-24T08:54:36.550Z</time>
      </trkpt>
      <trkpt lat="43.67734" lon="5.95837">
        <ele>564</ele>
        <time>2015-10-24T08:54:37.528Z</time>
      </trkpt>
      <trkpt lat="43.6773" lon="5.95844">
        <ele>562</ele>
        <time>2015-10-24T08:54:38.548Z</time>
      </trkpt>
      <trkpt lat="43.67725" lon="5.95851">
        <ele>562</ele>
        <time>2015-10-24T08:54:39.526Z</time>
      </trkpt>
      <trkpt lat="43.6772" lon="5.95855">
        <ele>561</ele>
        <time>2015-10-24T08:54:40.550Z</time>
      </trkpt>
      <trkpt lat="43.67714" lon="5.95856">
        <ele>560</ele>
        <time>2015-10-24T08:54:41.527Z</time>
      </trkpt>
      <trkpt lat="43.67707" lon="5.95856">
        <ele>560</ele>
        <time>2015-10-24T08:54:42.556Z</time>
      </trkpt>
      <trkpt lat="43.67701" lon="5.95854">
        <ele>560</ele>
        <time>2015-10-24T08:54:43.528Z</time>
      </trkpt>
      <trkpt lat="43.67694" lon="5.95854">
        <ele>559</ele>
        <time>2015-10-24T08:54:44.579Z</time>
      </trkpt>
      <trkpt lat="43.67687" lon="5.95852">
        <ele>559</ele>
        <time>2015-10-24T08:54:45.527Z</time>
      </trkpt>
      <trkpt lat="43.67681" lon="5.95853">
        <ele>559</ele>
        <time>2015-10-24T08:54:46.550Z</time>
      </trkpt>
      <trkpt lat="43.67673" lon="5.95855">
        <ele>559</ele>
        <time>2015-10-24T08:54:47.526Z</time>
      </trkpt>
      <trkpt lat="43.67667" lon="5.95858">
        <ele>559</ele>
        <time>2015-10-24T08:54:48.757Z</time>
      </trkpt>
      <trkpt lat="43.67661" lon="5.95862">
        <ele>558</ele>
        <time>2015-10-24T08:54:49.528Z</time>
      </trkpt>
      <trkpt lat="43.67654" lon="5.95864">
        <ele>558</ele>
        <time>2015-10-24T08:54:50.542Z</time>
      </trkpt>
      <trkpt lat="43.67647" lon="5.95867">
        <ele>557</ele>
        <time>2015-10-24T08:54:51.528Z</time>
      </trkpt>
      <trkpt lat="43.67641" lon="5.9587">
        <ele>556</ele>
        <time>2015-10-24T08:54:52.550Z</time>
      </trkpt>
      <trkpt lat="43.67636" lon="5.95876">
        <ele>556</ele>
        <time>2015-10-24T08:54:53.527Z</time>
      </trkpt>
      <trkpt lat="43.67632" lon="5.95883">
        <ele>556</ele>
        <time>2015-10-24T08:54:54.549Z</time>
      </trkpt>
      <trkpt lat="43.6763" lon="5.9589">
        <ele>556</ele>
        <time>2015-10-24T08:54:55.550Z</time>
      </trkpt>
      <trkpt lat="43.67622" lon="5.95895">
        <ele>554</ele>
        <time>2015-10-24T08:54:57.554Z</time>
      </trkpt>
      <trkpt lat="43.67616" lon="5.95894">
        <ele>554</ele>
        <time>2015-10-24T08:54:58.527Z</time>
      </trkpt>
      <trkpt lat="43.67611" lon="5.95893">
        <ele>554</ele>
        <time>2015-10-24T08:54:59.551Z</time>
      </trkpt>
      <trkpt lat="43.67607" lon="5.95893">
        <ele>554</ele>
        <time>2015-10-24T08:55:00.527Z</time>
      </trkpt>
      <trkpt lat="43.676" lon="5.95901">
        <ele>554</ele>
        <time>2015-10-24T08:55:03.549Z</time>
      </trkpt>
      <trkpt lat="43.676" lon="5.95905">
        <ele>554</ele>
        <time>2015-10-24T08:55:04.527Z</time>
      </trkpt>
      <trkpt lat="43.67599" lon="5.95914">
        <ele>554</ele>
        <time>2015-10-24T08:55:06.576Z</time>
      </trkpt>
      <trkpt lat="43.67598" lon="5.95919">
        <ele>554</ele>
        <time>2015-10-24T08:55:07.527Z</time>
      </trkpt>
      <trkpt lat="43.67598" lon="5.95929">
        <ele>554</ele>
        <time>2015-10-24T08:55:09.559Z</time>
      </trkpt>
      <trkpt lat="43.67598" lon="5.95934">
        <ele>554</ele>
        <time>2015-10-24T08:55:10.527Z</time>
      </trkpt>
      <trkpt lat="43.67596" lon="5.95944">
        <ele>553</ele>
        <time>2015-10-24T08:55:12.550Z</time>
      </trkpt>
      <trkpt lat="43.67596" lon="5.95949">
        <ele>554</ele>
        <time>2015-10-24T08:55:13.528Z</time>
      </trkpt>
      <trkpt lat="43.67596" lon="5.95959">
        <ele>554</ele>
        <time>2015-10-24T08:55:15.549Z</time>
      </trkpt>
      <trkpt lat="43.67596" lon="5.95964">
        <ele>553</ele>
        <time>2015-10-24T08:55:16.527Z</time>
      </trkpt>
      <trkpt lat="43.67596" lon="5.95976">
        <ele>553</ele>
        <time>2015-10-24T08:55:18.551Z</time>
      </trkpt>
      <trkpt lat="43.67596" lon="5.95982">
        <ele>553</ele>
        <time>2015-10-24T08:55:19.528Z</time>
      </trkpt>
      <trkpt lat="43.67596" lon="5.95994">
        <ele>553</ele>
        <time>2015-10-24T08:55:21.551Z</time>
      </trkpt>
      <trkpt lat="43.67596" lon="5.96">
        <ele>553</ele>
        <time>2015-10-24T08:55:22.526Z</time>
      </trkpt>
      <trkpt lat="43.67596" lon="5.96011">
        <ele>554</ele>
        <time>2015-10-24T08:55:24.552Z</time>
      </trkpt>
      <trkpt lat="43.67596" lon="5.96017">
        <ele>555</ele>
        <time>2015-10-24T08:55:25.528Z</time>
      </trkpt>
      <trkpt lat="43.67595" lon="5.96027">
        <ele>554</ele>
        <time>2015-10-24T08:55:27.550Z</time>
      </trkpt>
      <trkpt lat="43.67595" lon="5.96033">
        <ele>554</ele>
        <time>2015-10-24T08:55:28.552Z</time>
      </trkpt>
      <trkpt lat="43.67596" lon="5.96043">
        <ele>554</ele>
        <time>2015-10-24T08:55:30.551Z</time>
      </trkpt>
      <trkpt lat="43.67596" lon="5.96049">
        <ele>555</ele>
        <time>2015-10-24T08:55:31.536Z</time>
      </trkpt>
      <trkpt lat="43.67596" lon="5.96055">
        <ele>554</ele>
        <time>2015-10-24T08:55:32.548Z</time>
      </trkpt>
      <trkpt lat="43.67596" lon="5.96062">
        <ele>555</ele>
        <time>2015-10-24T08:55:33.526Z</time>
      </trkpt>
      <trkpt lat="43.67594" lon="5.96068">
        <ele>555</ele>
        <time>2015-10-24T08:55:34.549Z</time>
      </trkpt>
      <trkpt lat="43.67591" lon="5.96074">
        <ele>555</ele>
        <time>2015-10-24T08:55:35.528Z</time>
      </trkpt>
      <trkpt lat="43.67585" lon="5.96081">
        <ele>557</ele>
        <time>2015-10-24T08:55:37.543Z</time>
      </trkpt>
      <trkpt lat="43.67581" lon="5.96083">
        <ele>557</ele>
        <time>2015-10-24T08:55:38.526Z</time>
      </trkpt>
      <trkpt lat="43.67574" lon="5.96083">
        <ele>557</ele>
        <time>2015-10-24T08:55:40.546Z</time>
      </trkpt>
      <trkpt lat="43.67571" lon="5.96082">
        <ele>557</ele>
        <time>2015-10-24T08:55:41.529Z</time>
      </trkpt>
      <trkpt lat="43.67564" lon="5.9608">
        <ele>557</ele>
        <time>2015-10-24T08:55:43.550Z</time>
      </trkpt>
      <trkpt lat="43.6756" lon="5.9608">
        <ele>557</ele>
        <time>2015-10-24T08:55:44.528Z</time>
      </trkpt>
      <trkpt lat="43.67551" lon="5.96078">
        <ele>557</ele>
        <time>2015-10-24T08:55:46.550Z</time>
      </trkpt>
      <trkpt lat="43.67547" lon="5.96076">
        <ele>557</ele>
        <time>2015-10-24T08:55:47.528Z</time>
      </trkpt>
      <trkpt lat="43.6754" lon="5.96073">
        <ele>558</ele>
        <time>2015-10-24T08:55:49.550Z</time>
      </trkpt>
      <trkpt lat="43.67536" lon="5.96072">
        <ele>558</ele>
        <time>2015-10-24T08:55:50.552Z</time>
      </trkpt>
      <trkpt lat="43.67528" lon="5.96067">
        <ele>559</ele>
        <time>2015-10-24T08:55:53.559Z</time>
      </trkpt>
      <trkpt lat="43.67526" lon="5.96066">
        <ele>558</ele>
        <time>2015-10-24T08:55:54.528Z</time>
      </trkpt>
      <trkpt lat="43.67519" lon="5.96061">
        <ele>559</ele>
        <time>2015-10-24T08:55:57.551Z</time>
      </trkpt>
      <trkpt lat="43.67517" lon="5.9606">
        <ele>559</ele>
        <time>2015-10-24T08:55:58.528Z</time>
      </trkpt>
      <trkpt lat="43.6751" lon="5.96057">
        <ele>559</ele>
        <time>2015-10-24T08:56:01.578Z</time>
      </trkpt>
      <trkpt lat="43.67508" lon="5.96055">
        <ele>560</ele>
        <time>2015-10-24T08:56:02.528Z</time>
      </trkpt>
      <trkpt lat="43.67501" lon="5.96052">
        <ele>560</ele>
        <time>2015-10-24T08:56:05.552Z</time>
      </trkpt>
      <trkpt lat="43.67499" lon="5.96051">
        <ele>560</ele>
        <time>2015-10-24T08:56:06.526Z</time>
      </trkpt>
      <trkpt lat="43.6749" lon="5.96051">
        <ele>562</ele>
        <time>2015-10-24T08:56:11.551Z</time>
      </trkpt>
      <trkpt lat="43.67489" lon="5.96053">
        <ele>562</ele>
        <time>2015-10-24T08:56:12.554Z</time>
      </trkpt>
      <trkpt lat="43.67483" lon="5.96059">
        <ele>562</ele>
        <time>2015-10-24T08:56:16.550Z</time>
      </trkpt>
      <trkpt lat="43.67482" lon="5.96061">
        <ele>562</ele>
        <time>2015-10-24T08:56:17.528Z</time>
      </trkpt>
      <trkpt lat="43.67477" lon="5.96068">
        <ele>561</ele>
        <time>2015-10-24T08:56:50.551Z</time>
      </trkpt>
      <trkpt lat="43.67476" lon="5.9607">
        <ele>561</ele>
        <time>2015-10-24T08:56:51.527Z</time>
      </trkpt>
      <trkpt lat="43.67472" lon="5.96078">
        <ele>560</ele>
        <time>2015-10-24T08:56:53.551Z</time>
      </trkpt>
      <trkpt lat="43.6747" lon="5.96082">
        <ele>560</ele>
        <time>2015-10-24T08:56:54.530Z</time>
      </trkpt>
      <trkpt lat="43.67465" lon="5.96089">
        <ele>561</ele>
        <time>2015-10-24T08:56:56.575Z</time>
      </trkpt>
      <trkpt lat="43.67462" lon="5.96091">
        <ele>561</ele>
        <time>2015-10-24T08:56:57.527Z</time>
      </trkpt>
      <trkpt lat="43.67454" lon="5.96094">
        <ele>561</ele>
        <time>2015-10-24T08:56:59.559Z</time>
      </trkpt>
      <trkpt lat="43.6745" lon="5.96095">
        <ele>561</ele>
        <time>2015-10-24T08:57:00.527Z</time>
      </trkpt>
      <trkpt lat="43.67443" lon="5.96097">
        <ele>562</ele>
        <time>2015-10-24T08:57:02.553Z</time>
      </trkpt>
      <trkpt lat="43.67439" lon="5.96097">
        <ele>561</ele>
        <time>2015-10-24T08:57:03.525Z</time>
      </trkpt>
      <trkpt lat="43.67432" lon="5.96097">
        <ele>561</ele>
        <time>2015-10-24T08:57:05.559Z</time>
      </trkpt>
      <trkpt lat="43.67428" lon="5.96097">
        <ele>561</ele>
        <time>2015-10-24T08:57:06.531Z</time>
      </trkpt>
      <trkpt lat="43.67421" lon="5.96096">
        <ele>560</ele>
        <time>2015-10-24T08:57:08.552Z</time>
      </trkpt>
      <trkpt lat="43.67417" lon="5.96094">
        <ele>560</ele>
        <time>2015-10-24T08:57:09.527Z</time>
      </trkpt>
      <trkpt lat="43.67409" lon="5.96089">
        <ele>561</ele>
        <time>2015-10-24T08:57:11.553Z</time>
      </trkpt>
      <trkpt lat="43.67405" lon="5.96086">
        <ele>560</ele>
        <time>2015-10-24T08:57:12.539Z</time>
      </trkpt>
      <trkpt lat="43.67399" lon="5.9608">
        <ele>560</ele>
        <time>2015-10-24T08:57:14.552Z</time>
      </trkpt>
      <trkpt lat="43.67396" lon="5.96077">
        <ele>561</ele>
        <time>2015-10-24T08:57:15.527Z</time>
      </trkpt>
      <trkpt lat="43.67389" lon="5.96071">
        <ele>561</ele>
        <time>2015-10-24T08:57:18.576Z</time>
      </trkpt>
      <trkpt lat="43.67386" lon="5.96069">
        <ele>561</ele>
        <time>2015-10-24T08:57:19.750Z</time>
      </trkpt>
      <trkpt lat="43.6738" lon="5.96066">
        <ele>561</ele>
        <time>2015-10-24T08:57:21.551Z</time>
      </trkpt>
      <trkpt lat="43.67377" lon="5.96065">
        <ele>561</ele>
        <time>2015-10-24T08:57:22.528Z</time>
      </trkpt>
      <trkpt lat="43.6737" lon="5.96062">
        <ele>562</ele>
        <time>2015-10-24T08:57:24.551Z</time>
      </trkpt>
      <trkpt lat="43.67367" lon="5.9606">
        <ele>561</ele>
        <time>2015-10-24T08:57:25.528Z</time>
      </trkpt>
      <trkpt lat="43.67361" lon="5.96057">
        <ele>561</ele>
        <time>2015-10-24T08:57:27.551Z</time>
      </trkpt>
      <trkpt lat="43.67357" lon="5.96057">
        <ele>560</ele>
        <time>2015-10-24T08:57:28.527Z</time>
      </trkpt>
      <trkpt lat="43.67351" lon="5.96055">
        <ele>560</ele>
        <time>2015-10-24T08:57:30.550Z</time>
      </trkpt>
      <trkpt lat="43.67348" lon="5.96054">
        <ele>560</ele>
        <time>2015-10-24T08:57:31.748Z</time>
      </trkpt>
      <trkpt lat="43.67341" lon="5.96053">
        <ele>558</ele>
        <time>2015-10-24T08:57:34.589Z</time>
      </trkpt>
      <trkpt lat="43.67338" lon="5.96052">
        <ele>558</ele>
        <time>2015-10-24T08:57:35.528Z</time>
      </trkpt>
      <trkpt lat="43.6733" lon="5.96046">
        <ele>557</ele>
        <time>2015-10-24T08:57:38.550Z</time>
      </trkpt>
      <trkpt lat="43.67327" lon="5.96045">
        <ele>557</ele>
        <time>2015-10-24T08:57:39.538Z</time>
      </trkpt>
      <trkpt lat="43.67321" lon="5.96042">
        <ele>556</ele>
        <time>2015-10-24T08:57:41.551Z</time>
      </trkpt>
      <trkpt lat="43.67319" lon="5.9604">
        <ele>557</ele>
        <time>2015-10-24T08:57:42.529Z</time>
      </trkpt>
      <trkpt lat="43.6731" lon="5.96037">
        <ele>559</ele>
        <time>2015-10-24T08:57:45.597Z</time>
      </trkpt>
      <trkpt lat="43.67307" lon="5.96036">
        <ele>559</ele>
        <time>2015-10-24T08:57:46.527Z</time>
      </trkpt>
      <trkpt lat="43.67299" lon="5.9603">
        <ele>561</ele>
        <time>2015-10-24T08:57:49.551Z</time>
      </trkpt>
      <trkpt lat="43.67297" lon="5.96027">
        <ele>561</ele>
        <time>2015-10-24T08:57:50.528Z</time>
      </trkpt>
      <trkpt lat="43.67291" lon="5.96024">
        <ele>562</ele>
        <time>2015-10-24T08:57:52.551Z</time>
      </trkpt>
      <trkpt lat="43.67288" lon="5.96022">
        <ele>563</ele>
        <time>2015-10-24T08:57:53.528Z</time>
      </trkpt>
      <trkpt lat="43.67279" lon="5.96017">
        <ele>564</ele>
        <time>2015-10-24T08:57:56.550Z</time>
      </trkpt>
      <trkpt lat="43.67277" lon="5.96015">
        <ele>565</ele>
        <time>2015-10-24T08:57:57.526Z</time>
      </trkpt>
      <trkpt lat="43.67269" lon="5.96011">
        <ele>565</ele>
        <time>2015-10-24T08:58:00.549Z</time>
      </trkpt>
      <trkpt lat="43.67267" lon="5.9601">
        <ele>565</ele>
        <time>2015-10-24T08:58:01.563Z</time>
      </trkpt>
      <trkpt lat="43.67258" lon="5.96009">
        <ele>566</ele>
        <time>2015-10-24T08:58:06.550Z</time>
      </trkpt>
      <trkpt lat="43.67256" lon="5.96009">
        <ele>566</ele>
        <time>2015-10-24T08:58:07.527Z</time>
      </trkpt>
      <trkpt lat="43.67248" lon="5.96012">
        <ele>567</ele>
        <time>2015-10-24T08:58:12.574Z</time>
      </trkpt>
      <trkpt lat="43.67246" lon="5.96012">
        <ele>566</ele>
        <time>2015-10-24T08:58:13.528Z</time>
      </trkpt>
      <trkpt lat="43.67238" lon="5.96011">
        <ele>567</ele>
        <time>2015-10-24T08:58:18.550Z</time>
      </trkpt>
      <trkpt lat="43.67237" lon="5.9601">
        <ele>567</ele>
        <time>2015-10-24T08:58:19.527Z</time>
      </trkpt>
      <trkpt lat="43.6723" lon="5.96005">
        <ele>567</ele>
        <time>2015-10-24T08:58:23.577Z</time>
      </trkpt>
      <trkpt lat="43.67228" lon="5.96004">
        <ele>568</ele>
        <time>2015-10-24T08:58:24.529Z</time>
      </trkpt>
      <trkpt lat="43.67221" lon="5.95997">
        <ele>568</ele>
        <time>2015-10-24T08:58:29.561Z</time>
      </trkpt>
      <trkpt lat="43.67221" lon="5.95994">
        <ele>568</ele>
        <time>2015-10-24T08:58:30.526Z</time>
      </trkpt>
      <trkpt lat="43.67223" lon="5.95984">
        <ele>568</ele>
        <time>2015-10-24T08:58:34.554Z</time>
      </trkpt>
      <trkpt lat="43.67224" lon="5.95981">
        <ele>568</ele>
        <time>2015-10-24T08:58:35.537Z</time>
      </trkpt>
      <trkpt lat="43.67226" lon="5.95971">
        <ele>568</ele>
        <time>2015-10-24T08:58:38.564Z</time>
      </trkpt>
      <trkpt lat="43.67226" lon="5.95967">
        <ele>569</ele>
        <time>2015-10-24T08:58:39.519Z</time>
      </trkpt>
      <trkpt lat="43.67226" lon="5.95956">
        <ele>569</ele>
        <time>2015-10-24T08:58:42.539Z</time>
      </trkpt>
      <trkpt lat="43.67226" lon="5.95952">
        <ele>569</ele>
        <time>2015-10-24T08:58:43.526Z</time>
      </trkpt>
      <trkpt lat="43.67228" lon="5.95941">
        <ele>568</ele>
        <time>2015-10-24T08:58:46.548Z</time>
      </trkpt>
      <trkpt lat="43.67229" lon="5.95937">
        <ele>569</ele>
        <time>2015-10-24T08:58:47.526Z</time>
      </trkpt>
      <trkpt lat="43.67233" lon="5.95926">
        <ele>567</ele>
        <time>2015-10-24T08:58:50.577Z</time>
      </trkpt>
      <trkpt lat="43.67233" lon="5.95922">
        <ele>567</ele>
        <time>2015-10-24T08:58:51.529Z</time>
      </trkpt>
      <trkpt lat="43.67229" lon="5.95912">
        <ele>567</ele>
        <time>2015-10-24T08:58:54.551Z</time>
      </trkpt>
      <trkpt lat="43.67227" lon="5.95909">
        <ele>568</ele>
        <time>2015-10-24T08:58:55.528Z</time>
      </trkpt>
      <trkpt lat="43.67221" lon="5.95903">
        <ele>567</ele>
        <time>2015-10-24T08:58:58.553Z</time>
      </trkpt>
      <trkpt lat="43.67219" lon="5.959">
        <ele>567</ele>
        <time>2015-10-24T08:58:59.528Z</time>
      </trkpt>
      <trkpt lat="43.67218" lon="5.95889">
        <ele>566</ele>
        <time>2015-10-24T08:59:02.560Z</time>
      </trkpt>
      <trkpt lat="43.67219" lon="5.95885">
        <ele>566</ele>
        <time>2015-10-24T08:59:03.528Z</time>
      </trkpt>
      <trkpt lat="43.67224" lon="5.95876">
        <ele>565</ele>
        <time>2015-10-24T08:59:06.553Z</time>
      </trkpt>
      <trkpt lat="43.67226" lon="5.95872">
        <ele>565</ele>
        <time>2015-10-24T08:59:07.528Z</time>
      </trkpt>
      <trkpt lat="43.67229" lon="5.95864">
        <ele>565</ele>
        <time>2015-10-24T08:59:09.550Z</time>
      </trkpt>
      <trkpt lat="43.6723" lon="5.9586">
        <ele>565</ele>
        <time>2015-10-24T08:59:10.529Z</time>
      </trkpt>
      <trkpt lat="43.67232" lon="5.95848">
        <ele>564</ele>
        <time>2015-10-24T08:59:13.555Z</time>
      </trkpt>
      <trkpt lat="43.67234" lon="5.95845">
        <ele>564</ele>
        <time>2015-10-24T08:59:14.527Z</time>
      </trkpt>
      <trkpt lat="43.67238" lon="5.95834">
        <ele>565</ele>
        <time>2015-10-24T08:59:17.551Z</time>
      </trkpt>
      <trkpt lat="43.67239" lon="5.9583">
        <ele>565</ele>
        <time>2015-10-24T08:59:18.528Z</time>
      </trkpt>
      <trkpt lat="43.67241" lon="5.95822">
        <ele>565</ele>
        <time>2015-10-24T08:59:20.551Z</time>
      </trkpt>
      <trkpt lat="43.67241" lon="5.95818">
        <ele>565</ele>
        <time>2015-10-24T08:59:21.529Z</time>
      </trkpt>
      <trkpt lat="43.67241" lon="5.95807">
        <ele>565</ele>
        <time>2015-10-24T08:59:23.578Z</time>
      </trkpt>
      <trkpt lat="43.67241" lon="5.95802">
        <ele>566</ele>
        <time>2015-10-24T08:59:24.529Z</time>
      </trkpt>
      <trkpt lat="43.67243" lon="5.95793">
        <ele>566</ele>
        <time>2015-10-24T08:59:26.550Z</time>
      </trkpt>
      <trkpt lat="43.67246" lon="5.95788">
        <ele>566</ele>
        <time>2015-10-24T08:59:27.528Z</time>
      </trkpt>
      <trkpt lat="43.67251" lon="5.95781">
        <ele>566</ele>
        <time>2015-10-24T08:59:29.552Z</time>
      </trkpt>
      <trkpt lat="43.67254" lon="5.95777">
        <ele>566</ele>
        <time>2015-10-24T08:59:30.524Z</time>
      </trkpt>
      <trkpt lat="43.67259" lon="5.95771">
        <ele>565</ele>
        <time>2015-10-24T08:59:32.550Z</time>
      </trkpt>
      <trkpt lat="43.67261" lon="5.95767">
        <ele>565</ele>
        <time>2015-10-24T08:59:33.528Z</time>
      </trkpt>
      <trkpt lat="43.67264" lon="5.95759">
        <ele>566</ele>
        <time>2015-10-24T08:59:35.551Z</time>
      </trkpt>
      <trkpt lat="43.67265" lon="5.95754">
        <ele>566</ele>
        <time>2015-10-24T08:59:36.532Z</time>
      </trkpt>
      <trkpt lat="43.67268" lon="5.95745">
        <ele>566</ele>
        <time>2015-10-24T08:59:38.551Z</time>
      </trkpt>
      <trkpt lat="43.6727" lon="5.95741">
        <ele>566</ele>
        <time>2015-10-24T08:59:39.528Z</time>
      </trkpt>
      <trkpt lat="43.67274" lon="5.95733">
        <ele>565</ele>
        <time>2015-10-24T08:59:41.553Z</time>
      </trkpt>
      <trkpt lat="43.67276" lon="5.95729">
        <ele>566</ele>
        <time>2015-10-24T08:59:42.529Z</time>
      </trkpt>
      <trkpt lat="43.67279" lon="5.9572">
        <ele>566</ele>
        <time>2015-10-24T08:59:44.551Z</time>
      </trkpt>
      <trkpt lat="43.67281" lon="5.95717">
        <ele>566</ele>
        <time>2015-10-24T08:59:45.528Z</time>
      </trkpt>
      <trkpt lat="43.67286" lon="5.95713">
        <ele>566</ele>
        <time>2015-10-24T08:59:47.552Z</time>
      </trkpt>
      <trkpt lat="43.67289" lon="5.95711">
        <ele>567</ele>
        <time>2015-10-24T08:59:48.538Z</time>
      </trkpt>
      <trkpt lat="43.67296" lon="5.95706">
        <ele>566</ele>
        <time>2015-10-24T08:59:50.562Z</time>
      </trkpt>
      <trkpt lat="43.67299" lon="5.95702">
        <ele>566</ele>
        <time>2015-10-24T08:59:51.528Z</time>
      </trkpt>
      <trkpt lat="43.67304" lon="5.95694">
        <ele>565</ele>
        <time>2015-10-24T08:59:53.551Z</time>
      </trkpt>
      <trkpt lat="43.67307" lon="5.9569">
        <ele>567</ele>
        <time>2015-10-24T08:59:54.528Z</time>
      </trkpt>
      <trkpt lat="43.67312" lon="5.95682">
        <ele>567</ele>
        <time>2015-10-24T08:59:56.553Z</time>
      </trkpt>
      <trkpt lat="43.67314" lon="5.95676">
        <ele>567</ele>
        <time>2015-10-24T08:59:57.528Z</time>
      </trkpt>
      <trkpt lat="43.67317" lon="5.95666">
        <ele>566</ele>
        <time>2015-10-24T08:59:59.561Z</time>
      </trkpt>
      <trkpt lat="43.67318" lon="5.95661">
        <ele>566</ele>
        <time>2015-10-24T09:00:00.528Z</time>
      </trkpt>
      <trkpt lat="43.67321" lon="5.9565">
        <ele>566</ele>
        <time>2015-10-24T09:00:02.551Z</time>
      </trkpt>
      <trkpt lat="43.67322" lon="5.95646">
        <ele>566</ele>
        <time>2015-10-24T09:00:03.528Z</time>
      </trkpt>
      <trkpt lat="43.67326" lon="5.95635">
        <ele>565</ele>
        <time>2015-10-24T09:00:06.595Z</time>
      </trkpt>
      <trkpt lat="43.67326" lon="5.95631">
        <ele>566</ele>
        <time>2015-10-24T09:00:07.524Z</time>
      </trkpt>
      <trkpt lat="43.6733" lon="5.9562">
        <ele>567</ele>
        <time>2015-10-24T09:00:10.550Z</time>
      </trkpt>
      <trkpt lat="43.67332" lon="5.95617">
        <ele>566</ele>
        <time>2015-10-24T09:00:11.527Z</time>
      </trkpt>
      <trkpt lat="43.67336" lon="5.95611">
        <ele>566</ele>
        <time>2015-10-24T09:00:13.550Z</time>
      </trkpt>
      <trkpt lat="43.67338" lon="5.95607">
        <ele>566</ele>
        <time>2015-10-24T09:00:14.537Z</time>
      </trkpt>
      <trkpt lat="43.67343" lon="5.956">
        <ele>565</ele>
        <time>2015-10-24T09:00:16.551Z</time>
      </trkpt>
      <trkpt lat="43.67345" lon="5.95597">
        <ele>565</ele>
        <time>2015-10-24T09:00:17.552Z</time>
      </trkpt>
      <trkpt lat="43.67351" lon="5.95591">
        <ele>565</ele>
        <time>2015-10-24T09:00:19.552Z</time>
      </trkpt>
      <trkpt lat="43.67353" lon="5.95588">
        <ele>566</ele>
        <time>2015-10-24T09:00:20.527Z</time>
      </trkpt>
      <trkpt lat="43.6736" lon="5.95581">
        <ele>566</ele>
        <time>2015-10-24T09:00:22.556Z</time>
      </trkpt>
      <trkpt lat="43.67363" lon="5.95577">
        <ele>565</ele>
        <time>2015-10-24T09:00:23.528Z</time>
      </trkpt>
      <trkpt lat="43.67368" lon="5.9557">
        <ele>566</ele>
        <time>2015-10-24T09:00:25.588Z</time>
      </trkpt>
      <trkpt lat="43.6737" lon="5.95566">
        <ele>566</ele>
        <time>2015-10-24T09:00:26.530Z</time>
      </trkpt>
      <trkpt lat="43.67375" lon="5.9556">
        <ele>566</ele>
        <time>2015-10-24T09:00:28.633Z</time>
      </trkpt>
      <trkpt lat="43.67378" lon="5.95558">
        <ele>566</ele>
        <time>2015-10-24T09:00:29.532Z</time>
      </trkpt>
      <trkpt lat="43.67384" lon="5.95553">
        <ele>566</ele>
        <time>2015-10-24T09:00:31.556Z</time>
      </trkpt>
      <trkpt lat="43.67387" lon="5.9555">
        <ele>566</ele>
        <time>2015-10-24T09:00:32.537Z</time>
      </trkpt>
      <trkpt lat="43.67393" lon="5.95544">
        <ele>566</ele>
        <time>2015-10-24T09:00:34.558Z</time>
      </trkpt>
      <trkpt lat="43.67395" lon="5.95541">
        <ele>566</ele>
        <time>2015-10-24T09:00:35.539Z</time>
      </trkpt>
      <trkpt lat="43.67401" lon="5.95536">
        <ele>565</ele>
        <time>2015-10-24T09:00:37.555Z</time>
      </trkpt>
      <trkpt lat="43.67403" lon="5.95534">
        <ele>565</ele>
        <time>2015-10-24T09:00:38.531Z</time>
      </trkpt>
      <trkpt lat="43.67409" lon="5.95529">
        <ele>566</ele>
        <time>2015-10-24T09:00:40.607Z</time>
      </trkpt>
      <trkpt lat="43.67412" lon="5.95526">
        <ele>565</ele>
        <time>2015-10-24T09:00:41.529Z</time>
      </trkpt>
      <trkpt lat="43.67419" lon="5.95519">
        <ele>565</ele>
        <time>2015-10-24T09:00:43.552Z</time>
      </trkpt>
      <trkpt lat="43.67422" lon="5.95516">
        <ele>565</ele>
        <time>2015-10-24T09:00:44.556Z</time>
      </trkpt>
      <trkpt lat="43.67427" lon="5.95508">
        <ele>565</ele>
        <time>2015-10-24T09:00:46.554Z</time>
      </trkpt>
      <trkpt lat="43.6743" lon="5.95504">
        <ele>564</ele>
        <time>2015-10-24T09:00:47.529Z</time>
      </trkpt>
      <trkpt lat="43.67435" lon="5.95495">
        <ele>565</ele>
        <time>2015-10-24T09:00:49.554Z</time>
      </trkpt>
      <trkpt lat="43.67436" lon="5.9549">
        <ele>565</ele>
        <time>2015-10-24T09:00:50.524Z</time>
      </trkpt>
      <trkpt lat="43.67438" lon="5.95481">
        <ele>565</ele>
        <time>2015-10-24T09:00:52.552Z</time>
      </trkpt>
      <trkpt lat="43.67439" lon="5.95476">
        <ele>565</ele>
        <time>2015-10-24T09:00:53.529Z</time>
      </trkpt>
      <trkpt lat="43.67445" lon="5.95468">
        <ele>565</ele>
        <time>2015-10-24T09:00:56.551Z</time>
      </trkpt>
      <trkpt lat="43.67449" lon="5.95468">
        <ele>565</ele>
        <time>2015-10-24T09:00:57.530Z</time>
      </trkpt>
      <trkpt lat="43.67457" lon="5.95467">
        <ele>564</ele>
        <time>2015-10-24T09:00:59.553Z</time>
      </trkpt>
      <trkpt lat="43.6746" lon="5.95466">
        <ele>564</ele>
        <time>2015-10-24T09:01:00.528Z</time>
      </trkpt>
      <trkpt lat="43.67468" lon="5.95462">
        <ele>562</ele>
        <time>2015-10-24T09:01:02.560Z</time>
      </trkpt>
      <trkpt lat="43.67471" lon="5.9546">
        <ele>562</ele>
        <time>2015-10-24T09:01:03.529Z</time>
      </trkpt>
      <trkpt lat="43.67478" lon="5.95455">
        <ele>561</ele>
        <time>2015-10-24T09:01:05.553Z</time>
      </trkpt>
      <trkpt lat="43.67481" lon="5.95451">
        <ele>561</ele>
        <time>2015-10-24T09:01:06.557Z</time>
      </trkpt>
      <trkpt lat="43.67485" lon="5.95442">
        <ele>562</ele>
        <time>2015-10-24T09:01:08.553Z</time>
      </trkpt>
      <trkpt lat="43.67488" lon="5.95436">
        <ele>562</ele>
        <time>2015-10-24T09:01:09.529Z</time>
      </trkpt>
      <trkpt lat="43.67493" lon="5.95427">
        <ele>561</ele>
        <time>2015-10-24T09:01:11.598Z</time>
      </trkpt>
      <trkpt lat="43.67496" lon="5.95422">
        <ele>561</ele>
        <time>2015-10-24T09:01:12.537Z</time>
      </trkpt>
      <trkpt lat="43.67498" lon="5.95417">
        <ele>561</ele>
        <time>2015-10-24T09:01:13.550Z</time>
      </trkpt>
      <trkpt lat="43.67503" lon="5.9541">
        <ele>561</ele>
        <time>2015-10-24T09:01:14.538Z</time>
      </trkpt>
      <trkpt lat="43.67506" lon="5.95404">
        <ele>561</ele>
        <time>2015-10-24T09:01:15.561Z</time>
      </trkpt>
      <trkpt lat="43.67509" lon="5.95398">
        <ele>560</ele>
        <time>2015-10-24T09:01:16.529Z</time>
      </trkpt>
      <trkpt lat="43.67512" lon="5.95393">
        <ele>560</ele>
        <time>2015-10-24T09:01:17.554Z</time>
      </trkpt>
      <trkpt lat="43.67515" lon="5.95387">
        <ele>560</ele>
        <time>2015-10-24T09:01:18.538Z</time>
      </trkpt>
      <trkpt lat="43.6752" lon="5.95378">
        <ele>560</ele>
        <time>2015-10-24T09:01:20.552Z</time>
      </trkpt>
      <trkpt lat="43.67523" lon="5.95373">
        <ele>559</ele>
        <time>2015-10-24T09:01:21.537Z</time>
      </trkpt>
      <trkpt lat="43.67526" lon="5.95367">
        <ele>560</ele>
        <time>2015-10-24T09:01:22.567Z</time>
      </trkpt>
      <trkpt lat="43.67529" lon="5.95362">
        <ele>559</ele>
        <time>2015-10-24T09:01:23.531Z</time>
      </trkpt>
      <trkpt lat="43.67532" lon="5.95356">
        <ele>559</ele>
        <time>2015-10-24T09:01:24.553Z</time>
      </trkpt>
      <trkpt lat="43.67535" lon="5.9535">
        <ele>558</ele>
        <time>2015-10-24T09:01:25.533Z</time>
      </trkpt>
      <trkpt lat="43.67539" lon="5.95347">
        <ele>559</ele>
        <time>2015-10-24T09:01:26.552Z</time>
      </trkpt>
      <trkpt lat="43.67543" lon="5.95342">
        <ele>558</ele>
        <time>2015-10-24T09:01:27.537Z</time>
      </trkpt>
      <trkpt lat="43.67546" lon="5.95336">
        <ele>559</ele>
        <time>2015-10-24T09:01:28.551Z</time>
      </trkpt>
      <trkpt lat="43.67549" lon="5.9533">
        <ele>559</ele>
        <time>2015-10-24T09:01:29.529Z</time>
      </trkpt>
      <trkpt lat="43.67553" lon="5.95324">
        <ele>559</ele>
        <time>2015-10-24T09:01:30.551Z</time>
      </trkpt>
      <trkpt lat="43.67555" lon="5.95319">
        <ele>558</ele>
        <time>2015-10-24T09:01:31.529Z</time>
      </trkpt>
      <trkpt lat="43.67559" lon="5.95314">
        <ele>558</ele>
        <time>2015-10-24T09:01:32.781Z</time>
      </trkpt>
      <trkpt lat="43.67562" lon="5.95308">
        <ele>558</ele>
        <time>2015-10-24T09:01:33.526Z</time>
      </trkpt>
      <trkpt lat="43.67566" lon="5.95303">
        <ele>558</ele>
        <time>2015-10-24T09:01:34.552Z</time>
      </trkpt>
      <trkpt lat="43.6757" lon="5.95297">
        <ele>557</ele>
        <time>2015-10-24T09:01:35.536Z</time>
      </trkpt>
      <trkpt lat="43.67573" lon="5.95292">
        <ele>557</ele>
        <time>2015-10-24T09:01:36.552Z</time>
      </trkpt>
      <trkpt lat="43.67576" lon="5.95287">
        <ele>556</ele>
        <time>2015-10-24T09:01:37.527Z</time>
      </trkpt>
      <trkpt lat="43.6758" lon="5.95281">
        <ele>557</ele>
        <time>2015-10-24T09:01:38.592Z</time>
      </trkpt>
      <trkpt lat="43.67582" lon="5.95276">
        <ele>556</ele>
        <time>2015-10-24T09:01:39.528Z</time>
      </trkpt>
      <trkpt lat="43.67586" lon="5.95271">
        <ele>556</ele>
        <time>2015-10-24T09:01:40.553Z</time>
      </trkpt>
      <trkpt lat="43.67589" lon="5.95265">
        <ele>557</ele>
        <time>2015-10-24T09:01:41.527Z</time>
      </trkpt>
      <trkpt lat="43.67595" lon="5.95256">
        <ele>557</ele>
        <time>2015-10-24T09:01:43.577Z</time>
      </trkpt>
      <trkpt lat="43.67597" lon="5.95251">
        <ele>557</ele>
        <time>2015-10-24T09:01:44.538Z</time>
      </trkpt>
      <trkpt lat="43.67602" lon="5.95241">
        <ele>557</ele>
        <time>2015-10-24T09:01:46.551Z</time>
      </trkpt>
      <trkpt lat="43.67605" lon="5.95237">
        <ele>558</ele>
        <time>2015-10-24T09:01:47.528Z</time>
      </trkpt>
      <trkpt lat="43.67609" lon="5.95227">
        <ele>557</ele>
        <time>2015-10-24T09:01:49.551Z</time>
      </trkpt>
      <trkpt lat="43.6761" lon="5.95223">
        <ele>558</ele>
        <time>2015-10-24T09:01:50.529Z</time>
      </trkpt>
      <trkpt lat="43.67615" lon="5.95212">
        <ele>558</ele>
        <time>2015-10-24T09:01:52.551Z</time>
      </trkpt>
      <trkpt lat="43.67617" lon="5.95208">
        <ele>559</ele>
        <time>2015-10-24T09:01:53.529Z</time>
      </trkpt>
      <trkpt lat="43.67621" lon="5.95198">
        <ele>558</ele>
        <time>2015-10-24T09:01:55.551Z</time>
      </trkpt>
      <trkpt lat="43.67624" lon="5.95194">
        <ele>558</ele>
        <time>2015-10-24T09:01:56.530Z</time>
      </trkpt>
      <trkpt lat="43.67629" lon="5.95184">
        <ele>559</ele>
        <time>2015-10-24T09:01:58.551Z</time>
      </trkpt>
      <trkpt lat="43.67631" lon="5.95179">
        <ele>559</ele>
        <time>2015-10-24T09:01:59.528Z</time>
      </trkpt>
      <trkpt lat="43.67636" lon="5.95169">
        <ele>558</ele>
        <time>2015-10-24T09:02:01.551Z</time>
      </trkpt>
      <trkpt lat="43.67639" lon="5.95164">
        <ele>559</ele>
        <time>2015-10-24T09:02:02.528Z</time>
      </trkpt>
      <trkpt lat="43.67644" lon="5.95155">
        <ele>559</ele>
        <time>2015-10-24T09:02:04.554Z</time>
      </trkpt>
      <trkpt lat="43.67647" lon="5.95151">
        <ele>559</ele>
        <time>2015-10-24T09:02:05.535Z</time>
      </trkpt>
      <trkpt lat="43.67652" lon="5.95144">
        <ele>558</ele>
        <time>2015-10-24T09:02:07.551Z</time>
      </trkpt>
      <trkpt lat="43.67654" lon="5.9514">
        <ele>559</ele>
        <time>2015-10-24T09:02:08.528Z</time>
      </trkpt>
      <trkpt lat="43.67658" lon="5.95132">
        <ele>559</ele>
        <time>2015-10-24T09:02:10.577Z</time>
      </trkpt>
      <trkpt lat="43.67661" lon="5.95129">
        <ele>559</ele>
        <time>2015-10-24T09:02:11.528Z</time>
      </trkpt>
      <trkpt lat="43.67665" lon="5.9512">
        <ele>560</ele>
        <time>2015-10-24T09:02:13.552Z</time>
      </trkpt>
      <trkpt lat="43.67667" lon="5.95117">
        <ele>560</ele>
        <time>2015-10-24T09:02:14.530Z</time>
      </trkpt>
      <trkpt lat="43.67672" lon="5.95108">
        <ele>560</ele>
        <time>2015-10-24T09:02:16.552Z</time>
      </trkpt>
      <trkpt lat="43.67674" lon="5.95105">
        <ele>560</ele>
        <time>2015-10-24T09:02:17.528Z</time>
      </trkpt>
      <trkpt lat="43.67678" lon="5.95096">
        <ele>559</ele>
        <time>2015-10-24T09:02:19.553Z</time>
      </trkpt>
      <trkpt lat="43.6768" lon="5.95092">
        <ele>558</ele>
        <time>2015-10-24T09:02:20.529Z</time>
      </trkpt>
      <trkpt lat="43.67685" lon="5.95084">
        <ele>559</ele>
        <time>2015-10-24T09:02:22.559Z</time>
      </trkpt>
      <trkpt lat="43.67687" lon="5.95079">
        <ele>560</ele>
        <time>2015-10-24T09:02:23.528Z</time>
      </trkpt>
      <trkpt lat="43.67692" lon="5.95071">
        <ele>560</ele>
        <time>2015-10-24T09:02:25.570Z</time>
      </trkpt>
      <trkpt lat="43.67694" lon="5.95066">
        <ele>560</ele>
        <time>2015-10-24T09:02:26.531Z</time>
      </trkpt>
      <trkpt lat="43.67698" lon="5.95057">
        <ele>560</ele>
        <time>2015-10-24T09:02:28.565Z</time>
      </trkpt>
      <trkpt lat="43.677" lon="5.95051">
        <ele>560</ele>
        <time>2015-10-24T09:02:29.528Z</time>
      </trkpt>
      <trkpt lat="43.67704" lon="5.95042">
        <ele>562</ele>
        <time>2015-10-24T09:02:31.553Z</time>
      </trkpt>
      <trkpt lat="43.67705" lon="5.95037">
        <ele>562</ele>
        <time>2015-10-24T09:02:32.555Z</time>
      </trkpt>
      <trkpt lat="43.67708" lon="5.95027">
        <ele>561</ele>
        <time>2015-10-24T09:02:34.554Z</time>
      </trkpt>
      <trkpt lat="43.67709" lon="5.95023">
        <ele>560</ele>
        <time>2015-10-24T09:02:35.528Z</time>
      </trkpt>
      <trkpt lat="43.67712" lon="5.95014">
        <ele>560</ele>
        <time>2015-10-24T09:02:37.551Z</time>
      </trkpt>
      <trkpt lat="43.67714" lon="5.9501">
        <ele>561</ele>
        <time>2015-10-24T09:02:38.529Z</time>
      </trkpt>
      <trkpt lat="43.67716" lon="5.95">
        <ele>561</ele>
        <time>2015-10-24T09:02:40.551Z</time>
      </trkpt>
      <trkpt lat="43.67717" lon="5.94995">
        <ele>561</ele>
        <time>2015-10-24T09:02:41.528Z</time>
      </trkpt>
      <trkpt lat="43.67715" lon="5.94985">
        <ele>562</ele>
        <time>2015-10-24T09:02:43.574Z</time>
      </trkpt>
      <trkpt lat="43.67714" lon="5.94981">
        <ele>561</ele>
        <time>2015-10-24T09:02:44.529Z</time>
      </trkpt>
      <trkpt lat="43.6771" lon="5.94973">
        <ele>563</ele>
        <time>2015-10-24T09:02:46.553Z</time>
      </trkpt>
      <trkpt lat="43.67708" lon="5.94968">
        <ele>563</ele>
        <time>2015-10-24T09:02:47.528Z</time>
      </trkpt>
      <trkpt lat="43.67704" lon="5.9496">
        <ele>564</ele>
        <time>2015-10-24T09:02:49.561Z</time>
      </trkpt>
      <trkpt lat="43.67703" lon="5.94956">
        <ele>564</ele>
        <time>2015-10-24T09:02:50.530Z</time>
      </trkpt>
      <trkpt lat="43.67701" lon="5.94948">
        <ele>564</ele>
        <time>2015-10-24T09:02:52.552Z</time>
      </trkpt>
      <trkpt lat="43.67701" lon="5.94943">
        <ele>564</ele>
        <time>2015-10-24T09:02:53.529Z</time>
      </trkpt>
      <trkpt lat="43.67701" lon="5.94934">
        <ele>563</ele>
        <time>2015-10-24T09:02:55.552Z</time>
      </trkpt>
      <trkpt lat="43.67701" lon="5.9493">
        <ele>563</ele>
        <time>2015-10-24T09:02:56.529Z</time>
      </trkpt>
      <trkpt lat="43.67701" lon="5.94921">
        <ele>564</ele>
        <time>2015-10-24T09:02:58.552Z</time>
      </trkpt>
      <trkpt lat="43.67701" lon="5.94917">
        <ele>566</ele>
        <time>2015-10-24T09:02:59.529Z</time>
      </trkpt>
      <trkpt lat="43.67701" lon="5.94908">
        <ele>565</ele>
        <time>2015-10-24T09:03:01.553Z</time>
      </trkpt>
      <trkpt lat="43.67702" lon="5.94903">
        <ele>565</ele>
        <time>2015-10-24T09:03:02.532Z</time>
      </trkpt>
      <trkpt lat="43.67702" lon="5.94894">
        <ele>566</ele>
        <time>2015-10-24T09:03:04.552Z</time>
      </trkpt>
      <trkpt lat="43.67702" lon="5.94889">
        <ele>566</ele>
        <time>2015-10-24T09:03:05.533Z</time>
      </trkpt>
      <trkpt lat="43.67702" lon="5.9488">
        <ele>566</ele>
        <time>2015-10-24T09:03:07.550Z</time>
      </trkpt>
      <trkpt lat="43.67703" lon="5.94875">
        <ele>565</ele>
        <time>2015-10-24T09:03:08.537Z</time>
      </trkpt>
      <trkpt lat="43.67704" lon="5.94866">
        <ele>566</ele>
        <time>2015-10-24T09:03:10.579Z</time>
      </trkpt>
      <trkpt lat="43.67704" lon="5.94861">
        <ele>566</ele>
        <time>2015-10-24T09:03:11.528Z</time>
      </trkpt>
      <trkpt lat="43.67706" lon="5.94851">
        <ele>567</ele>
        <time>2015-10-24T09:03:13.555Z</time>
      </trkpt>
      <trkpt lat="43.67706" lon="5.94847">
        <ele>566</ele>
        <time>2015-10-24T09:03:14.529Z</time>
      </trkpt>
      <trkpt lat="43.67707" lon="5.94838">
        <ele>567</ele>
        <time>2015-10-24T09:03:16.552Z</time>
      </trkpt>
      <trkpt lat="43.67708" lon="5.94833">
        <ele>568</ele>
        <time>2015-10-24T09:03:17.528Z</time>
      </trkpt>
      <trkpt lat="43.67711" lon="5.94823">
        <ele>568</ele>
        <time>2015-10-24T09:03:21.643Z</time>
      </trkpt>
      <trkpt lat="43.67711" lon="5.9482">
        <ele>568</ele>
        <time>2015-10-24T09:03:22.529Z</time>
      </trkpt>
      <trkpt lat="43.67714" lon="5.94811">
        <ele>567</ele>
        <time>2015-10-24T09:04:10.578Z</time>
      </trkpt>
      <trkpt lat="43.67716" lon="5.94808">
        <ele>567</ele>
        <time>2015-10-24T09:04:11.529Z</time>
      </trkpt>
      <trkpt lat="43.67719" lon="5.94805">
        <ele>566</ele>
        <time>2015-10-24T09:04:12.553Z</time>
      </trkpt>
      <trkpt lat="43.67724" lon="5.948">
        <ele>565</ele>
        <time>2015-10-24T09:04:13.529Z</time>
      </trkpt>
      <trkpt lat="43.67731" lon="5.94796">
        <ele>564</ele>
        <time>2015-10-24T09:04:14.553Z</time>
      </trkpt>
      <trkpt lat="43.67737" lon="5.94792">
        <ele>563</ele>
        <time>2015-10-24T09:04:15.529Z</time>
      </trkpt>
      <trkpt lat="43.67744" lon="5.94788">
        <ele>562</ele>
        <time>2015-10-24T09:04:16.562Z</time>
      </trkpt>
      <trkpt lat="43.67752" lon="5.94788">
        <ele>562</ele>
        <time>2015-10-24T09:04:17.529Z</time>
      </trkpt>
      <trkpt lat="43.67759" lon="5.94787">
        <ele>562</ele>
        <time>2015-10-24T09:04:18.553Z</time>
      </trkpt>
      <trkpt lat="43.67765" lon="5.94786">
        <ele>561</ele>
        <time>2015-10-24T09:04:19.530Z</time>
      </trkpt>
      <trkpt lat="43.67771" lon="5.94786">
        <ele>561</ele>
        <time>2015-10-24T09:04:20.553Z</time>
      </trkpt>
      <trkpt lat="43.67778" lon="5.94786">
        <ele>560</ele>
        <time>2015-10-24T09:04:21.552Z</time>
      </trkpt>
      <trkpt lat="43.67783" lon="5.94787">
        <ele>560</ele>
        <time>2015-10-24T09:04:22.552Z</time>
      </trkpt>
      <trkpt lat="43.6779" lon="5.94786">
        <ele>560</ele>
        <time>2015-10-24T09:04:23.529Z</time>
      </trkpt>
      <trkpt lat="43.67797" lon="5.94784">
        <ele>559</ele>
        <time>2015-10-24T09:04:24.561Z</time>
      </trkpt>
      <trkpt lat="43.67803" lon="5.9478">
        <ele>557</ele>
        <time>2015-10-24T09:04:25.528Z</time>
      </trkpt>
      <trkpt lat="43.67812" lon="5.94777">
        <ele>557</ele>
        <time>2015-10-24T09:04:26.552Z</time>
      </trkpt>
      <trkpt lat="43.6782" lon="5.94774">
        <ele>556</ele>
        <time>2015-10-24T09:04:27.529Z</time>
      </trkpt>
      <trkpt lat="43.67827" lon="5.94773">
        <ele>556</ele>
        <time>2015-10-24T09:04:28.632Z</time>
      </trkpt>
      <trkpt lat="43.67836" lon="5.94771">
        <ele>556</ele>
        <time>2015-10-24T09:04:29.527Z</time>
      </trkpt>
      <trkpt lat="43.67844" lon="5.94768">
        <ele>555</ele>
        <time>2015-10-24T09:04:30.550Z</time>
      </trkpt>
      <trkpt lat="43.67853" lon="5.94762">
        <ele>554</ele>
        <time>2015-10-24T09:04:31.529Z</time>
      </trkpt>
      <trkpt lat="43.67853" lon="5.94762">
        <ele>554</ele>
        <time>2015-10-24T09:04:31.555Z</time>
      </trkpt>
      <trkpt lat="43.67862" lon="5.94755">
        <ele>554</ele>
        <time>2015-10-24T09:04:32.552Z</time>
      </trkpt>
      <trkpt lat="43.67862" lon="5.94755">
        <ele>554</ele>
        <time>2015-10-24T09:04:32.578Z</time>
      </trkpt>
      <trkpt lat="43.67871" lon="5.94749">
        <ele>552</ele>
        <time>2015-10-24T09:04:33.530Z</time>
      </trkpt>
      <trkpt lat="43.67871" lon="5.94749">
        <ele>552</ele>
        <time>2015-10-24T09:04:33.565Z</time>
      </trkpt>
      <trkpt lat="43.67879" lon="5.94739">
        <ele>552</ele>
        <time>2015-10-24T09:04:34.529Z</time>
      </trkpt>
      <trkpt lat="43.67879" lon="5.94739">
        <ele>552</ele>
        <time>2015-10-24T09:04:34.557Z</time>
      </trkpt>
      <trkpt lat="43.67887" lon="5.9473">
        <ele>551</ele>
        <time>2015-10-24T09:04:35.528Z</time>
      </trkpt>
      <trkpt lat="43.67887" lon="5.9473">
        <ele>551</ele>
        <time>2015-10-24T09:04:35.545Z</time>
      </trkpt>
      <trkpt lat="43.67894" lon="5.9472">
        <ele>550</ele>
        <time>2015-10-24T09:04:36.529Z</time>
      </trkpt>
      <trkpt lat="43.67894" lon="5.9472">
        <ele>550</ele>
        <time>2015-10-24T09:04:36.557Z</time>
      </trkpt>
      <trkpt lat="43.67903" lon="5.94709">
        <ele>549</ele>
        <time>2015-10-24T09:04:37.530Z</time>
      </trkpt>
      <trkpt lat="43.67903" lon="5.94709">
        <ele>549</ele>
        <time>2015-10-24T09:04:37.557Z</time>
      </trkpt>
      <trkpt lat="43.67908" lon="5.94698">
        <ele>549</ele>
        <time>2015-10-24T09:04:38.529Z</time>
      </trkpt>
      <trkpt lat="43.67908" lon="5.94698">
        <ele>549</ele>
        <time>2015-10-24T09:04:38.558Z</time>
      </trkpt>
      <trkpt lat="43.67913" lon="5.94687">
        <ele>549</ele>
        <time>2015-10-24T09:04:39.741Z</time>
      </trkpt>
      <trkpt lat="43.67913" lon="5.94687">
        <ele>549</ele>
        <time>2015-10-24T09:04:39.763Z</time>
      </trkpt>
      <trkpt lat="43.67923" lon="5.94678">
        <ele>551</ele>
        <time>2015-10-24T09:04:40.529Z</time>
      </trkpt>
      <trkpt lat="43.67922" lon="5.94667">
        <ele>547</ele>
        <time>2015-10-24T09:04:42.552Z</time>
      </trkpt>
      <trkpt lat="43.67923" lon="5.94663">
        <ele>547</ele>
        <time>2015-10-24T09:04:43.554Z</time>
      </trkpt>
      <trkpt lat="43.67921" lon="5.94652">
        <ele>547</ele>
        <time>2015-10-24T09:04:45.551Z</time>
      </trkpt>
      <trkpt lat="43.67921" lon="5.94648">
        <ele>547</ele>
        <time>2015-10-24T09:04:46.528Z</time>
      </trkpt>
      <trkpt lat="43.67915" lon="5.94642">
        <ele>542</ele>
        <time>2015-10-24T09:06:19.182Z</time>
      </trkpt>
      <trkpt lat="43.67898" lon="5.94686">
        <ele>542</ele>
        <time>2015-10-24T09:18:25.803Z</time>
      </trkpt>
      <trkpt lat="43.67898" lon="5.94686">
        <ele>542</ele>
        <time>2015-10-24T09:18:29.649Z</time>
      </trkpt>
      <trkpt lat="43.67901" lon="5.94665">
        <ele>544</ele>
        <time>2015-10-24T09:18:30.527Z</time>
      </trkpt>
      <trkpt lat="43.67909" lon="5.94661">
        <ele>544</ele>
        <time>2015-10-24T09:18:38.599Z</time>
      </trkpt>
      <trkpt lat="43.6791" lon="5.94662">
        <ele>543</ele>
        <time>2015-10-24T09:18:39.531Z</time>
      </trkpt>
      <trkpt lat="43.6791" lon="5.94662">
        <ele>543</ele>
        <time>2015-10-24T09:18:40.601Z</time>
      </trkpt>
      <trkpt lat="43.67922" lon="5.94658">
        <ele>542</ele>
        <time>2015-10-24T09:18:41.536Z</time>
      </trkpt>
      <trkpt lat="43.67918" lon="5.94666">
        <ele>542</ele>
        <time>2015-10-24T09:19:14.556Z</time>
      </trkpt>
      <trkpt lat="43.67916" lon="5.94669">
        <ele>542</ele>
        <time>2015-10-24T09:19:15.530Z</time>
      </trkpt>
      <trkpt lat="43.67911" lon="5.94679">
        <ele>542</ele>
        <time>2015-10-24T09:19:18.583Z</time>
      </trkpt>
      <trkpt lat="43.6791" lon="5.94682">
        <ele>542</ele>
        <time>2015-10-24T09:19:19.534Z</time>
      </trkpt>
      <trkpt lat="43.67905" lon="5.94692">
        <ele>543</ele>
        <time>2015-10-24T09:19:22.559Z</time>
      </trkpt>
      <trkpt lat="43.67904" lon="5.94695">
        <ele>545</ele>
        <time>2015-10-24T09:19:23.547Z</time>
      </trkpt>
      <trkpt lat="43.67899" lon="5.94704">
        <ele>545</ele>
        <time>2015-10-24T09:19:26.559Z</time>
      </trkpt>
      <trkpt lat="43.67897" lon="5.94707">
        <ele>545</ele>
        <time>2015-10-24T09:19:27.535Z</time>
      </trkpt>
      <trkpt lat="43.67892" lon="5.94716">
        <ele>546</ele>
        <time>2015-10-24T09:19:30.571Z</time>
      </trkpt>
      <trkpt lat="43.6789" lon="5.94719">
        <ele>546</ele>
        <time>2015-10-24T09:19:31.535Z</time>
      </trkpt>
      <trkpt lat="43.67885" lon="5.94728">
        <ele>546</ele>
        <time>2015-10-24T09:19:34.560Z</time>
      </trkpt>
      <trkpt lat="43.67883" lon="5.94731">
        <ele>546</ele>
        <time>2015-10-24T09:19:35.543Z</time>
      </trkpt>
      <trkpt lat="43.67876" lon="5.94738">
        <ele>546</ele>
        <time>2015-10-24T09:19:38.557Z</time>
      </trkpt>
      <trkpt lat="43.67874" lon="5.9474">
        <ele>545</ele>
        <time>2015-10-24T09:19:39.534Z</time>
      </trkpt>
      <trkpt lat="43.67872" lon="5.94752">
        <ele>547</ele>
        <time>2015-10-24T09:19:44.557Z</time>
      </trkpt>
      <trkpt lat="43.67874" lon="5.94753">
        <ele>546</ele>
        <time>2015-10-24T09:19:45.560Z</time>
      </trkpt>
      <trkpt lat="43.6788" lon="5.9475">
        <ele>546</ele>
        <time>2015-10-24T09:19:47.559Z</time>
      </trkpt>
      <trkpt lat="43.67884" lon="5.94746">
        <ele>546</ele>
        <time>2015-10-24T09:19:48.535Z</time>
      </trkpt>
      <trkpt lat="43.67888" lon="5.94743">
        <ele>546</ele>
        <time>2015-10-24T09:19:49.558Z</time>
      </trkpt>
      <trkpt lat="43.67893" lon="5.9474">
        <ele>546</ele>
        <time>2015-10-24T09:19:50.535Z</time>
      </trkpt>
      <trkpt lat="43.67899" lon="5.94735">
        <ele>546</ele>
        <time>2015-10-24T09:19:51.579Z</time>
      </trkpt>
      <trkpt lat="43.67904" lon="5.94731">
        <ele>545</ele>
        <time>2015-10-24T09:19:52.530Z</time>
      </trkpt>
      <trkpt lat="43.67909" lon="5.94728">
        <ele>545</ele>
        <time>2015-10-24T09:19:53.558Z</time>
      </trkpt>
      <trkpt lat="43.67915" lon="5.94725">
        <ele>544</ele>
        <time>2015-10-24T09:19:54.534Z</time>
      </trkpt>
      <trkpt lat="43.6792" lon="5.94721">
        <ele>544</ele>
        <time>2015-10-24T09:19:55.559Z</time>
      </trkpt>
      <trkpt lat="43.67925" lon="5.94717">
        <ele>544</ele>
        <time>2015-10-24T09:19:56.561Z</time>
      </trkpt>
      <trkpt lat="43.67931" lon="5.94714">
        <ele>543</ele>
        <time>2015-10-24T09:19:57.558Z</time>
      </trkpt>
      <trkpt lat="43.67937" lon="5.94711">
        <ele>543</ele>
        <time>2015-10-24T09:19:58.534Z</time>
      </trkpt>
      <trkpt lat="43.67942" lon="5.94707">
        <ele>543</ele>
        <time>2015-10-24T09:19:59.559Z</time>
      </trkpt>
      <trkpt lat="43.67946" lon="5.94704">
        <ele>543</ele>
        <time>2015-10-24T09:20:00.536Z</time>
      </trkpt>
      <trkpt lat="43.67953" lon="5.94702">
        <ele>542</ele>
        <time>2015-10-24T09:20:02.557Z</time>
      </trkpt>
      <trkpt lat="43.67956" lon="5.94703">
        <ele>542</ele>
        <time>2015-10-24T09:20:03.529Z</time>
      </trkpt>
      <trkpt lat="43.67963" lon="5.94703">
        <ele>543</ele>
        <time>2015-10-24T09:20:05.558Z</time>
      </trkpt>
      <trkpt lat="43.67966" lon="5.94702">
        <ele>544</ele>
        <time>2015-10-24T09:20:06.536Z</time>
      </trkpt>
      <trkpt lat="43.67973" lon="5.94698">
        <ele>544</ele>
        <time>2015-10-24T09:20:08.558Z</time>
      </trkpt>
      <trkpt lat="43.67977" lon="5.94696">
        <ele>544</ele>
        <time>2015-10-24T09:20:09.534Z</time>
      </trkpt>
      <trkpt lat="43.67984" lon="5.94692">
        <ele>543</ele>
        <time>2015-10-24T09:20:11.567Z</time>
      </trkpt>
      <trkpt lat="43.67987" lon="5.9469">
        <ele>543</ele>
        <time>2015-10-24T09:20:12.560Z</time>
      </trkpt>
      <trkpt lat="43.67995" lon="5.94686">
        <ele>543</ele>
        <time>2015-10-24T09:20:14.559Z</time>
      </trkpt>
      <trkpt lat="43.67999" lon="5.94684">
        <ele>542</ele>
        <time>2015-10-24T09:20:15.536Z</time>
      </trkpt>
      <trkpt lat="43.68007" lon="5.9468">
        <ele>542</ele>
        <time>2015-10-24T09:20:17.561Z</time>
      </trkpt>
      <trkpt lat="43.68011" lon="5.94678">
        <ele>542</ele>
        <time>2015-10-24T09:20:18.540Z</time>
      </trkpt>
      <trkpt lat="43.68016" lon="5.94675">
        <ele>542</ele>
        <time>2015-10-24T09:20:19.560Z</time>
      </trkpt>
      <trkpt lat="43.6802" lon="5.94674">
        <ele>542</ele>
        <time>2015-10-24T09:20:20.536Z</time>
      </trkpt>
      <trkpt lat="43.68028" lon="5.94671">
        <ele>542</ele>
        <time>2015-10-24T09:20:22.558Z</time>
      </trkpt>
      <trkpt lat="43.68032" lon="5.94668">
        <ele>542</ele>
        <time>2015-10-24T09:20:23.560Z</time>
      </trkpt>
      <trkpt lat="43.68039" lon="5.94667">
        <ele>543</ele>
        <time>2015-10-24T09:20:25.563Z</time>
      </trkpt>
      <trkpt lat="43.68044" lon="5.94668">
        <ele>542</ele>
        <time>2015-10-24T09:20:26.536Z</time>
      </trkpt>
      <trkpt lat="43.6805" lon="5.94666">
        <ele>543</ele>
        <time>2015-10-24T09:20:28.560Z</time>
      </trkpt>
      <trkpt lat="43.68053" lon="5.94666">
        <ele>543</ele>
        <time>2015-10-24T09:20:29.536Z</time>
      </trkpt>
      <trkpt lat="43.6806" lon="5.94663">
        <ele>543</ele>
        <time>2015-10-24T09:20:32.557Z</time>
      </trkpt>
      <trkpt lat="43.68062" lon="5.94663">
        <ele>543</ele>
        <time>2015-10-24T09:20:33.534Z</time>
      </trkpt>
      <trkpt lat="43.68067" lon="5.94653">
        <ele>540</ele>
        <time>2015-10-24T09:20:39.589Z</time>
      </trkpt>
      <trkpt lat="43.68068" lon="5.94651">
        <ele>541</ele>
        <time>2015-10-24T09:20:40.541Z</time>
      </trkpt>
      <trkpt lat="43.68076" lon="5.94649">
        <ele>542</ele>
        <time>2015-10-24T09:20:44.558Z</time>
      </trkpt>
      <trkpt lat="43.6808" lon="5.94648">
        <ele>543</ele>
        <time>2015-10-24T09:20:45.532Z</time>
      </trkpt>
      <trkpt lat="43.68086" lon="5.94643">
        <ele>543</ele>
        <time>2015-10-24T09:20:47.558Z</time>
      </trkpt>
      <trkpt lat="43.68089" lon="5.9464">
        <ele>544</ele>
        <time>2015-10-24T09:20:48.535Z</time>
      </trkpt>
      <trkpt lat="43.68096" lon="5.94634">
        <ele>542</ele>
        <time>2015-10-24T09:20:50.585Z</time>
      </trkpt>
      <trkpt lat="43.68099" lon="5.94631">
        <ele>543</ele>
        <time>2015-10-24T09:20:51.535Z</time>
      </trkpt>
      <trkpt lat="43.68105" lon="5.94626">
        <ele>543</ele>
        <time>2015-10-24T09:20:53.557Z</time>
      </trkpt>
      <trkpt lat="43.68108" lon="5.94624">
        <ele>542</ele>
        <time>2015-10-24T09:20:54.535Z</time>
      </trkpt>
      <trkpt lat="43.68114" lon="5.9462">
        <ele>542</ele>
        <time>2015-10-24T09:20:56.557Z</time>
      </trkpt>
      <trkpt lat="43.68117" lon="5.94617">
        <ele>542</ele>
        <time>2015-10-24T09:20:57.535Z</time>
      </trkpt>
      <trkpt lat="43.68123" lon="5.94613">
        <ele>541</ele>
        <time>2015-10-24T09:20:59.557Z</time>
      </trkpt>
      <trkpt lat="43.68125" lon="5.94612">
        <ele>541</ele>
        <time>2015-10-24T09:21:00.535Z</time>
      </trkpt>
      <trkpt lat="43.68133" lon="5.94606">
        <ele>541</ele>
        <time>2015-10-24T09:21:03.557Z</time>
      </trkpt>
      <trkpt lat="43.68135" lon="5.94604">
        <ele>541</ele>
        <time>2015-10-24T09:21:04.536Z</time>
      </trkpt>
      <trkpt lat="43.68143" lon="5.94599">
        <ele>540</ele>
        <time>2015-10-24T09:21:07.558Z</time>
      </trkpt>
      <trkpt lat="43.68145" lon="5.94597">
        <ele>540</ele>
        <time>2015-10-24T09:21:08.535Z</time>
      </trkpt>
      <trkpt lat="43.68151" lon="5.9459">
        <ele>539</ele>
        <time>2015-10-24T09:21:11.559Z</time>
      </trkpt>
      <trkpt lat="43.68152" lon="5.94587">
        <ele>539</ele>
        <time>2015-10-24T09:21:12.539Z</time>
      </trkpt>
      <trkpt lat="43.68155" lon="5.94576">
        <ele>537</ele>
        <time>2015-10-24T09:21:14.558Z</time>
      </trkpt>
      <trkpt lat="43.68158" lon="5.94569">
        <ele>538</ele>
        <time>2015-10-24T09:21:15.536Z</time>
      </trkpt>
      <trkpt lat="43.68164" lon="5.94562">
        <ele>538</ele>
        <time>2015-10-24T09:21:17.561Z</time>
      </trkpt>
      <trkpt lat="43.68167" lon="5.9456">
        <ele>539</ele>
        <time>2015-10-24T09:21:18.545Z</time>
      </trkpt>
      <trkpt lat="43.68173" lon="5.94555">
        <ele>540</ele>
        <time>2015-10-24T09:21:20.558Z</time>
      </trkpt>
      <trkpt lat="43.68176" lon="5.94554">
        <ele>540</ele>
        <time>2015-10-24T09:21:21.535Z</time>
      </trkpt>
      <trkpt lat="43.68183" lon="5.94551">
        <ele>540</ele>
        <time>2015-10-24T09:21:23.565Z</time>
      </trkpt>
      <trkpt lat="43.68185" lon="5.94548">
        <ele>540</ele>
        <time>2015-10-24T09:21:24.536Z</time>
      </trkpt>
      <trkpt lat="43.68191" lon="5.94547">
        <ele>540</ele>
        <time>2015-10-24T09:21:26.634Z</time>
      </trkpt>
      <trkpt lat="43.68194" lon="5.94545">
        <ele>541</ele>
        <time>2015-10-24T09:21:27.559Z</time>
      </trkpt>
      <trkpt lat="43.68202" lon="5.9454">
        <ele>540</ele>
        <time>2015-10-24T09:21:30.560Z</time>
      </trkpt>
      <trkpt lat="43.68205" lon="5.94538">
        <ele>540</ele>
        <time>2015-10-24T09:21:31.536Z</time>
      </trkpt>
      <trkpt lat="43.68212" lon="5.94536">
        <ele>541</ele>
        <time>2015-10-24T09:21:33.595Z</time>
      </trkpt>
      <trkpt lat="43.68217" lon="5.94536">
        <ele>541</ele>
        <time>2015-10-24T09:21:34.534Z</time>
      </trkpt>
      <trkpt lat="43.68222" lon="5.94535">
        <ele>541</ele>
        <time>2015-10-24T09:21:35.636Z</time>
      </trkpt>
      <trkpt lat="43.68226" lon="5.94534">
        <ele>540</ele>
        <time>2015-10-24T09:21:36.537Z</time>
      </trkpt>
      <trkpt lat="43.68233" lon="5.94533">
        <ele>540</ele>
        <time>2015-10-24T09:21:38.560Z</time>
      </trkpt>
      <trkpt lat="43.68237" lon="5.94532">
        <ele>540</ele>
        <time>2015-10-24T09:21:39.535Z</time>
      </trkpt>
      <trkpt lat="43.68244" lon="5.94528">
        <ele>539</ele>
        <time>2015-10-24T09:21:41.558Z</time>
      </trkpt>
      <trkpt lat="43.68247" lon="5.94528">
        <ele>539</ele>
        <time>2015-10-24T09:21:42.536Z</time>
      </trkpt>
      <trkpt lat="43.68254" lon="5.94526">
        <ele>540</ele>
        <time>2015-10-24T09:21:44.586Z</time>
      </trkpt>
      <trkpt lat="43.68257" lon="5.94526">
        <ele>540</ele>
        <time>2015-10-24T09:21:45.535Z</time>
      </trkpt>
      <trkpt lat="43.68263" lon="5.94524">
        <ele>540</ele>
        <time>2015-10-24T09:21:47.559Z</time>
      </trkpt>
      <trkpt lat="43.68266" lon="5.94524">
        <ele>540</ele>
        <time>2015-10-24T09:21:48.534Z</time>
      </trkpt>
      <trkpt lat="43.68272" lon="5.94522">
        <ele>539</ele>
        <time>2015-10-24T09:21:50.558Z</time>
      </trkpt>
      <trkpt lat="43.68275" lon="5.9452">
        <ele>540</ele>
        <time>2015-10-24T09:21:51.535Z</time>
      </trkpt>
      <trkpt lat="43.68282" lon="5.94516">
        <ele>540</ele>
        <time>2015-10-24T09:21:53.558Z</time>
      </trkpt>
      <trkpt lat="43.68285" lon="5.94514">
        <ele>540</ele>
        <time>2015-10-24T09:21:54.536Z</time>
      </trkpt>
      <trkpt lat="43.68293" lon="5.94512">
        <ele>541</ele>
        <time>2015-10-24T09:21:56.618Z</time>
      </trkpt>
      <trkpt lat="43.68297" lon="5.94511">
        <ele>541</ele>
        <time>2015-10-24T09:21:57.536Z</time>
      </trkpt>
      <trkpt lat="43.68304" lon="5.9451">
        <ele>541</ele>
        <time>2015-10-24T09:21:59.576Z</time>
      </trkpt>
      <trkpt lat="43.68308" lon="5.9451">
        <ele>542</ele>
        <time>2015-10-24T09:22:00.562Z</time>
      </trkpt>
      <trkpt lat="43.68316" lon="5.94508">
        <ele>542</ele>
        <time>2015-10-24T09:22:02.559Z</time>
      </trkpt>
      <trkpt lat="43.68319" lon="5.94507">
        <ele>542</ele>
        <time>2015-10-24T09:22:03.535Z</time>
      </trkpt>
      <trkpt lat="43.68326" lon="5.94505">
        <ele>542</ele>
        <time>2015-10-24T09:22:05.561Z</time>
      </trkpt>
      <trkpt lat="43.68329" lon="5.94504">
        <ele>542</ele>
        <time>2015-10-24T09:22:06.536Z</time>
      </trkpt>
      <trkpt lat="43.68335" lon="5.94501">
        <ele>542</ele>
        <time>2015-10-24T09:22:09.567Z</time>
      </trkpt>
      <trkpt lat="43.68338" lon="5.94501">
        <ele>542</ele>
        <time>2015-10-24T09:22:10.535Z</time>
      </trkpt>
      <trkpt lat="43.68345" lon="5.94499">
        <ele>542</ele>
        <time>2015-10-24T09:22:12.558Z</time>
      </trkpt>
      <trkpt lat="43.68349" lon="5.94497">
        <ele>542</ele>
        <time>2015-10-24T09:22:13.536Z</time>
      </trkpt>
      <trkpt lat="43.68356" lon="5.94495">
        <ele>542</ele>
        <time>2015-10-24T09:22:15.561Z</time>
      </trkpt>
      <trkpt lat="43.68359" lon="5.94493">
        <ele>542</ele>
        <time>2015-10-24T09:22:16.536Z</time>
      </trkpt>
      <trkpt lat="43.68366" lon="5.94493">
        <ele>541</ele>
        <time>2015-10-24T09:24:04.655Z</time>
      </trkpt>
      <trkpt lat="43.68363" lon="5.94502">
        <ele>541</ele>
        <time>2015-10-24T09:35:28.790Z</time>
      </trkpt>
      <trkpt lat="43.68367" lon="5.94493">
        <ele>539</ele>
        <time>2015-10-24T09:35:52.562Z</time>
      </trkpt>
      <trkpt lat="43.68368" lon="5.94492">
        <ele>538</ele>
        <time>2015-10-24T09:35:53.538Z</time>
      </trkpt>
      <trkpt lat="43.68376" lon="5.94487">
        <ele>539</ele>
        <time>2015-10-24T09:35:56.562Z</time>
      </trkpt>
      <trkpt lat="43.6838" lon="5.94486">
        <ele>539</ele>
        <time>2015-10-24T09:35:57.538Z</time>
      </trkpt>
      <trkpt lat="43.68388" lon="5.94481">
        <ele>539</ele>
        <time>2015-10-24T09:35:59.557Z</time>
      </trkpt>
      <trkpt lat="43.68392" lon="5.94479">
        <ele>538</ele>
        <time>2015-10-24T09:36:00.539Z</time>
      </trkpt>
      <trkpt lat="43.68399" lon="5.94474">
        <ele>538</ele>
        <time>2015-10-24T09:36:02.561Z</time>
      </trkpt>
      <trkpt lat="43.68403" lon="5.94472">
        <ele>537</ele>
        <time>2015-10-24T09:36:03.538Z</time>
      </trkpt>
      <trkpt lat="43.6841" lon="5.94466">
        <ele>537</ele>
        <time>2015-10-24T09:36:05.562Z</time>
      </trkpt>
      <trkpt lat="43.68413" lon="5.94464">
        <ele>537</ele>
        <time>2015-10-24T09:36:06.547Z</time>
      </trkpt>
      <trkpt lat="43.68422" lon="5.94461">
        <ele>537</ele>
        <time>2015-10-24T09:36:08.561Z</time>
      </trkpt>
      <trkpt lat="43.68427" lon="5.9446">
        <ele>538</ele>
        <time>2015-10-24T09:36:09.539Z</time>
      </trkpt>
      <trkpt lat="43.68432" lon="5.9446">
        <ele>537</ele>
        <time>2015-10-24T09:36:10.588Z</time>
      </trkpt>
      <trkpt lat="43.68436" lon="5.94461">
        <ele>536</ele>
        <time>2015-10-24T09:36:11.539Z</time>
      </trkpt>
      <trkpt lat="43.68443" lon="5.94459">
        <ele>536</ele>
        <time>2015-10-24T09:36:13.561Z</time>
      </trkpt>
      <trkpt lat="43.68446" lon="5.94459">
        <ele>535</ele>
        <time>2015-10-24T09:36:14.538Z</time>
      </trkpt>
      <trkpt lat="43.68455" lon="5.94459">
        <ele>535</ele>
        <time>2015-10-24T09:36:22.565Z</time>
      </trkpt>
      <trkpt lat="43.68456" lon="5.94459">
        <ele>536</ele>
        <time>2015-10-24T09:36:23.538Z</time>
      </trkpt>
      <trkpt lat="43.68465" lon="5.9446">
        <ele>536</ele>
        <time>2015-10-24T09:36:29.563Z</time>
      </trkpt>
      <trkpt lat="43.68466" lon="5.94461">
        <ele>536</ele>
        <time>2015-10-24T09:36:30.541Z</time>
      </trkpt>
      <trkpt lat="43.68475" lon="5.94461">
        <ele>534</ele>
        <time>2015-10-24T09:36:37.595Z</time>
      </trkpt>
      <trkpt lat="43.68476" lon="5.94461">
        <ele>534</ele>
        <time>2015-10-24T09:36:38.539Z</time>
      </trkpt>
      <trkpt lat="43.68484" lon="5.94461">
        <ele>534</ele>
        <time>2015-10-24T09:36:49.565Z</time>
      </trkpt>
      <trkpt lat="43.68485" lon="5.94461">
        <ele>534</ele>
        <time>2015-10-24T09:36:50.566Z</time>
      </trkpt>
      <trkpt lat="43.68494" lon="5.94464">
        <ele>534</ele>
        <time>2015-10-24T09:36:58.562Z</time>
      </trkpt>
      <trkpt lat="43.68495" lon="5.94465">
        <ele>534</ele>
        <time>2015-10-24T09:36:59.540Z</time>
      </trkpt>
      <trkpt lat="43.68503" lon="5.94468">
        <ele>533</ele>
        <time>2015-10-24T09:37:05.562Z</time>
      </trkpt>
      <trkpt lat="43.68505" lon="5.94469">
        <ele>533</ele>
        <time>2015-10-24T09:37:06.539Z</time>
      </trkpt>
      <trkpt lat="43.68511" lon="5.94475">
        <ele>533</ele>
        <time>2015-10-24T09:37:11.564Z</time>
      </trkpt>
      <trkpt lat="43.68512" lon="5.94476">
        <ele>533</ele>
        <time>2015-10-24T09:37:12.542Z</time>
      </trkpt>
      <trkpt lat="43.6852" lon="5.94483">
        <ele>534</ele>
        <time>2015-10-24T09:37:19.563Z</time>
      </trkpt>
      <trkpt lat="43.68521" lon="5.94484">
        <ele>534</ele>
        <time>2015-10-24T09:37:20.566Z</time>
      </trkpt>
      <trkpt lat="43.68526" lon="5.94491">
        <ele>536</ele>
        <time>2015-10-24T09:37:28.561Z</time>
      </trkpt>
      <trkpt lat="43.68527" lon="5.94492">
        <ele>536</ele>
        <time>2015-10-24T09:37:29.539Z</time>
      </trkpt>
      <trkpt lat="43.68534" lon="5.94488">
        <ele>538</ele>
        <time>2015-10-24T09:38:03.562Z</time>
      </trkpt>
      <trkpt lat="43.68535" lon="5.94485">
        <ele>538</ele>
        <time>2015-10-24T09:38:04.567Z</time>
      </trkpt>
      <trkpt lat="43.68541" lon="5.94479">
        <ele>536</ele>
        <time>2015-10-24T09:38:07.570Z</time>
      </trkpt>
      <trkpt lat="43.68544" lon="5.94478">
        <ele>537</ele>
        <time>2015-10-24T09:38:08.541Z</time>
      </trkpt>
      <trkpt lat="43.6855" lon="5.94477">
        <ele>536</ele>
        <time>2015-10-24T09:38:10.633Z</time>
      </trkpt>
      <trkpt lat="43.68553" lon="5.94476">
        <ele>535</ele>
        <time>2015-10-24T09:38:11.539Z</time>
      </trkpt>
      <trkpt lat="43.68558" lon="5.94475">
        <ele>535</ele>
        <time>2015-10-24T09:38:12.555Z</time>
      </trkpt>
      <trkpt lat="43.68562" lon="5.94474">
        <ele>535</ele>
        <time>2015-10-24T09:38:13.539Z</time>
      </trkpt>
      <trkpt lat="43.6857" lon="5.94473">
        <ele>534</ele>
        <time>2015-10-24T09:38:15.589Z</time>
      </trkpt>
      <trkpt lat="43.68574" lon="5.94472">
        <ele>534</ele>
        <time>2015-10-24T09:38:16.540Z</time>
      </trkpt>
      <trkpt lat="43.68581" lon="5.94473">
        <ele>534</ele>
        <time>2015-10-24T09:38:18.564Z</time>
      </trkpt>
      <trkpt lat="43.68585" lon="5.94474">
        <ele>534</ele>
        <time>2015-10-24T09:38:19.539Z</time>
      </trkpt>
      <trkpt lat="43.68589" lon="5.94475">
        <ele>534</ele>
        <time>2015-10-24T09:38:20.561Z</time>
      </trkpt>
      <trkpt lat="43.68596" lon="5.94476">
        <ele>533</ele>
        <time>2015-10-24T09:38:21.540Z</time>
      </trkpt>
      <trkpt lat="43.68601" lon="5.94477">
        <ele>533</ele>
        <time>2015-10-24T09:38:22.778Z</time>
      </trkpt>
      <trkpt lat="43.68606" lon="5.94477">
        <ele>532</ele>
        <time>2015-10-24T09:38:23.540Z</time>
      </trkpt>
      <trkpt lat="43.68613" lon="5.94477">
        <ele>532</ele>
        <time>2015-10-24T09:38:25.563Z</time>
      </trkpt>
      <trkpt lat="43.68616" lon="5.94477">
        <ele>532</ele>
        <time>2015-10-24T09:38:26.568Z</time>
      </trkpt>
      <trkpt lat="43.68625" lon="5.94477">
        <ele>533</ele>
        <time>2015-10-24T09:38:28.564Z</time>
      </trkpt>
      <trkpt lat="43.6863" lon="5.94477">
        <ele>533</ele>
        <time>2015-10-24T09:38:29.544Z</time>
      </trkpt>
      <trkpt lat="43.68635" lon="5.94475">
        <ele>533</ele>
        <time>2015-10-24T09:38:30.564Z</time>
      </trkpt>
      <trkpt lat="43.68639" lon="5.94473">
        <ele>532</ele>
        <time>2015-10-24T09:38:31.540Z</time>
      </trkpt>
      <trkpt lat="43.68644" lon="5.94473">
        <ele>532</ele>
        <time>2015-10-24T09:38:32.563Z</time>
      </trkpt>
      <trkpt lat="43.68649" lon="5.94473">
        <ele>532</ele>
        <time>2015-10-24T09:38:33.540Z</time>
      </trkpt>
      <trkpt lat="43.68653" lon="5.94472">
        <ele>531</ele>
        <time>2015-10-24T09:38:34.573Z</time>
      </trkpt>
      <trkpt lat="43.68657" lon="5.94467">
        <ele>530</ele>
        <time>2015-10-24T09:38:35.540Z</time>
      </trkpt>
      <trkpt lat="43.68661" lon="5.94464">
        <ele>530</ele>
        <time>2015-10-24T09:38:36.561Z</time>
      </trkpt>
      <trkpt lat="43.68666" lon="5.94465">
        <ele>530</ele>
        <time>2015-10-24T09:38:37.565Z</time>
      </trkpt>
      <trkpt lat="43.68673" lon="5.94462">
        <ele>528</ele>
        <time>2015-10-24T09:38:39.569Z</time>
      </trkpt>
      <trkpt lat="43.68676" lon="5.9446">
        <ele>527</ele>
        <time>2015-10-24T09:38:40.541Z</time>
      </trkpt>
      <trkpt lat="43.68681" lon="5.94454">
        <ele>525</ele>
        <time>2015-10-24T09:38:42.564Z</time>
      </trkpt>
      <trkpt lat="43.68684" lon="5.94453">
        <ele>525</ele>
        <time>2015-10-24T09:38:43.540Z</time>
      </trkpt>
      <trkpt lat="43.68689" lon="5.94451">
        <ele>523</ele>
        <time>2015-10-24T09:38:44.564Z</time>
      </trkpt>
      <trkpt lat="43.68693" lon="5.94449">
        <ele>522</ele>
        <time>2015-10-24T09:38:45.539Z</time>
      </trkpt>
      <trkpt lat="43.68698" lon="5.94448">
        <ele>521</ele>
        <time>2015-10-24T09:38:46.562Z</time>
      </trkpt>
      <trkpt lat="43.68703" lon="5.94447">
        <ele>520</ele>
        <time>2015-10-24T09:38:47.539Z</time>
      </trkpt>
      <trkpt lat="43.68712" lon="5.94442">
        <ele>520</ele>
        <time>2015-10-24T09:38:49.563Z</time>
      </trkpt>
      <trkpt lat="43.68715" lon="5.94439">
        <ele>520</ele>
        <time>2015-10-24T09:38:50.539Z</time>
      </trkpt>
      <trkpt lat="43.6872" lon="5.94441">
        <ele>518</ele>
        <time>2015-10-24T09:38:52.564Z</time>
      </trkpt>
      <trkpt lat="43.68724" lon="5.94442">
        <ele>518</ele>
        <time>2015-10-24T09:38:53.539Z</time>
      </trkpt>
      <trkpt lat="43.68732" lon="5.94443">
        <ele>518</ele>
        <time>2015-10-24T09:38:55.575Z</time>
      </trkpt>
      <trkpt lat="43.68734" lon="5.94441">
        <ele>519</ele>
        <time>2015-10-24T09:38:56.540Z</time>
      </trkpt>
      <trkpt lat="43.68742" lon="5.94437">
        <ele>518</ele>
        <time>2015-10-24T09:39:15.564Z</time>
      </trkpt>
      <trkpt lat="43.68743" lon="5.94436">
        <ele>518</ele>
        <time>2015-10-24T09:39:16.539Z</time>
      </trkpt>
      <trkpt lat="43.68746" lon="5.94426">
        <ele>519</ele>
        <time>2015-10-24T09:39:26.568Z</time>
      </trkpt>
      <trkpt lat="43.68747" lon="5.94424">
        <ele>519</ele>
        <time>2015-10-24T09:39:27.539Z</time>
      </trkpt>
      <trkpt lat="43.68752" lon="5.94417">
        <ele>518</ele>
        <time>2015-10-24T09:39:30.582Z</time>
      </trkpt>
      <trkpt lat="43.68754" lon="5.94415">
        <ele>519</ele>
        <time>2015-10-24T09:39:31.539Z</time>
      </trkpt>
      <trkpt lat="43.6876" lon="5.94408">
        <ele>520</ele>
        <time>2015-10-24T09:39:34.562Z</time>
      </trkpt>
      <trkpt lat="43.68763" lon="5.94406">
        <ele>520</ele>
        <time>2015-10-24T09:39:35.539Z</time>
      </trkpt>
      <trkpt lat="43.6877" lon="5.94401">
        <ele>522</ele>
        <time>2015-10-24T09:39:38.563Z</time>
      </trkpt>
      <trkpt lat="43.68773" lon="5.94399">
        <ele>522</ele>
        <time>2015-10-24T09:39:39.540Z</time>
      </trkpt>
      <trkpt lat="43.68779" lon="5.94393">
        <ele>523</ele>
        <time>2015-10-24T09:39:42.590Z</time>
      </trkpt>
      <trkpt lat="43.68781" lon="5.94391">
        <ele>524</ele>
        <time>2015-10-24T09:39:43.541Z</time>
      </trkpt>
      <trkpt lat="43.68787" lon="5.94383">
        <ele>524</ele>
        <time>2015-10-24T09:39:47.562Z</time>
      </trkpt>
      <trkpt lat="43.68789" lon="5.94381">
        <ele>525</ele>
        <time>2015-10-24T09:39:48.539Z</time>
      </trkpt>
      <trkpt lat="43.68795" lon="5.94374">
        <ele>525</ele>
        <time>2015-10-24T09:39:52.563Z</time>
      </trkpt>
      <trkpt lat="43.68796" lon="5.94372">
        <ele>525</ele>
        <time>2015-10-24T09:39:53.565Z</time>
      </trkpt>
      <trkpt lat="43.68801" lon="5.94363">
        <ele>525</ele>
        <time>2015-10-24T09:39:57.549Z</time>
      </trkpt>
      <trkpt lat="43.68802" lon="5.94361">
        <ele>525</ele>
        <time>2015-10-24T09:39:58.539Z</time>
      </trkpt>
      <trkpt lat="43.68807" lon="5.94352">
        <ele>524</ele>
        <time>2015-10-24T09:40:02.562Z</time>
      </trkpt>
      <trkpt lat="43.68808" lon="5.9435">
        <ele>524</ele>
        <time>2015-10-24T09:40:03.541Z</time>
      </trkpt>
      <trkpt lat="43.68813" lon="5.94342">
        <ele>525</ele>
        <time>2015-10-24T09:40:07.563Z</time>
      </trkpt>
      <trkpt lat="43.68814" lon="5.94339">
        <ele>525</ele>
        <time>2015-10-24T09:40:08.540Z</time>
      </trkpt>
      <trkpt lat="43.68821" lon="5.94333">
        <ele>525</ele>
        <time>2015-10-24T09:40:11.563Z</time>
      </trkpt>
      <trkpt lat="43.68823" lon="5.94333">
        <ele>526</ele>
        <time>2015-10-24T09:40:12.540Z</time>
      </trkpt>
      <trkpt lat="43.6883" lon="5.9434">
        <ele>527</ele>
        <time>2015-10-24T09:40:16.564Z</time>
      </trkpt>
      <trkpt lat="43.68832" lon="5.94341">
        <ele>527</ele>
        <time>2015-10-24T09:40:17.541Z</time>
      </trkpt>
      <trkpt lat="43.6884" lon="5.94339">
        <ele>528</ele>
        <time>2015-10-24T09:40:21.564Z</time>
      </trkpt>
      <trkpt lat="43.68842" lon="5.94338">
        <ele>528</ele>
        <time>2015-10-24T09:40:22.541Z</time>
      </trkpt>
      <trkpt lat="43.68848" lon="5.94331">
        <ele>528</ele>
        <time>2015-10-24T09:40:26.564Z</time>
      </trkpt>
      <trkpt lat="43.6885" lon="5.94328">
        <ele>528</ele>
        <time>2015-10-24T09:40:27.539Z</time>
      </trkpt>
      <trkpt lat="43.68856" lon="5.94322">
        <ele>527</ele>
        <time>2015-10-24T09:40:31.563Z</time>
      </trkpt>
      <trkpt lat="43.68857" lon="5.9432">
        <ele>527</ele>
        <time>2015-10-24T09:40:32.565Z</time>
      </trkpt>
      <trkpt lat="43.68864" lon="5.94316">
        <ele>528</ele>
        <time>2015-10-24T09:40:36.562Z</time>
      </trkpt>
      <trkpt lat="43.68866" lon="5.94315">
        <ele>528</ele>
        <time>2015-10-24T09:40:37.541Z</time>
      </trkpt>
      <trkpt lat="43.68872" lon="5.9431">
        <ele>529</ele>
        <time>2015-10-24T09:42:39.565Z</time>
      </trkpt>
      <trkpt lat="43.68874" lon="5.94309">
        <ele>529</ele>
        <time>2015-10-24T09:42:40.540Z</time>
      </trkpt>
      <trkpt lat="43.6888" lon="5.94306">
        <ele>530</ele>
        <time>2015-10-24T09:42:43.563Z</time>
      </trkpt>
      <trkpt lat="43.68882" lon="5.94304">
        <ele>530</ele>
        <time>2015-10-24T09:42:44.540Z</time>
      </trkpt>
      <trkpt lat="43.68889" lon="5.943">
        <ele>531</ele>
        <time>2015-10-24T09:42:54.555Z</time>
      </trkpt>
      <trkpt lat="43.68891" lon="5.94298">
        <ele>532</ele>
        <time>2015-10-24T09:42:55.538Z</time>
      </trkpt>
      <trkpt lat="43.68898" lon="5.94294">
        <ele>533</ele>
        <time>2015-10-24T09:42:58.609Z</time>
      </trkpt>
      <trkpt lat="43.689" lon="5.94293">
        <ele>532</ele>
        <time>2015-10-24T09:42:59.532Z</time>
      </trkpt>
      <trkpt lat="43.68905" lon="5.94284">
        <ele>531</ele>
        <time>2015-10-24T09:43:05.561Z</time>
      </trkpt>
      <trkpt lat="43.68905" lon="5.94277">
        <ele>530</ele>
        <time>2015-10-24T09:43:06.542Z</time>
      </trkpt>
      <trkpt lat="43.68904" lon="5.94266">
        <ele>528</ele>
        <time>2015-10-24T09:43:08.558Z</time>
      </trkpt>
      <trkpt lat="43.68905" lon="5.9426">
        <ele>528</ele>
        <time>2015-10-24T09:43:09.537Z</time>
      </trkpt>
      <trkpt lat="43.6891" lon="5.9425">
        <ele>528</ele>
        <time>2015-10-24T09:43:11.564Z</time>
      </trkpt>
      <trkpt lat="43.68919" lon="5.94251">
        <ele>527</ele>
        <time>2015-10-24T09:43:12.540Z</time>
      </trkpt>
      <trkpt lat="43.68924" lon="5.94248">
        <ele>527</ele>
        <time>2015-10-24T09:43:13.563Z</time>
      </trkpt>
      <trkpt lat="43.68928" lon="5.94243">
        <ele>526</ele>
        <time>2015-10-24T09:43:14.541Z</time>
      </trkpt>
      <trkpt lat="43.68934" lon="5.94241">
        <ele>527</ele>
        <time>2015-10-24T09:43:15.626Z</time>
      </trkpt>
      <trkpt lat="43.68938" lon="5.94238">
        <ele>526</ele>
        <time>2015-10-24T09:43:16.541Z</time>
      </trkpt>
      <trkpt lat="43.68943" lon="5.94237">
        <ele>527</ele>
        <time>2015-10-24T09:43:17.577Z</time>
      </trkpt>
      <trkpt lat="43.68947" lon="5.94235">
        <ele>527</ele>
        <time>2015-10-24T09:43:18.540Z</time>
      </trkpt>
      <trkpt lat="43.68953" lon="5.94233">
        <ele>527</ele>
        <time>2015-10-24T09:43:19.565Z</time>
      </trkpt>
      <trkpt lat="43.68959" lon="5.94232">
        <ele>527</ele>
        <time>2015-10-24T09:43:20.540Z</time>
      </trkpt>
      <trkpt lat="43.68964" lon="5.94231">
        <ele>526</ele>
        <time>2015-10-24T09:43:21.565Z</time>
      </trkpt>
      <trkpt lat="43.6897" lon="5.9423">
        <ele>526</ele>
        <time>2015-10-24T09:43:22.541Z</time>
      </trkpt>
      <trkpt lat="43.68975" lon="5.94228">
        <ele>526</ele>
        <time>2015-10-24T09:43:23.568Z</time>
      </trkpt>
      <trkpt lat="43.6898" lon="5.94228">
        <ele>526</ele>
        <time>2015-10-24T09:43:24.568Z</time>
      </trkpt>
      <trkpt lat="43.68985" lon="5.94228">
        <ele>525</ele>
        <time>2015-10-24T09:43:25.564Z</time>
      </trkpt>
      <trkpt lat="43.6899" lon="5.94226">
        <ele>526</ele>
        <time>2015-10-24T09:43:26.540Z</time>
      </trkpt>
      <trkpt lat="43.68995" lon="5.94224">
        <ele>525</ele>
        <time>2015-10-24T09:43:27.563Z</time>
      </trkpt>
      <trkpt lat="43.69" lon="5.9422">
        <ele>525</ele>
        <time>2015-10-24T09:43:28.541Z</time>
      </trkpt>
      <trkpt lat="43.69004" lon="5.94216">
        <ele>525</ele>
        <time>2015-10-24T09:43:29.562Z</time>
      </trkpt>
      <trkpt lat="43.69007" lon="5.9421">
        <ele>525</ele>
        <time>2015-10-24T09:43:30.539Z</time>
      </trkpt>
      <trkpt lat="43.6901" lon="5.94205">
        <ele>525</ele>
        <time>2015-10-24T09:43:31.563Z</time>
      </trkpt>
      <trkpt lat="43.69013" lon="5.942">
        <ele>525</ele>
        <time>2015-10-24T09:43:32.541Z</time>
      </trkpt>
      <trkpt lat="43.69017" lon="5.94195">
        <ele>525</ele>
        <time>2015-10-24T09:43:33.562Z</time>
      </trkpt>
      <trkpt lat="43.69019" lon="5.9419">
        <ele>525</ele>
        <time>2015-10-24T09:43:34.586Z</time>
      </trkpt>
      <trkpt lat="43.69025" lon="5.94181">
        <ele>526</ele>
        <time>2015-10-24T09:43:36.562Z</time>
      </trkpt>
      <trkpt lat="43.69028" lon="5.94178">
        <ele>525</ele>
        <time>2015-10-24T09:43:37.540Z</time>
      </trkpt>
      <trkpt lat="43.69033" lon="5.9417">
        <ele>525</ele>
        <time>2015-10-24T09:43:39.564Z</time>
      </trkpt>
      <trkpt lat="43.69036" lon="5.94166">
        <ele>525</ele>
        <time>2015-10-24T09:43:40.566Z</time>
      </trkpt>
      <trkpt lat="43.69042" lon="5.94157">
        <ele>524</ele>
        <time>2015-10-24T09:43:42.565Z</time>
      </trkpt>
      <trkpt lat="43.69045" lon="5.94153">
        <ele>524</ele>
        <time>2015-10-24T09:43:43.542Z</time>
      </trkpt>
      <trkpt lat="43.6905" lon="5.94144">
        <ele>525</ele>
        <time>2015-10-24T09:43:45.566Z</time>
      </trkpt>
      <trkpt lat="43.69053" lon="5.94139">
        <ele>524</ele>
        <time>2015-10-24T09:43:46.540Z</time>
      </trkpt>
      <trkpt lat="43.69058" lon="5.94131">
        <ele>524</ele>
        <time>2015-10-24T09:43:48.565Z</time>
      </trkpt>
      <trkpt lat="43.69061" lon="5.94126">
        <ele>524</ele>
        <time>2015-10-24T09:43:49.541Z</time>
      </trkpt>
      <trkpt lat="43.69065" lon="5.94117">
        <ele>523</ele>
        <time>2015-10-24T09:43:51.564Z</time>
      </trkpt>
      <trkpt lat="43.69068" lon="5.94112">
        <ele>523</ele>
        <time>2015-10-24T09:43:52.541Z</time>
      </trkpt>
      <trkpt lat="43.69072" lon="5.94107">
        <ele>523</ele>
        <time>2015-10-24T09:43:53.781Z</time>
      </trkpt>
      <trkpt lat="43.69075" lon="5.94102">
        <ele>522</ele>
        <time>2015-10-24T09:43:54.541Z</time>
      </trkpt>
      <trkpt lat="43.69079" lon="5.94096">
        <ele>522</ele>
        <time>2015-10-24T09:43:55.562Z</time>
      </trkpt>
      <trkpt lat="43.69083" lon="5.94091">
        <ele>522</ele>
        <time>2015-10-24T09:43:56.564Z</time>
      </trkpt>
      <trkpt lat="43.69088" lon="5.94085">
        <ele>522</ele>
        <time>2015-10-24T09:43:57.562Z</time>
      </trkpt>
      <trkpt lat="43.69092" lon="5.94081">
        <ele>521</ele>
        <time>2015-10-24T09:43:58.540Z</time>
      </trkpt>
      <trkpt lat="43.69096" lon="5.94077">
        <ele>521</ele>
        <time>2015-10-24T09:43:59.563Z</time>
      </trkpt>
      <trkpt lat="43.691" lon="5.94073">
        <ele>521</ele>
        <time>2015-10-24T09:44:00.544Z</time>
      </trkpt>
      <trkpt lat="43.69104" lon="5.94069">
        <ele>521</ele>
        <time>2015-10-24T09:44:01.563Z</time>
      </trkpt>
      <trkpt lat="43.69109" lon="5.94066">
        <ele>521</ele>
        <time>2015-10-24T09:44:02.541Z</time>
      </trkpt>
      <trkpt lat="43.69113" lon="5.94062">
        <ele>521</ele>
        <time>2015-10-24T09:44:03.563Z</time>
      </trkpt>
      <trkpt lat="43.69117" lon="5.9406">
        <ele>521</ele>
        <time>2015-10-24T09:44:04.541Z</time>
      </trkpt>
      <trkpt lat="43.69126" lon="5.94056">
        <ele>521</ele>
        <time>2015-10-24T09:44:06.563Z</time>
      </trkpt>
      <trkpt lat="43.69131" lon="5.94054">
        <ele>521</ele>
        <time>2015-10-24T09:44:07.541Z</time>
      </trkpt>
      <trkpt lat="43.69136" lon="5.94052">
        <ele>521</ele>
        <time>2015-10-24T09:44:08.563Z</time>
      </trkpt>
      <trkpt lat="43.69141" lon="5.94049">
        <ele>521</ele>
        <time>2015-10-24T09:44:09.541Z</time>
      </trkpt>
      <trkpt lat="43.69149" lon="5.94044">
        <ele>520</ele>
        <time>2015-10-24T09:44:11.564Z</time>
      </trkpt>
      <trkpt lat="43.69152" lon="5.94041">
        <ele>520</ele>
        <time>2015-10-24T09:44:12.566Z</time>
      </trkpt>
      <trkpt lat="43.69156" lon="5.94037">
        <ele>521</ele>
        <time>2015-10-24T09:44:13.563Z</time>
      </trkpt>
      <trkpt lat="43.6916" lon="5.94034">
        <ele>521</ele>
        <time>2015-10-24T09:44:14.537Z</time>
      </trkpt>
      <trkpt lat="43.69163" lon="5.9403">
        <ele>522</ele>
        <time>2015-10-24T09:44:15.563Z</time>
      </trkpt>
      <trkpt lat="43.69167" lon="5.94025">
        <ele>522</ele>
        <time>2015-10-24T09:44:16.540Z</time>
      </trkpt>
      <trkpt lat="43.69173" lon="5.94017">
        <ele>523</ele>
        <time>2015-10-24T09:44:18.564Z</time>
      </trkpt>
      <trkpt lat="43.69174" lon="5.94012">
        <ele>523</ele>
        <time>2015-10-24T09:44:19.540Z</time>
      </trkpt>
      <trkpt lat="43.69174" lon="5.94">
        <ele>523</ele>
        <time>2015-10-24T09:44:21.565Z</time>
      </trkpt>
      <trkpt lat="43.69173" lon="5.93995">
        <ele>523</ele>
        <time>2015-10-24T09:44:22.539Z</time>
      </trkpt>
      <trkpt lat="43.69169" lon="5.93984">
        <ele>525</ele>
        <time>2015-10-24T09:44:24.564Z</time>
      </trkpt>
      <trkpt lat="43.69168" lon="5.93978">
        <ele>525</ele>
        <time>2015-10-24T09:44:25.541Z</time>
      </trkpt>
      <trkpt lat="43.69166" lon="5.93968">
        <ele>526</ele>
        <time>2015-10-24T09:44:27.563Z</time>
      </trkpt>
      <trkpt lat="43.69165" lon="5.93964">
        <ele>526</ele>
        <time>2015-10-24T09:44:28.541Z</time>
      </trkpt>
      <trkpt lat="43.69164" lon="5.93955">
        <ele>527</ele>
        <time>2015-10-24T09:44:30.570Z</time>
      </trkpt>
      <trkpt lat="43.69162" lon="5.93951">
        <ele>527</ele>
        <time>2015-10-24T09:44:31.541Z</time>
      </trkpt>
      <trkpt lat="43.69161" lon="5.93943">
        <ele>527</ele>
        <time>2015-10-24T09:44:33.564Z</time>
      </trkpt>
      <trkpt lat="43.6916" lon="5.93939">
        <ele>526</ele>
        <time>2015-10-24T09:44:34.565Z</time>
      </trkpt>
      <trkpt lat="43.69159" lon="5.9393">
        <ele>527</ele>
        <time>2015-10-24T09:44:36.555Z</time>
      </trkpt>
      <trkpt lat="43.69158" lon="5.93926">
        <ele>527</ele>
        <time>2015-10-24T09:44:37.540Z</time>
      </trkpt>
      <trkpt lat="43.69158" lon="5.93916">
        <ele>527</ele>
        <time>2015-10-24T09:44:39.564Z</time>
      </trkpt>
      <trkpt lat="43.69159" lon="5.93911">
        <ele>527</ele>
        <time>2015-10-24T09:44:40.540Z</time>
      </trkpt>
      <trkpt lat="43.69161" lon="5.93902">
        <ele>527</ele>
        <time>2015-10-24T09:44:42.564Z</time>
      </trkpt>
      <trkpt lat="43.69163" lon="5.93897">
        <ele>527</ele>
        <time>2015-10-24T09:44:43.540Z</time>
      </trkpt>
      <trkpt lat="43.69167" lon="5.9389">
        <ele>527</ele>
        <time>2015-10-24T09:44:45.589Z</time>
      </trkpt>
      <trkpt lat="43.69169" lon="5.93886">
        <ele>527</ele>
        <time>2015-10-24T09:44:46.540Z</time>
      </trkpt>
      <trkpt lat="43.69173" lon="5.93879">
        <ele>528</ele>
        <time>2015-10-24T09:44:48.564Z</time>
      </trkpt>
      <trkpt lat="43.69175" lon="5.93876">
        <ele>528</ele>
        <time>2015-10-24T09:44:49.541Z</time>
      </trkpt>
      <trkpt lat="43.69179" lon="5.93868">
        <ele>528</ele>
        <time>2015-10-24T09:44:51.564Z</time>
      </trkpt>
      <trkpt lat="43.69181" lon="5.93865">
        <ele>528</ele>
        <time>2015-10-24T09:44:52.541Z</time>
      </trkpt>
      <trkpt lat="43.69185" lon="5.93858">
        <ele>528</ele>
        <time>2015-10-24T09:44:54.563Z</time>
      </trkpt>
      <trkpt lat="43.69187" lon="5.93855">
        <ele>528</ele>
        <time>2015-10-24T09:44:55.540Z</time>
      </trkpt>
      <trkpt lat="43.6919" lon="5.93848">
        <ele>529</ele>
        <time>2015-10-24T09:44:57.563Z</time>
      </trkpt>
      <trkpt lat="43.69192" lon="5.93845">
        <ele>529</ele>
        <time>2015-10-24T09:44:58.541Z</time>
      </trkpt>
      <trkpt lat="43.69197" lon="5.93837">
        <ele>529</ele>
        <time>2015-10-24T09:45:01.564Z</time>
      </trkpt>
      <trkpt lat="43.69199" lon="5.93834">
        <ele>529</ele>
        <time>2015-10-24T09:45:02.541Z</time>
      </trkpt>
      <trkpt lat="43.69204" lon="5.93825">
        <ele>530</ele>
        <time>2015-10-24T09:45:05.563Z</time>
      </trkpt>
      <trkpt lat="43.69205" lon="5.93822">
        <ele>530</ele>
        <time>2015-10-24T09:45:06.540Z</time>
      </trkpt>
      <trkpt lat="43.69211" lon="5.93814">
        <ele>530</ele>
        <time>2015-10-24T09:45:09.562Z</time>
      </trkpt>
      <trkpt lat="43.69212" lon="5.93813">
        <ele>530</ele>
        <time>2015-10-24T09:45:10.541Z</time>
      </trkpt>
      <trkpt lat="43.69219" lon="5.93808">
        <ele>531</ele>
        <time>2015-10-24T09:45:14.564Z</time>
      </trkpt>
      <trkpt lat="43.69221" lon="5.93807">
        <ele>531</ele>
        <time>2015-10-24T09:45:15.541Z</time>
      </trkpt>
      <trkpt lat="43.69229" lon="5.93805">
        <ele>531</ele>
        <time>2015-10-24T09:45:21.565Z</time>
      </trkpt>
      <trkpt lat="43.6923" lon="5.93805">
        <ele>531</ele>
        <time>2015-10-24T09:45:22.542Z</time>
      </trkpt>
      <trkpt lat="43.69238" lon="5.93801">
        <ele>531</ele>
        <time>2015-10-24T09:45:27.566Z</time>
      </trkpt>
      <trkpt lat="43.6924" lon="5.93801">
        <ele>531</ele>
        <time>2015-10-24T09:45:28.543Z</time>
      </trkpt>
      <trkpt lat="43.69249" lon="5.93798">
        <ele>531</ele>
        <time>2015-10-24T09:45:32.566Z</time>
      </trkpt>
      <trkpt lat="43.69251" lon="5.93796">
        <ele>532</ele>
        <time>2015-10-24T09:45:33.539Z</time>
      </trkpt>
      <trkpt lat="43.69259" lon="5.93793">
        <ele>532</ele>
        <time>2015-10-24T09:45:36.563Z</time>
      </trkpt>
      <trkpt lat="43.69261" lon="5.93792">
        <ele>532</ele>
        <time>2015-10-24T09:45:37.541Z</time>
      </trkpt>
      <trkpt lat="43.69269" lon="5.9379">
        <ele>533</ele>
        <time>2015-10-24T09:45:40.572Z</time>
      </trkpt>
      <trkpt lat="43.69272" lon="5.93789">
        <ele>533</ele>
        <time>2015-10-24T09:45:41.541Z</time>
      </trkpt>
      <trkpt lat="43.6928" lon="5.93787">
        <ele>532</ele>
        <time>2015-10-24T09:45:44.564Z</time>
      </trkpt>
      <trkpt lat="43.69282" lon="5.93786">
        <ele>532</ele>
        <time>2015-10-24T09:45:45.573Z</time>
      </trkpt>
      <trkpt lat="43.6929" lon="5.93783">
        <ele>533</ele>
        <time>2015-10-24T09:45:48.564Z</time>
      </trkpt>
      <trkpt lat="43.69292" lon="5.93783">
        <ele>533</ele>
        <time>2015-10-24T09:45:49.541Z</time>
      </trkpt>
      <trkpt lat="43.693" lon="5.93781">
        <ele>534</ele>
        <time>2015-10-24T09:45:52.564Z</time>
      </trkpt>
      <trkpt lat="43.69302" lon="5.9378">
        <ele>535</ele>
        <time>2015-10-24T09:45:53.543Z</time>
      </trkpt>
      <trkpt lat="43.69309" lon="5.93777">
        <ele>536</ele>
        <time>2015-10-24T09:45:56.589Z</time>
      </trkpt>
      <trkpt lat="43.69312" lon="5.93776">
        <ele>536</ele>
        <time>2015-10-24T09:45:57.543Z</time>
      </trkpt>
      <trkpt lat="43.69319" lon="5.93772">
        <ele>536</ele>
        <time>2015-10-24T09:46:00.563Z</time>
      </trkpt>
      <trkpt lat="43.69321" lon="5.9377">
        <ele>536</ele>
        <time>2015-10-24T09:46:01.541Z</time>
      </trkpt>
      <trkpt lat="43.69329" lon="5.93765">
        <ele>536</ele>
        <time>2015-10-24T09:46:04.564Z</time>
      </trkpt>
      <trkpt lat="43.69331" lon="5.93763">
        <ele>535</ele>
        <time>2015-10-24T09:46:05.541Z</time>
      </trkpt>
      <trkpt lat="43.69338" lon="5.93757">
        <ele>535</ele>
        <time>2015-10-24T09:46:08.564Z</time>
      </trkpt>
      <trkpt lat="43.6934" lon="5.93755">
        <ele>536</ele>
        <time>2015-10-24T09:46:09.541Z</time>
      </trkpt>
      <trkpt lat="43.69348" lon="5.93751">
        <ele>535</ele>
        <time>2015-10-24T09:46:12.564Z</time>
      </trkpt>
      <trkpt lat="43.6935" lon="5.93749">
        <ele>535</ele>
        <time>2015-10-24T09:46:13.540Z</time>
      </trkpt>
      <trkpt lat="43.69357" lon="5.93746">
        <ele>536</ele>
        <time>2015-10-24T09:46:16.564Z</time>
      </trkpt>
      <trkpt lat="43.6936" lon="5.93745">
        <ele>537</ele>
        <time>2015-10-24T09:46:17.544Z</time>
      </trkpt>
      <trkpt lat="43.69367" lon="5.93742">
        <ele>537</ele>
        <time>2015-10-24T09:46:20.564Z</time>
      </trkpt>
      <trkpt lat="43.6937" lon="5.93741">
        <ele>536</ele>
        <time>2015-10-24T09:46:21.540Z</time>
      </trkpt>
      <trkpt lat="43.69377" lon="5.93739">
        <ele>536</ele>
        <time>2015-10-24T09:46:24.563Z</time>
      </trkpt>
      <trkpt lat="43.6938" lon="5.93738">
        <ele>536</ele>
        <time>2015-10-24T09:46:25.541Z</time>
      </trkpt>
      <trkpt lat="43.69388" lon="5.93736">
        <ele>538</ele>
        <time>2015-10-24T09:46:28.567Z</time>
      </trkpt>
      <trkpt lat="43.6939" lon="5.93735">
        <ele>538</ele>
        <time>2015-10-24T09:46:29.539Z</time>
      </trkpt>
      <trkpt lat="43.69398" lon="5.93735">
        <ele>538</ele>
        <time>2015-10-24T09:46:32.563Z</time>
      </trkpt>
      <trkpt lat="43.694" lon="5.93735">
        <ele>538</ele>
        <time>2015-10-24T09:46:33.540Z</time>
      </trkpt>
      <trkpt lat="43.69408" lon="5.93733">
        <ele>539</ele>
        <time>2015-10-24T09:46:36.553Z</time>
      </trkpt>
      <trkpt lat="43.69411" lon="5.93733">
        <ele>540</ele>
        <time>2015-10-24T09:46:37.542Z</time>
      </trkpt>
      <trkpt lat="43.69418" lon="5.93732">
        <ele>541</ele>
        <time>2015-10-24T09:46:40.578Z</time>
      </trkpt>
      <trkpt lat="43.69421" lon="5.93731">
        <ele>541</ele>
        <time>2015-10-24T09:46:41.541Z</time>
      </trkpt>
      <trkpt lat="43.69428" lon="5.9373">
        <ele>542</ele>
        <time>2015-10-24T09:46:44.605Z</time>
      </trkpt>
      <trkpt lat="43.69431" lon="5.9373">
        <ele>542</ele>
        <time>2015-10-24T09:46:45.541Z</time>
      </trkpt>
      <trkpt lat="43.69439" lon="5.93729">
        <ele>542</ele>
        <time>2015-10-24T09:46:48.576Z</time>
      </trkpt>
      <trkpt lat="43.69441" lon="5.93729">
        <ele>542</ele>
        <time>2015-10-24T09:46:49.543Z</time>
      </trkpt>
      <trkpt lat="43.69449" lon="5.93727">
        <ele>543</ele>
        <time>2015-10-24T09:46:52.568Z</time>
      </trkpt>
      <trkpt lat="43.69452" lon="5.93727">
        <ele>543</ele>
        <time>2015-10-24T09:46:53.542Z</time>
      </trkpt>
      <trkpt lat="43.6946" lon="5.93727">
        <ele>544</ele>
        <time>2015-10-24T09:46:56.566Z</time>
      </trkpt>
      <trkpt lat="43.69463" lon="5.93727">
        <ele>544</ele>
        <time>2015-10-24T09:46:57.542Z</time>
      </trkpt>
      <trkpt lat="43.69471" lon="5.93724">
        <ele>544</ele>
        <time>2015-10-24T09:47:00.565Z</time>
      </trkpt>
      <trkpt lat="43.69474" lon="5.93723">
        <ele>544</ele>
        <time>2015-10-24T09:47:01.544Z</time>
      </trkpt>
      <trkpt lat="43.6948" lon="5.9372">
        <ele>544</ele>
        <time>2015-10-24T09:47:03.567Z</time>
      </trkpt>
      <trkpt lat="43.69483" lon="5.93719">
        <ele>544</ele>
        <time>2015-10-24T09:47:04.542Z</time>
      </trkpt>
      <trkpt lat="43.69488" lon="5.93716">
        <ele>544</ele>
        <time>2015-10-24T09:47:06.595Z</time>
      </trkpt>
      <trkpt lat="43.69491" lon="5.93715">
        <ele>544</ele>
        <time>2015-10-24T09:47:07.542Z</time>
      </trkpt>
      <trkpt lat="43.69497" lon="5.93712">
        <ele>544</ele>
        <time>2015-10-24T09:47:09.567Z</time>
      </trkpt>
      <trkpt lat="43.695" lon="5.93711">
        <ele>544</ele>
        <time>2015-10-24T09:47:10.545Z</time>
      </trkpt>
      <trkpt lat="43.69506" lon="5.93708">
        <ele>543</ele>
        <time>2015-10-24T09:47:12.567Z</time>
      </trkpt>
      <trkpt lat="43.69509" lon="5.93707">
        <ele>544</ele>
        <time>2015-10-24T09:47:13.542Z</time>
      </trkpt>
      <trkpt lat="43.69515" lon="5.93705">
        <ele>543</ele>
        <time>2015-10-24T09:47:15.568Z</time>
      </trkpt>
      <trkpt lat="43.69518" lon="5.93703">
        <ele>544</ele>
        <time>2015-10-24T09:47:16.541Z</time>
      </trkpt>
      <trkpt lat="43.69524" lon="5.93701">
        <ele>544</ele>
        <time>2015-10-24T09:47:18.567Z</time>
      </trkpt>
      <trkpt lat="43.69527" lon="5.93699">
        <ele>544</ele>
        <time>2015-10-24T09:47:19.541Z</time>
      </trkpt>
      <trkpt lat="43.69534" lon="5.93696">
        <ele>543</ele>
        <time>2015-10-24T09:47:21.566Z</time>
      </trkpt>
      <trkpt lat="43.69538" lon="5.93695">
        <ele>543</ele>
        <time>2015-10-24T09:47:22.566Z</time>
      </trkpt>
      <trkpt lat="43.69544" lon="5.93692">
        <ele>543</ele>
        <time>2015-10-24T09:47:24.564Z</time>
      </trkpt>
      <trkpt lat="43.69548" lon="5.9369">
        <ele>542</ele>
        <time>2015-10-24T09:47:25.541Z</time>
      </trkpt>
      <trkpt lat="43.69555" lon="5.93687">
        <ele>543</ele>
        <time>2015-10-24T09:47:27.586Z</time>
      </trkpt>
      <trkpt lat="43.69558" lon="5.93686">
        <ele>543</ele>
        <time>2015-10-24T09:47:28.603Z</time>
      </trkpt>
      <trkpt lat="43.69565" lon="5.93682">
        <ele>543</ele>
        <time>2015-10-24T09:47:30.647Z</time>
      </trkpt>
      <trkpt lat="43.69568" lon="5.93681">
        <ele>543</ele>
        <time>2015-10-24T09:47:31.541Z</time>
      </trkpt>
      <trkpt lat="43.69575" lon="5.93677">
        <ele>543</ele>
        <time>2015-10-24T09:47:33.564Z</time>
      </trkpt>
      <trkpt lat="43.69578" lon="5.93676">
        <ele>543</ele>
        <time>2015-10-24T09:47:34.542Z</time>
      </trkpt>
      <trkpt lat="43.69585" lon="5.93673">
        <ele>543</ele>
        <time>2015-10-24T09:47:36.564Z</time>
      </trkpt>
      <trkpt lat="43.69589" lon="5.93672">
        <ele>543</ele>
        <time>2015-10-24T09:47:37.542Z</time>
      </trkpt>
      <trkpt lat="43.69596" lon="5.93668">
        <ele>543</ele>
        <time>2015-10-24T09:47:39.590Z</time>
      </trkpt>
      <trkpt lat="43.69599" lon="5.93667">
        <ele>543</ele>
        <time>2015-10-24T09:47:40.541Z</time>
      </trkpt>
      <trkpt lat="43.69606" lon="5.93663">
        <ele>543</ele>
        <time>2015-10-24T09:47:42.575Z</time>
      </trkpt>
      <trkpt lat="43.69609" lon="5.93662">
        <ele>543</ele>
        <time>2015-10-24T09:47:43.541Z</time>
      </trkpt>
      <trkpt lat="43.69616" lon="5.93659">
        <ele>543</ele>
        <time>2015-10-24T09:47:45.563Z</time>
      </trkpt>
      <trkpt lat="43.69619" lon="5.93657">
        <ele>543</ele>
        <time>2015-10-24T09:47:46.532Z</time>
      </trkpt>
      <trkpt lat="43.69626" lon="5.93655">
        <ele>543</ele>
        <time>2015-10-24T09:47:48.564Z</time>
      </trkpt>
      <trkpt lat="43.69629" lon="5.93653">
        <ele>543</ele>
        <time>2015-10-24T09:47:49.541Z</time>
      </trkpt>
      <trkpt lat="43.69636" lon="5.9365">
        <ele>543</ele>
        <time>2015-10-24T09:47:51.564Z</time>
      </trkpt>
      <trkpt lat="43.69639" lon="5.93649">
        <ele>544</ele>
        <time>2015-10-24T09:47:52.541Z</time>
      </trkpt>
      <trkpt lat="43.69645" lon="5.93646">
        <ele>544</ele>
        <time>2015-10-24T09:47:54.564Z</time>
      </trkpt>
      <trkpt lat="43.69648" lon="5.93645">
        <ele>545</ele>
        <time>2015-10-24T09:47:55.542Z</time>
      </trkpt>
      <trkpt lat="43.69655" lon="5.93641">
        <ele>545</ele>
        <time>2015-10-24T09:47:57.565Z</time>
      </trkpt>
      <trkpt lat="43.69658" lon="5.9364">
        <ele>545</ele>
        <time>2015-10-24T09:47:58.542Z</time>
      </trkpt>
      <trkpt lat="43.69664" lon="5.93637">
        <ele>545</ele>
        <time>2015-10-24T09:48:00.566Z</time>
      </trkpt>
      <trkpt lat="43.69667" lon="5.93635">
        <ele>545</ele>
        <time>2015-10-24T09:48:01.567Z</time>
      </trkpt>
      <trkpt lat="43.69673" lon="5.93633">
        <ele>546</ele>
        <time>2015-10-24T09:48:03.566Z</time>
      </trkpt>
      <trkpt lat="43.69677" lon="5.93631">
        <ele>546</ele>
        <time>2015-10-24T09:48:04.542Z</time>
      </trkpt>
      <trkpt lat="43.69683" lon="5.93628">
        <ele>545</ele>
        <time>2015-10-24T09:48:06.799Z</time>
      </trkpt>
      <trkpt lat="43.69685" lon="5.93627">
        <ele>546</ele>
        <time>2015-10-24T09:48:07.540Z</time>
      </trkpt>
      <trkpt lat="43.69694" lon="5.93623">
        <ele>546</ele>
        <time>2015-10-24T09:48:10.565Z</time>
      </trkpt>
      <trkpt lat="43.69697" lon="5.93622">
        <ele>546</ele>
        <time>2015-10-24T09:48:11.542Z</time>
      </trkpt>
      <trkpt lat="43.69703" lon="5.9362">
        <ele>547</ele>
        <time>2015-10-24T09:48:13.565Z</time>
      </trkpt>
      <trkpt lat="43.69705" lon="5.93619">
        <ele>547</ele>
        <time>2015-10-24T09:48:14.542Z</time>
      </trkpt>
      <trkpt lat="43.69711" lon="5.93615">
        <ele>547</ele>
        <time>2015-10-24T09:48:16.565Z</time>
      </trkpt>
      <trkpt lat="43.69714" lon="5.93614">
        <ele>547</ele>
        <time>2015-10-24T09:48:17.542Z</time>
      </trkpt>
      <trkpt lat="43.6972" lon="5.93611">
        <ele>547</ele>
        <time>2015-10-24T09:48:19.564Z</time>
      </trkpt>
      <trkpt lat="43.69723" lon="5.9361">
        <ele>547</ele>
        <time>2015-10-24T09:48:20.749Z</time>
      </trkpt>
      <trkpt lat="43.69729" lon="5.93608">
        <ele>548</ele>
        <time>2015-10-24T09:48:22.570Z</time>
      </trkpt>
      <trkpt lat="43.69731" lon="5.93607">
        <ele>548</ele>
        <time>2015-10-24T09:48:23.541Z</time>
      </trkpt>
      <trkpt lat="43.6974" lon="5.93603">
        <ele>549</ele>
        <time>2015-10-24T09:48:26.565Z</time>
      </trkpt>
      <trkpt lat="43.69743" lon="5.93601">
        <ele>549</ele>
        <time>2015-10-24T09:48:27.542Z</time>
      </trkpt>
      <trkpt lat="43.69751" lon="5.93597">
        <ele>548</ele>
        <time>2015-10-24T09:48:30.565Z</time>
      </trkpt>
      <trkpt lat="43.69753" lon="5.93596">
        <ele>549</ele>
        <time>2015-10-24T09:48:31.543Z</time>
      </trkpt>
      <trkpt lat="43.69761" lon="5.93598">
        <ele>549</ele>
        <time>2015-10-24T09:48:36.563Z</time>
      </trkpt>
      <trkpt lat="43.69762" lon="5.93601">
        <ele>549</ele>
        <time>2015-10-24T09:48:37.540Z</time>
      </trkpt>
      <trkpt lat="43.69763" lon="5.93611">
        <ele>548</ele>
        <time>2015-10-24T09:48:40.566Z</time>
      </trkpt>
      <trkpt lat="43.69764" lon="5.93614">
        <ele>548</ele>
        <time>2015-10-24T09:48:41.541Z</time>
      </trkpt>
      <trkpt lat="43.69769" lon="5.93621">
        <ele>548</ele>
        <time>2015-10-24T09:48:43.566Z</time>
      </trkpt>
      <trkpt lat="43.69771" lon="5.93625">
        <ele>548</ele>
        <time>2015-10-24T09:48:44.543Z</time>
      </trkpt>
      <trkpt lat="43.69776" lon="5.93634">
        <ele>548</ele>
        <time>2015-10-24T09:48:46.564Z</time>
      </trkpt>
      <trkpt lat="43.69777" lon="5.9364">
        <ele>548</ele>
        <time>2015-10-24T09:48:47.541Z</time>
      </trkpt>
      <trkpt lat="43.69782" lon="5.93648">
        <ele>547</ele>
        <time>2015-10-24T09:48:49.565Z</time>
      </trkpt>
      <trkpt lat="43.69787" lon="5.93648">
        <ele>547</ele>
        <time>2015-10-24T09:48:50.541Z</time>
      </trkpt>
      <trkpt lat="43.69791" lon="5.93647">
        <ele>548</ele>
        <time>2015-10-24T09:48:51.568Z</time>
      </trkpt>
      <trkpt lat="43.69796" lon="5.93644">
        <ele>547</ele>
        <time>2015-10-24T09:48:52.544Z</time>
      </trkpt>
      <trkpt lat="43.69802" lon="5.93635">
        <ele>547</ele>
        <time>2015-10-24T09:48:53.567Z</time>
      </trkpt>
      <trkpt lat="43.69806" lon="5.93632">
        <ele>547</ele>
        <time>2015-10-24T09:48:54.543Z</time>
      </trkpt>
      <trkpt lat="43.6981" lon="5.93629">
        <ele>547</ele>
        <time>2015-10-24T09:48:55.596Z</time>
      </trkpt>
      <trkpt lat="43.69815" lon="5.93625">
        <ele>547</ele>
        <time>2015-10-24T09:48:56.543Z</time>
      </trkpt>
      <trkpt lat="43.69819" lon="5.93622">
        <ele>547</ele>
        <time>2015-10-24T09:48:57.567Z</time>
      </trkpt>
      <trkpt lat="43.69823" lon="5.93619">
        <ele>547</ele>
        <time>2015-10-24T09:48:58.541Z</time>
      </trkpt>
      <trkpt lat="43.69827" lon="5.93615">
        <ele>547</ele>
        <time>2015-10-24T09:48:59.566Z</time>
      </trkpt>
      <trkpt lat="43.6983" lon="5.93612">
        <ele>547</ele>
        <time>2015-10-24T09:49:00.541Z</time>
      </trkpt>
      <trkpt lat="43.69838" lon="5.93606">
        <ele>548</ele>
        <time>2015-10-24T09:49:02.573Z</time>
      </trkpt>
      <trkpt lat="43.69841" lon="5.93604">
        <ele>548</ele>
        <time>2015-10-24T09:49:03.541Z</time>
      </trkpt>
      <trkpt lat="43.69847" lon="5.936">
        <ele>548</ele>
        <time>2015-10-24T09:49:05.566Z</time>
      </trkpt>
      <trkpt lat="43.6985" lon="5.93597">
        <ele>548</ele>
        <time>2015-10-24T09:49:06.578Z</time>
      </trkpt>
      <trkpt lat="43.69857" lon="5.93591">
        <ele>548</ele>
        <time>2015-10-24T09:49:08.566Z</time>
      </trkpt>
      <trkpt lat="43.69861" lon="5.93588">
        <ele>548</ele>
        <time>2015-10-24T09:49:09.541Z</time>
      </trkpt>
      <trkpt lat="43.69869" lon="5.93583">
        <ele>548</ele>
        <time>2015-10-24T09:49:11.566Z</time>
      </trkpt>
      <trkpt lat="43.69872" lon="5.93579">
        <ele>548</ele>
        <time>2015-10-24T09:49:12.543Z</time>
      </trkpt>
      <trkpt lat="43.6988" lon="5.93574">
        <ele>547</ele>
        <time>2015-10-24T09:49:14.565Z</time>
      </trkpt>
      <trkpt lat="43.69884" lon="5.93572">
        <ele>546</ele>
        <time>2015-10-24T09:49:15.543Z</time>
      </trkpt>
      <trkpt lat="43.69892" lon="5.93571">
        <ele>545</ele>
        <time>2015-10-24T09:49:17.564Z</time>
      </trkpt>
      <trkpt lat="43.69896" lon="5.93571">
        <ele>545</ele>
        <time>2015-10-24T09:49:18.542Z</time>
      </trkpt>
      <trkpt lat="43.69904" lon="5.93571">
        <ele>545</ele>
        <time>2015-10-24T09:49:20.556Z</time>
      </trkpt>
      <trkpt lat="43.69908" lon="5.93571">
        <ele>544</ele>
        <time>2015-10-24T09:49:21.542Z</time>
      </trkpt>
      <trkpt lat="43.69912" lon="5.93571">
        <ele>544</ele>
        <time>2015-10-24T09:49:22.591Z</time>
      </trkpt>
      <trkpt lat="43.69917" lon="5.93571">
        <ele>544</ele>
        <time>2015-10-24T09:49:23.542Z</time>
      </trkpt>
      <trkpt lat="43.69924" lon="5.93567">
        <ele>545</ele>
        <time>2015-10-24T09:49:25.566Z</time>
      </trkpt>
      <trkpt lat="43.69926" lon="5.93564">
        <ele>544</ele>
        <time>2015-10-24T09:49:26.545Z</time>
      </trkpt>
      <trkpt lat="43.69932" lon="5.93557">
        <ele>545</ele>
        <time>2015-10-24T09:49:28.565Z</time>
      </trkpt>
      <trkpt lat="43.69936" lon="5.93552">
        <ele>545</ele>
        <time>2015-10-24T09:49:29.543Z</time>
      </trkpt>
      <trkpt lat="43.69941" lon="5.93547">
        <ele>544</ele>
        <time>2015-10-24T09:49:30.566Z</time>
      </trkpt>
      <trkpt lat="43.69947" lon="5.93542">
        <ele>544</ele>
        <time>2015-10-24T09:49:31.543Z</time>
      </trkpt>
      <trkpt lat="43.69953" lon="5.93537">
        <ele>543</ele>
        <time>2015-10-24T09:49:32.565Z</time>
      </trkpt>
      <trkpt lat="43.69959" lon="5.93532">
        <ele>543</ele>
        <time>2015-10-24T09:49:33.568Z</time>
      </trkpt>
      <trkpt lat="43.69965" lon="5.93531">
        <ele>543</ele>
        <time>2015-10-24T09:49:34.566Z</time>
      </trkpt>
      <trkpt lat="43.69971" lon="5.93532">
        <ele>542</ele>
        <time>2015-10-24T09:49:35.541Z</time>
      </trkpt>
      <trkpt lat="43.69977" lon="5.93531">
        <ele>542</ele>
        <time>2015-10-24T09:49:36.565Z</time>
      </trkpt>
      <trkpt lat="43.69983" lon="5.93529">
        <ele>541</ele>
        <time>2015-10-24T09:49:37.541Z</time>
      </trkpt>
      <trkpt lat="43.69989" lon="5.93527">
        <ele>541</ele>
        <time>2015-10-24T09:49:38.565Z</time>
      </trkpt>
      <trkpt lat="43.69993" lon="5.93525">
        <ele>541</ele>
        <time>2015-10-24T09:49:39.542Z</time>
      </trkpt>
      <trkpt lat="43.70002" lon="5.93527">
        <ele>539</ele>
        <time>2015-10-24T09:49:41.566Z</time>
      </trkpt>
      <trkpt lat="43.70005" lon="5.93533">
        <ele>539</ele>
        <time>2015-10-24T09:49:42.540Z</time>
      </trkpt>
      <trkpt lat="43.70007" lon="5.93544">
        <ele>538</ele>
        <time>2015-10-24T09:49:44.596Z</time>
      </trkpt>
      <trkpt lat="43.70007" lon="5.93549">
        <ele>539</ele>
        <time>2015-10-24T09:49:45.542Z</time>
      </trkpt>
      <trkpt lat="43.70008" lon="5.93558">
        <ele>537</ele>
        <time>2015-10-24T09:49:47.565Z</time>
      </trkpt>
      <trkpt lat="43.70009" lon="5.93563">
        <ele>537</ele>
        <time>2015-10-24T09:49:48.542Z</time>
      </trkpt>
      <trkpt lat="43.70011" lon="5.93572">
        <ele>538</ele>
        <time>2015-10-24T09:49:50.573Z</time>
      </trkpt>
      <trkpt lat="43.70012" lon="5.93577">
        <ele>537</ele>
        <time>2015-10-24T09:49:51.542Z</time>
      </trkpt>
      <trkpt lat="43.70013" lon="5.93587">
        <ele>537</ele>
        <time>2015-10-24T09:49:53.565Z</time>
      </trkpt>
      <trkpt lat="43.70015" lon="5.93591">
        <ele>538</ele>
        <time>2015-10-24T09:49:54.541Z</time>
      </trkpt>
      <trkpt lat="43.70019" lon="5.93599">
        <ele>538</ele>
        <time>2015-10-24T09:49:56.566Z</time>
      </trkpt>
      <trkpt lat="43.70022" lon="5.93604">
        <ele>538</ele>
        <time>2015-10-24T09:49:57.542Z</time>
      </trkpt>
      <trkpt lat="43.70026" lon="5.93612">
        <ele>539</ele>
        <time>2015-10-24T09:49:59.568Z</time>
      </trkpt>
      <trkpt lat="43.70028" lon="5.93617">
        <ele>539</ele>
        <time>2015-10-24T09:50:00.541Z</time>
      </trkpt>
      <trkpt lat="43.70033" lon="5.93625">
        <ele>540</ele>
        <time>2015-10-24T09:50:02.565Z</time>
      </trkpt>
      <trkpt lat="43.70035" lon="5.93628">
        <ele>540</ele>
        <time>2015-10-24T09:50:03.541Z</time>
      </trkpt>
      <trkpt lat="43.70043" lon="5.93632">
        <ele>542</ele>
        <time>2015-10-24T09:50:27.566Z</time>
      </trkpt>
      <trkpt lat="43.70044" lon="5.93633">
        <ele>542</ele>
        <time>2015-10-24T09:50:28.543Z</time>
      </trkpt>
      <trkpt lat="43.70051" lon="5.93636">
        <ele>543</ele>
        <time>2015-10-24T09:50:35.570Z</time>
      </trkpt>
      <trkpt lat="43.70052" lon="5.93637">
        <ele>544</ele>
        <time>2015-10-24T09:50:36.542Z</time>
      </trkpt>
      <trkpt lat="43.70061" lon="5.93638">
        <ele>545</ele>
        <time>2015-10-24T09:50:44.596Z</time>
      </trkpt>
      <trkpt lat="43.70062" lon="5.93638">
        <ele>545</ele>
        <time>2015-10-24T09:50:45.542Z</time>
      </trkpt>
      <trkpt lat="43.70071" lon="5.93636">
        <ele>547</ele>
        <time>2015-10-24T09:50:52.567Z</time>
      </trkpt>
      <trkpt lat="43.70072" lon="5.93636">
        <ele>547</ele>
        <time>2015-10-24T09:50:53.543Z</time>
      </trkpt>
      <trkpt lat="43.70077" lon="5.93629">
        <ele>549</ele>
        <time>2015-10-24T09:51:09.566Z</time>
      </trkpt>
      <trkpt lat="43.70079" lon="5.93627">
        <ele>549</ele>
        <time>2015-10-24T09:51:10.542Z</time>
      </trkpt>
      <trkpt lat="43.70085" lon="5.93622">
        <ele>551</ele>
        <time>2015-10-24T09:51:13.565Z</time>
      </trkpt>
      <trkpt lat="43.70088" lon="5.9362">
        <ele>551</ele>
        <time>2015-10-24T09:51:14.542Z</time>
      </trkpt>
      <trkpt lat="43.70094" lon="5.93617">
        <ele>551</ele>
        <time>2015-10-24T09:51:16.592Z</time>
      </trkpt>
      <trkpt lat="43.70096" lon="5.93614">
        <ele>551</ele>
        <time>2015-10-24T09:51:17.541Z</time>
      </trkpt>
      <trkpt lat="43.70103" lon="5.93609">
        <ele>552</ele>
        <time>2015-10-24T09:51:20.566Z</time>
      </trkpt>
      <trkpt lat="43.70105" lon="5.93607">
        <ele>552</ele>
        <time>2015-10-24T09:51:21.542Z</time>
      </trkpt>
      <trkpt lat="43.70112" lon="5.93604">
        <ele>552</ele>
        <time>2015-10-24T09:51:24.566Z</time>
      </trkpt>
      <trkpt lat="43.70114" lon="5.93604">
        <ele>552</ele>
        <time>2015-10-24T09:51:25.543Z</time>
      </trkpt>
      <trkpt lat="43.70123" lon="5.936">
        <ele>554</ele>
        <time>2015-10-24T09:51:30.567Z</time>
      </trkpt>
      <trkpt lat="43.70124" lon="5.93599">
        <ele>554</ele>
        <time>2015-10-24T09:51:31.536Z</time>
      </trkpt>
      <trkpt lat="43.7013" lon="5.93595">
        <ele>555</ele>
        <time>2015-10-24T09:51:35.599Z</time>
      </trkpt>
      <trkpt lat="43.70132" lon="5.93593">
        <ele>555</ele>
        <time>2015-10-24T09:51:36.550Z</time>
      </trkpt>
      <trkpt lat="43.70138" lon="5.93586">
        <ele>555</ele>
        <time>2015-10-24T09:51:40.564Z</time>
      </trkpt>
      <trkpt lat="43.7014" lon="5.93583">
        <ele>556</ele>
        <time>2015-10-24T09:51:41.543Z</time>
      </trkpt>
      <trkpt lat="43.70145" lon="5.93575">
        <ele>557</ele>
        <time>2015-10-24T09:51:44.567Z</time>
      </trkpt>
      <trkpt lat="43.70146" lon="5.93573">
        <ele>557</ele>
        <time>2015-10-24T09:51:45.542Z</time>
      </trkpt>
      <trkpt lat="43.70151" lon="5.93565">
        <ele>557</ele>
        <time>2015-10-24T09:51:48.799Z</time>
      </trkpt>
      <trkpt lat="43.70153" lon="5.93563">
        <ele>558</ele>
        <time>2015-10-24T09:51:49.542Z</time>
      </trkpt>
      <trkpt lat="43.70161" lon="5.93559">
        <ele>559</ele>
        <time>2015-10-24T09:51:53.565Z</time>
      </trkpt>
      <trkpt lat="43.70163" lon="5.93556">
        <ele>559</ele>
        <time>2015-10-24T09:51:54.541Z</time>
      </trkpt>
      <trkpt lat="43.7017" lon="5.9355">
        <ele>560</ele>
        <time>2015-10-24T09:51:58.565Z</time>
      </trkpt>
      <trkpt lat="43.70172" lon="5.93549">
        <ele>560</ele>
        <time>2015-10-24T09:51:59.567Z</time>
      </trkpt>
      <trkpt lat="43.70178" lon="5.93541">
        <ele>561</ele>
        <time>2015-10-24T09:52:03.565Z</time>
      </trkpt>
      <trkpt lat="43.70179" lon="5.93537">
        <ele>561</ele>
        <time>2015-10-24T09:52:04.542Z</time>
      </trkpt>
      <trkpt lat="43.70182" lon="5.93528">
        <ele>562</ele>
        <time>2015-10-24T09:52:07.565Z</time>
      </trkpt>
      <trkpt lat="43.70183" lon="5.93525">
        <ele>562</ele>
        <time>2015-10-24T09:52:08.542Z</time>
      </trkpt>
      <trkpt lat="43.70192" lon="5.93526">
        <ele>561</ele>
        <time>2015-10-24T09:53:09.567Z</time>
      </trkpt>
      <trkpt lat="43.70193" lon="5.93528">
        <ele>561</ele>
        <time>2015-10-24T09:53:10.571Z</time>
      </trkpt>
      <trkpt lat="43.70201" lon="5.9353">
        <ele>561</ele>
        <time>2015-10-24T09:53:15.565Z</time>
      </trkpt>
      <trkpt lat="43.70202" lon="5.93532">
        <ele>560</ele>
        <time>2015-10-24T09:53:16.543Z</time>
      </trkpt>
      <trkpt lat="43.70205" lon="5.93539">
        <ele>559</ele>
        <time>2015-10-24T09:53:18.567Z</time>
      </trkpt>
      <trkpt lat="43.70207" lon="5.93544">
        <ele>559</ele>
        <time>2015-10-24T09:53:19.543Z</time>
      </trkpt>
      <trkpt lat="43.70211" lon="5.93555">
        <ele>559</ele>
        <time>2015-10-24T09:53:22.567Z</time>
      </trkpt>
      <trkpt lat="43.7021" lon="5.93557">
        <ele>559</ele>
        <time>2015-10-24T09:53:23.542Z</time>
      </trkpt>
      <trkpt lat="43.70206" lon="5.93567">
        <ele>558</ele>
        <time>2015-10-24T09:53:26.595Z</time>
      </trkpt>
      <trkpt lat="43.70206" lon="5.93572">
        <ele>558</ele>
        <time>2015-10-24T09:53:27.542Z</time>
      </trkpt>
      <trkpt lat="43.70204" lon="5.9358">
        <ele>557</ele>
        <time>2015-10-24T09:53:29.566Z</time>
      </trkpt>
      <trkpt lat="43.70202" lon="5.93583">
        <ele>557</ele>
        <time>2015-10-24T09:53:30.749Z</time>
      </trkpt>
      <trkpt lat="43.70199" lon="5.93591">
        <ele>558</ele>
        <time>2015-10-24T09:53:32.567Z</time>
      </trkpt>
      <trkpt lat="43.70199" lon="5.93595">
        <ele>557</ele>
        <time>2015-10-24T09:53:33.541Z</time>
      </trkpt>
      <trkpt lat="43.702" lon="5.93607">
        <ele>557</ele>
        <time>2015-10-24T09:53:36.564Z</time>
      </trkpt>
      <trkpt lat="43.702" lon="5.93611">
        <ele>557</ele>
        <time>2015-10-24T09:53:37.542Z</time>
      </trkpt>
      <trkpt lat="43.70197" lon="5.9362">
        <ele>557</ele>
        <time>2015-10-24T09:53:39.566Z</time>
      </trkpt>
      <trkpt lat="43.70196" lon="5.93624">
        <ele>558</ele>
        <time>2015-10-24T09:53:40.542Z</time>
      </trkpt>
      <trkpt lat="43.70196" lon="5.93634">
        <ele>558</ele>
        <time>2015-10-24T09:53:42.591Z</time>
      </trkpt>
      <trkpt lat="43.70196" lon="5.93639">
        <ele>558</ele>
        <time>2015-10-24T09:53:43.542Z</time>
      </trkpt>
      <trkpt lat="43.70191" lon="5.93645">
        <ele>558</ele>
        <time>2015-10-24T09:53:45.567Z</time>
      </trkpt>
      <trkpt lat="43.70188" lon="5.93649">
        <ele>558</ele>
        <time>2015-10-24T09:53:46.546Z</time>
      </trkpt>
      <trkpt lat="43.70184" lon="5.93659">
        <ele>558</ele>
        <time>2015-10-24T09:53:48.567Z</time>
      </trkpt>
      <trkpt lat="43.70183" lon="5.93665">
        <ele>558</ele>
        <time>2015-10-24T09:53:49.542Z</time>
      </trkpt>
      <trkpt lat="43.70185" lon="5.93676">
        <ele>558</ele>
        <time>2015-10-24T09:53:51.566Z</time>
      </trkpt>
      <trkpt lat="43.70186" lon="5.93681">
        <ele>559</ele>
        <time>2015-10-24T09:53:52.544Z</time>
      </trkpt>
      <trkpt lat="43.7019" lon="5.93691">
        <ele>559</ele>
        <time>2015-10-24T09:53:55.567Z</time>
      </trkpt>
      <trkpt lat="43.70192" lon="5.93694">
        <ele>559</ele>
        <time>2015-10-24T09:53:56.542Z</time>
      </trkpt>
      <trkpt lat="43.70196" lon="5.93704">
        <ele>559</ele>
        <time>2015-10-24T09:53:59.569Z</time>
      </trkpt>
      <trkpt lat="43.70196" lon="5.93709">
        <ele>560</ele>
        <time>2015-10-24T09:54:00.535Z</time>
      </trkpt>
      <trkpt lat="43.70197" lon="5.93721">
        <ele>559</ele>
        <time>2015-10-24T09:54:03.569Z</time>
      </trkpt>
      <trkpt lat="43.70198" lon="5.93725">
        <ele>559</ele>
        <time>2015-10-24T09:54:04.571Z</time>
      </trkpt>
      <trkpt lat="43.70199" lon="5.93733">
        <ele>558</ele>
        <time>2015-10-24T09:54:06.567Z</time>
      </trkpt>
      <trkpt lat="43.70199" lon="5.93737">
        <ele>558</ele>
        <time>2015-10-24T09:54:07.543Z</time>
      </trkpt>
      <trkpt lat="43.702" lon="5.93744">
        <ele>557</ele>
        <time>2015-10-24T09:54:08.558Z</time>
      </trkpt>
      <trkpt lat="43.70201" lon="5.9375">
        <ele>556</ele>
        <time>2015-10-24T09:54:09.542Z</time>
      </trkpt>
      <trkpt lat="43.70205" lon="5.93757">
        <ele>555</ele>
        <time>2015-10-24T09:54:10.565Z</time>
      </trkpt>
      <trkpt lat="43.70209" lon="5.93763">
        <ele>555</ele>
        <time>2015-10-24T09:54:11.541Z</time>
      </trkpt>
      <trkpt lat="43.70212" lon="5.9377">
        <ele>554</ele>
        <time>2015-10-24T09:54:12.566Z</time>
      </trkpt>
      <trkpt lat="43.70216" lon="5.93778">
        <ele>554</ele>
        <time>2015-10-24T09:54:13.544Z</time>
      </trkpt>
      <trkpt lat="43.70218" lon="5.93785">
        <ele>553</ele>
        <time>2015-10-24T09:54:14.564Z</time>
      </trkpt>
      <trkpt lat="43.70219" lon="5.93794">
        <ele>553</ele>
        <time>2015-10-24T09:54:15.569Z</time>
      </trkpt>
      <trkpt lat="43.70219" lon="5.93804">
        <ele>553</ele>
        <time>2015-10-24T09:54:16.567Z</time>
      </trkpt>
      <trkpt lat="43.70218" lon="5.93811">
        <ele>552</ele>
        <time>2015-10-24T09:54:17.542Z</time>
      </trkpt>
      <trkpt lat="43.70218" lon="5.93821">
        <ele>552</ele>
        <time>2015-10-24T09:54:18.565Z</time>
      </trkpt>
      <trkpt lat="43.70218" lon="5.93831">
        <ele>551</ele>
        <time>2015-10-24T09:54:19.542Z</time>
      </trkpt>
      <trkpt lat="43.70215" lon="5.93837">
        <ele>552</ele>
        <time>2015-10-24T09:54:20.565Z</time>
      </trkpt>
      <trkpt lat="43.70211" lon="5.93843">
        <ele>552</ele>
        <time>2015-10-24T09:54:21.542Z</time>
      </trkpt>
      <trkpt lat="43.70202" lon="5.93844">
        <ele>551</ele>
        <time>2015-10-24T09:54:23.565Z</time>
      </trkpt>
      <trkpt lat="43.70196" lon="5.93844">
        <ele>550</ele>
        <time>2015-10-24T09:54:24.756Z</time>
      </trkpt>
      <trkpt lat="43.70191" lon="5.93847">
        <ele>551</ele>
        <time>2015-10-24T09:54:25.566Z</time>
      </trkpt>
      <trkpt lat="43.70187" lon="5.93852">
        <ele>550</ele>
        <time>2015-10-24T09:54:26.568Z</time>
      </trkpt>
      <trkpt lat="43.70184" lon="5.93857">
        <ele>550</ele>
        <time>2015-10-24T09:54:27.566Z</time>
      </trkpt>
      <trkpt lat="43.70181" lon="5.93861">
        <ele>550</ele>
        <time>2015-10-24T09:54:28.543Z</time>
      </trkpt>
      <trkpt lat="43.70174" lon="5.93868">
        <ele>549</ele>
        <time>2015-10-24T09:54:30.564Z</time>
      </trkpt>
      <trkpt lat="43.7017" lon="5.93872">
        <ele>549</ele>
        <time>2015-10-24T09:54:31.542Z</time>
      </trkpt>
      <trkpt lat="43.70166" lon="5.93878">
        <ele>548</ele>
        <time>2015-10-24T09:54:32.610Z</time>
      </trkpt>
      <trkpt lat="43.70161" lon="5.93882">
        <ele>548</ele>
        <time>2015-10-24T09:54:33.542Z</time>
      </trkpt>
      <trkpt lat="43.70157" lon="5.93887">
        <ele>548</ele>
        <time>2015-10-24T09:54:34.566Z</time>
      </trkpt>
      <trkpt lat="43.70153" lon="5.93894">
        <ele>548</ele>
        <time>2015-10-24T09:54:35.543Z</time>
      </trkpt>
      <trkpt lat="43.70149" lon="5.939">
        <ele>548</ele>
        <time>2015-10-24T09:54:36.564Z</time>
      </trkpt>
      <trkpt lat="43.70145" lon="5.93908">
        <ele>548</ele>
        <time>2015-10-24T09:54:37.567Z</time>
      </trkpt>
      <trkpt lat="43.7014" lon="5.93918">
        <ele>548</ele>
        <time>2015-10-24T09:54:39.551Z</time>
      </trkpt>
      <trkpt lat="43.7014" lon="5.93922">
        <ele>547</ele>
        <time>2015-10-24T09:54:40.543Z</time>
      </trkpt>
      <trkpt lat="43.70144" lon="5.93933">
        <ele>548</ele>
        <time>2015-10-24T09:54:43.565Z</time>
      </trkpt>
      <trkpt lat="43.70145" lon="5.93936">
        <ele>548</ele>
        <time>2015-10-24T09:54:44.541Z</time>
      </trkpt>
      <trkpt lat="43.70148" lon="5.93947">
        <ele>549</ele>
        <time>2015-10-24T09:54:47.566Z</time>
      </trkpt>
      <trkpt lat="43.70149" lon="5.93951">
        <ele>548</ele>
        <time>2015-10-24T09:54:48.568Z</time>
      </trkpt>
      <trkpt lat="43.7015" lon="5.93962">
        <ele>548</ele>
        <time>2015-10-24T09:54:51.565Z</time>
      </trkpt>
      <trkpt lat="43.70151" lon="5.93965">
        <ele>548</ele>
        <time>2015-10-24T09:54:52.542Z</time>
      </trkpt>
      <trkpt lat="43.70152" lon="5.93975">
        <ele>549</ele>
        <time>2015-10-24T09:54:55.566Z</time>
      </trkpt>
      <trkpt lat="43.70153" lon="5.93978">
        <ele>548</ele>
        <time>2015-10-24T09:54:56.542Z</time>
      </trkpt>
      <trkpt lat="43.70155" lon="5.93988">
        <ele>548</ele>
        <time>2015-10-24T09:54:59.590Z</time>
      </trkpt>
      <trkpt lat="43.70155" lon="5.93991">
        <ele>549</ele>
        <time>2015-10-24T09:55:00.543Z</time>
      </trkpt>
      <trkpt lat="43.70157" lon="5.94002">
        <ele>549</ele>
        <time>2015-10-24T09:55:03.773Z</time>
      </trkpt>
      <trkpt lat="43.70157" lon="5.94006">
        <ele>549</ele>
        <time>2015-10-24T09:55:04.541Z</time>
      </trkpt>
      <trkpt lat="43.70158" lon="5.94017">
        <ele>549</ele>
        <time>2015-10-24T09:55:07.576Z</time>
      </trkpt>
      <trkpt lat="43.70159" lon="5.9402">
        <ele>549</ele>
        <time>2015-10-24T09:55:08.541Z</time>
      </trkpt>
      <trkpt lat="43.70161" lon="5.94031">
        <ele>548</ele>
        <time>2015-10-24T09:55:11.565Z</time>
      </trkpt>
      <trkpt lat="43.70161" lon="5.94034">
        <ele>549</ele>
        <time>2015-10-24T09:55:12.543Z</time>
      </trkpt>
      <trkpt lat="43.70163" lon="5.94045">
        <ele>549</ele>
        <time>2015-10-24T09:55:15.566Z</time>
      </trkpt>
      <trkpt lat="43.70163" lon="5.94048">
        <ele>549</ele>
        <time>2015-10-24T09:55:16.544Z</time>
      </trkpt>
      <trkpt lat="43.70165" lon="5.94059">
        <ele>550</ele>
        <time>2015-10-24T09:55:19.567Z</time>
      </trkpt>
      <trkpt lat="43.70165" lon="5.94062">
        <ele>550</ele>
        <time>2015-10-24T09:55:20.543Z</time>
      </trkpt>
      <trkpt lat="43.70167" lon="5.94073">
        <ele>550</ele>
        <time>2015-10-24T09:55:23.567Z</time>
      </trkpt>
      <trkpt lat="43.70167" lon="5.94076">
        <ele>549</ele>
        <time>2015-10-24T09:55:24.543Z</time>
      </trkpt>
      <trkpt lat="43.70169" lon="5.94086">
        <ele>549</ele>
        <time>2015-10-24T09:55:27.568Z</time>
      </trkpt>
      <trkpt lat="43.70169" lon="5.94089">
        <ele>549</ele>
        <time>2015-10-24T09:55:28.541Z</time>
      </trkpt>
      <trkpt lat="43.70171" lon="5.941">
        <ele>549</ele>
        <time>2015-10-24T09:55:31.567Z</time>
      </trkpt>
      <trkpt lat="43.70171" lon="5.94104">
        <ele>550</ele>
        <time>2015-10-24T09:55:32.568Z</time>
      </trkpt>
      <trkpt lat="43.70173" lon="5.94114">
        <ele>551</ele>
        <time>2015-10-24T09:55:35.569Z</time>
      </trkpt>
      <trkpt lat="43.70174" lon="5.94118">
        <ele>551</ele>
        <time>2015-10-24T09:55:36.542Z</time>
      </trkpt>
      <trkpt lat="43.70175" lon="5.94128">
        <ele>551</ele>
        <time>2015-10-24T09:55:39.567Z</time>
      </trkpt>
      <trkpt lat="43.70176" lon="5.94132">
        <ele>552</ele>
        <time>2015-10-24T09:55:40.543Z</time>
      </trkpt>
      <trkpt lat="43.70177" lon="5.94142">
        <ele>552</ele>
        <time>2015-10-24T09:55:43.596Z</time>
      </trkpt>
      <trkpt lat="43.70178" lon="5.94146">
        <ele>552</ele>
        <time>2015-10-24T09:55:44.544Z</time>
      </trkpt>
      <trkpt lat="43.70179" lon="5.94155">
        <ele>552</ele>
        <time>2015-10-24T09:55:47.567Z</time>
      </trkpt>
      <trkpt lat="43.70179" lon="5.94158">
        <ele>552</ele>
        <time>2015-10-24T09:55:48.543Z</time>
      </trkpt>
      <trkpt lat="43.70181" lon="5.94168">
        <ele>552</ele>
        <time>2015-10-24T09:55:51.570Z</time>
      </trkpt>
      <trkpt lat="43.70181" lon="5.94172">
        <ele>552</ele>
        <time>2015-10-24T09:55:52.543Z</time>
      </trkpt>
      <trkpt lat="43.70183" lon="5.94181">
        <ele>553</ele>
        <time>2015-10-24T09:55:55.566Z</time>
      </trkpt>
      <trkpt lat="43.70183" lon="5.94184">
        <ele>553</ele>
        <time>2015-10-24T09:55:56.543Z</time>
      </trkpt>
      <trkpt lat="43.70184" lon="5.94194">
        <ele>552</ele>
        <time>2015-10-24T09:55:59.566Z</time>
      </trkpt>
      <trkpt lat="43.70184" lon="5.94197">
        <ele>551</ele>
        <time>2015-10-24T09:56:00.543Z</time>
      </trkpt>
      <trkpt lat="43.70185" lon="5.94207">
        <ele>551</ele>
        <time>2015-10-24T09:56:03.566Z</time>
      </trkpt>
      <trkpt lat="43.70186" lon="5.9421">
        <ele>551</ele>
        <time>2015-10-24T09:56:04.543Z</time>
      </trkpt>
      <trkpt lat="43.70188" lon="5.94219">
        <ele>552</ele>
        <time>2015-10-24T09:56:07.568Z</time>
      </trkpt>
      <trkpt lat="43.70188" lon="5.94222">
        <ele>552</ele>
        <time>2015-10-24T09:56:08.543Z</time>
      </trkpt>
      <trkpt lat="43.70191" lon="5.94233">
        <ele>554</ele>
        <time>2015-10-24T09:56:12.566Z</time>
      </trkpt>
      <trkpt lat="43.70192" lon="5.94236">
        <ele>554</ele>
        <time>2015-10-24T09:56:13.542Z</time>
      </trkpt>
      <trkpt lat="43.70195" lon="5.94245">
        <ele>552</ele>
        <time>2015-10-24T09:56:16.566Z</time>
      </trkpt>
      <trkpt lat="43.70196" lon="5.94248">
        <ele>552</ele>
        <time>2015-10-24T09:56:17.542Z</time>
      </trkpt>
      <trkpt lat="43.70201" lon="5.94256">
        <ele>550</ele>
        <time>2015-10-24T09:56:20.566Z</time>
      </trkpt>
      <trkpt lat="43.70203" lon="5.94258">
        <ele>550</ele>
        <time>2015-10-24T09:56:21.568Z</time>
      </trkpt>
      <trkpt lat="43.70208" lon="5.94265">
        <ele>549</ele>
        <time>2015-10-24T09:56:24.576Z</time>
      </trkpt>
      <trkpt lat="43.7021" lon="5.94267">
        <ele>550</ele>
        <time>2015-10-24T09:56:25.544Z</time>
      </trkpt>
      <trkpt lat="43.70215" lon="5.94274">
        <ele>552</ele>
        <time>2015-10-24T09:56:28.566Z</time>
      </trkpt>
      <trkpt lat="43.70217" lon="5.94277">
        <ele>551</ele>
        <time>2015-10-24T09:56:29.542Z</time>
      </trkpt>
      <trkpt lat="43.70223" lon="5.94284">
        <ele>550</ele>
        <time>2015-10-24T09:56:32.592Z</time>
      </trkpt>
      <trkpt lat="43.70224" lon="5.94286">
        <ele>550</ele>
        <time>2015-10-24T09:56:33.542Z</time>
      </trkpt>
      <trkpt lat="43.70228" lon="5.94293">
        <ele>550</ele>
        <time>2015-10-24T09:56:36.566Z</time>
      </trkpt>
      <trkpt lat="43.70229" lon="5.94296">
        <ele>550</ele>
        <time>2015-10-24T09:56:37.543Z</time>
      </trkpt>
      <trkpt lat="43.70233" lon="5.94304">
        <ele>550</ele>
        <time>2015-10-24T09:56:40.615Z</time>
      </trkpt>
      <trkpt lat="43.70235" lon="5.94306">
        <ele>551</ele>
        <time>2015-10-24T09:56:41.543Z</time>
      </trkpt>
      <trkpt lat="43.70239" lon="5.94313">
        <ele>551</ele>
        <time>2015-10-24T09:56:44.567Z</time>
      </trkpt>
      <trkpt lat="43.7024" lon="5.94316">
        <ele>551</ele>
        <time>2015-10-24T09:56:45.544Z</time>
      </trkpt>
      <trkpt lat="43.70247" lon="5.94324">
        <ele>552</ele>
        <time>2015-10-24T09:56:49.566Z</time>
      </trkpt>
      <trkpt lat="43.70248" lon="5.94326">
        <ele>552</ele>
        <time>2015-10-24T09:56:50.543Z</time>
      </trkpt>
      <trkpt lat="43.70255" lon="5.94332">
        <ele>552</ele>
        <time>2015-10-24T09:56:53.566Z</time>
      </trkpt>
      <trkpt lat="43.70257" lon="5.94334">
        <ele>551</ele>
        <time>2015-10-24T09:56:54.568Z</time>
      </trkpt>
      <trkpt lat="43.70264" lon="5.9434">
        <ele>552</ele>
        <time>2015-10-24T09:56:57.567Z</time>
      </trkpt>
      <trkpt lat="43.70266" lon="5.94343">
        <ele>552</ele>
        <time>2015-10-24T09:56:58.542Z</time>
      </trkpt>
      <trkpt lat="43.70272" lon="5.9435">
        <ele>551</ele>
        <time>2015-10-24T09:57:01.566Z</time>
      </trkpt>
      <trkpt lat="43.70274" lon="5.94352">
        <ele>552</ele>
        <time>2015-10-24T09:57:02.542Z</time>
      </trkpt>
      <trkpt lat="43.70282" lon="5.94355">
        <ele>553</ele>
        <time>2015-10-24T09:57:05.567Z</time>
      </trkpt>
      <trkpt lat="43.70284" lon="5.94356">
        <ele>554</ele>
        <time>2015-10-24T09:57:06.543Z</time>
      </trkpt>
      <trkpt lat="43.70292" lon="5.94359">
        <ele>554</ele>
        <time>2015-10-24T09:57:09.566Z</time>
      </trkpt>
      <trkpt lat="43.70294" lon="5.94362">
        <ele>554</ele>
        <time>2015-10-24T09:57:10.568Z</time>
      </trkpt>
      <trkpt lat="43.70298" lon="5.94371">
        <ele>553</ele>
        <time>2015-10-24T09:57:13.567Z</time>
      </trkpt>
      <trkpt lat="43.70299" lon="5.94374">
        <ele>554</ele>
        <time>2015-10-24T09:57:14.543Z</time>
      </trkpt>
      <trkpt lat="43.70301" lon="5.94385">
        <ele>554</ele>
        <time>2015-10-24T09:57:17.568Z</time>
      </trkpt>
      <trkpt lat="43.70302" lon="5.94388">
        <ele>555</ele>
        <time>2015-10-24T09:57:18.542Z</time>
      </trkpt>
      <trkpt lat="43.70305" lon="5.94399">
        <ele>556</ele>
        <time>2015-10-24T09:57:21.594Z</time>
      </trkpt>
      <trkpt lat="43.70307" lon="5.94401">
        <ele>556</ele>
        <time>2015-10-24T09:57:22.543Z</time>
      </trkpt>
      <trkpt lat="43.70313" lon="5.94407">
        <ele>557</ele>
        <time>2015-10-24T09:57:25.569Z</time>
      </trkpt>
      <trkpt lat="43.70314" lon="5.94409">
        <ele>557</ele>
        <time>2015-10-24T09:57:26.545Z</time>
      </trkpt>
      <trkpt lat="43.70319" lon="5.94417">
        <ele>558</ele>
        <time>2015-10-24T09:57:29.569Z</time>
      </trkpt>
      <trkpt lat="43.7032" lon="5.94419">
        <ele>558</ele>
        <time>2015-10-24T09:57:30.542Z</time>
      </trkpt>
      <trkpt lat="43.70326" lon="5.94426">
        <ele>559</ele>
        <time>2015-10-24T09:57:33.568Z</time>
      </trkpt>
      <trkpt lat="43.70328" lon="5.94428">
        <ele>560</ele>
        <time>2015-10-24T09:57:34.543Z</time>
      </trkpt>
      <trkpt lat="43.70334" lon="5.94435">
        <ele>561</ele>
        <time>2015-10-24T09:57:37.566Z</time>
      </trkpt>
      <trkpt lat="43.70336" lon="5.94437">
        <ele>562</ele>
        <time>2015-10-24T09:57:38.543Z</time>
      </trkpt>
      <trkpt lat="43.70343" lon="5.94443">
        <ele>562</ele>
        <time>2015-10-24T09:57:42.568Z</time>
      </trkpt>
      <trkpt lat="43.70344" lon="5.94444">
        <ele>562</ele>
        <time>2015-10-24T09:57:43.568Z</time>
      </trkpt>
      <trkpt lat="43.70351" lon="5.94449">
        <ele>563</ele>
        <time>2015-10-24T09:57:48.566Z</time>
      </trkpt>
      <trkpt lat="43.70352" lon="5.94451">
        <ele>563</ele>
        <time>2015-10-24T09:57:49.552Z</time>
      </trkpt>
      <trkpt lat="43.70356" lon="5.9446">
        <ele>563</ele>
        <time>2015-10-24T09:57:54.595Z</time>
      </trkpt>
      <trkpt lat="43.70356" lon="5.94462">
        <ele>563</ele>
        <time>2015-10-24T09:57:55.543Z</time>
      </trkpt>
      <trkpt lat="43.70361" lon="5.94472">
        <ele>562</ele>
        <time>2015-10-24T09:58:01.568Z</time>
      </trkpt>
      <trkpt lat="43.70362" lon="5.94473">
        <ele>561</ele>
        <time>2015-10-24T09:58:02.543Z</time>
      </trkpt>
      <trkpt lat="43.70368" lon="5.94481">
        <ele>562</ele>
        <time>2015-10-24T09:58:07.566Z</time>
      </trkpt>
      <trkpt lat="43.7037" lon="5.94483">
        <ele>562</ele>
        <time>2015-10-24T09:58:08.543Z</time>
      </trkpt>
      <trkpt lat="43.70376" lon="5.94488">
        <ele>562</ele>
        <time>2015-10-24T09:58:12.567Z</time>
      </trkpt>
      <trkpt lat="43.70377" lon="5.9449">
        <ele>562</ele>
        <time>2015-10-24T09:58:13.544Z</time>
      </trkpt>
      <trkpt lat="43.70384" lon="5.94498">
        <ele>561</ele>
        <time>2015-10-24T09:58:17.566Z</time>
      </trkpt>
      <trkpt lat="43.70385" lon="5.945">
        <ele>562</ele>
        <time>2015-10-24T09:58:18.543Z</time>
      </trkpt>
      <trkpt lat="43.70392" lon="5.94507">
        <ele>565</ele>
        <time>2015-10-24T09:58:22.567Z</time>
      </trkpt>
      <trkpt lat="43.70394" lon="5.94509">
        <ele>566</ele>
        <time>2015-10-24T09:58:23.543Z</time>
      </trkpt>
      <trkpt lat="43.704" lon="5.94514">
        <ele>567</ele>
        <time>2015-10-24T09:58:26.567Z</time>
      </trkpt>
      <trkpt lat="43.70402" lon="5.94515">
        <ele>567</ele>
        <time>2015-10-24T09:58:27.543Z</time>
      </trkpt>
      <trkpt lat="43.70406" lon="5.94525">
        <ele>568</ele>
        <time>2015-10-24T09:58:31.566Z</time>
      </trkpt>
      <trkpt lat="43.70405" lon="5.94527">
        <ele>568</ele>
        <time>2015-10-24T09:58:32.569Z</time>
      </trkpt>
      <trkpt lat="43.70403" lon="5.94537">
        <ele>570</ele>
        <time>2015-10-24T09:59:44.567Z</time>
      </trkpt>
      <trkpt lat="43.70402" lon="5.94539">
        <ele>569</ele>
        <time>2015-10-24T09:59:45.543Z</time>
      </trkpt>
      <trkpt lat="43.70397" lon="5.94546">
        <ele>570</ele>
        <time>2015-10-24T09:59:49.565Z</time>
      </trkpt>
      <trkpt lat="43.70396" lon="5.94548">
        <ele>571</ele>
        <time>2015-10-24T09:59:50.544Z</time>
      </trkpt>
      <trkpt lat="43.70393" lon="5.94558">
        <ele>571</ele>
        <time>2015-10-24T09:59:54.566Z</time>
      </trkpt>
      <trkpt lat="43.70394" lon="5.94561">
        <ele>571</ele>
        <time>2015-10-24T09:59:55.542Z</time>
      </trkpt>
      <trkpt lat="43.70401" lon="5.94569">
        <ele>574</ele>
        <time>2015-10-24T10:00:26.568Z</time>
      </trkpt>
      <trkpt lat="43.70402" lon="5.9457">
        <ele>573</ele>
        <time>2015-10-24T10:00:27.544Z</time>
      </trkpt>
      <trkpt lat="43.70408" lon="5.94578">
        <ele>574</ele>
        <time>2015-10-24T10:00:30.569Z</time>
      </trkpt>
      <trkpt lat="43.70409" lon="5.94582">
        <ele>575</ele>
        <time>2015-10-24T10:00:31.569Z</time>
      </trkpt>
      <trkpt lat="43.70411" lon="5.94591">
        <ele>576</ele>
        <time>2015-10-24T10:00:34.568Z</time>
      </trkpt>
      <trkpt lat="43.70412" lon="5.94595">
        <ele>577</ele>
        <time>2015-10-24T10:00:35.549Z</time>
      </trkpt>
      <trkpt lat="43.70409" lon="5.94603">
        <ele>578</ele>
        <time>2015-10-24T10:00:38.565Z</time>
      </trkpt>
      <trkpt lat="43.70406" lon="5.94605">
        <ele>578</ele>
        <time>2015-10-24T10:00:39.544Z</time>
      </trkpt>
      <trkpt lat="43.704" lon="5.9461">
        <ele>577</ele>
        <time>2015-10-24T10:00:42.574Z</time>
      </trkpt>
      <trkpt lat="43.70398" lon="5.94612">
        <ele>577</ele>
        <time>2015-10-24T10:00:43.545Z</time>
      </trkpt>
      <trkpt lat="43.7039" lon="5.94614">
        <ele>577</ele>
        <time>2015-10-24T10:00:46.567Z</time>
      </trkpt>
      <trkpt lat="43.70388" lon="5.94615">
        <ele>577</ele>
        <time>2015-10-24T10:00:47.570Z</time>
      </trkpt>
      <trkpt lat="43.70381" lon="5.94622">
        <ele>577</ele>
        <time>2015-10-24T10:00:50.569Z</time>
      </trkpt>
      <trkpt lat="43.7038" lon="5.94625">
        <ele>577</ele>
        <time>2015-10-24T10:00:51.546Z</time>
      </trkpt>
      <trkpt lat="43.70373" lon="5.94632">
        <ele>578</ele>
        <time>2015-10-24T10:00:54.572Z</time>
      </trkpt>
      <trkpt lat="43.70371" lon="5.94634">
        <ele>578</ele>
        <time>2015-10-24T10:00:55.547Z</time>
      </trkpt>
      <trkpt lat="43.70362" lon="5.94638">
        <ele>578</ele>
        <time>2015-10-24T10:00:58.595Z</time>
      </trkpt>
      <trkpt lat="43.70359" lon="5.94639">
        <ele>578</ele>
        <time>2015-10-24T10:00:59.544Z</time>
      </trkpt>
      <trkpt lat="43.70352" lon="5.94644">
        <ele>579</ele>
        <time>2015-10-24T10:01:01.568Z</time>
      </trkpt>
      <trkpt lat="43.7035" lon="5.94646">
        <ele>580</ele>
        <time>2015-10-24T10:01:02.544Z</time>
      </trkpt>
      <trkpt lat="43.70345" lon="5.94653">
        <ele>579</ele>
        <time>2015-10-24T10:01:04.568Z</time>
      </trkpt>
      <trkpt lat="43.70343" lon="5.94656">
        <ele>578</ele>
        <time>2015-10-24T10:01:05.544Z</time>
      </trkpt>
      <trkpt lat="43.70339" lon="5.94664">
        <ele>578</ele>
        <time>2015-10-24T10:01:07.567Z</time>
      </trkpt>
      <trkpt lat="43.70338" lon="5.94668">
        <ele>578</ele>
        <time>2015-10-24T10:01:08.544Z</time>
      </trkpt>
      <trkpt lat="43.70334" lon="5.94677">
        <ele>578</ele>
        <time>2015-10-24T10:01:10.566Z</time>
      </trkpt>
      <trkpt lat="43.70332" lon="5.94682">
        <ele>578</ele>
        <time>2015-10-24T10:01:11.536Z</time>
      </trkpt>
      <trkpt lat="43.70328" lon="5.94692">
        <ele>578</ele>
        <time>2015-10-24T10:01:13.569Z</time>
      </trkpt>
      <trkpt lat="43.70325" lon="5.94697">
        <ele>577</ele>
        <time>2015-10-24T10:01:14.543Z</time>
      </trkpt>
      <trkpt lat="43.7032" lon="5.94706">
        <ele>578</ele>
        <time>2015-10-24T10:01:16.566Z</time>
      </trkpt>
      <trkpt lat="43.70318" lon="5.94712">
        <ele>577</ele>
        <time>2015-10-24T10:01:17.543Z</time>
      </trkpt>
      <trkpt lat="43.70314" lon="5.94722">
        <ele>577</ele>
        <time>2015-10-24T10:01:19.567Z</time>
      </trkpt>
      <trkpt lat="43.70311" lon="5.94727">
        <ele>577</ele>
        <time>2015-10-24T10:01:20.569Z</time>
      </trkpt>
      <trkpt lat="43.70305" lon="5.94732">
        <ele>577</ele>
        <time>2015-10-24T10:01:22.568Z</time>
      </trkpt>
      <trkpt lat="43.70302" lon="5.94733">
        <ele>577</ele>
        <time>2015-10-24T10:01:23.544Z</time>
      </trkpt>
      <trkpt lat="43.70294" lon="5.94732">
        <ele>576</ele>
        <time>2015-10-24T10:01:27.567Z</time>
      </trkpt>
      <trkpt lat="43.70292" lon="5.94734">
        <ele>576</ele>
        <time>2015-10-24T10:01:28.543Z</time>
      </trkpt>
      <trkpt lat="43.70291" lon="5.94741">
        <ele>576</ele>
        <time>2015-10-24T10:01:30.567Z</time>
      </trkpt>
      <trkpt lat="43.70289" lon="5.94747">
        <ele>576</ele>
        <time>2015-10-24T10:01:31.569Z</time>
      </trkpt>
      <trkpt lat="43.70288" lon="5.94754">
        <ele>576</ele>
        <time>2015-10-24T10:01:32.577Z</time>
      </trkpt>
      <trkpt lat="43.70287" lon="5.94763">
        <ele>576</ele>
        <time>2015-10-24T10:01:33.544Z</time>
      </trkpt>
      <trkpt lat="43.70284" lon="5.94773">
        <ele>575</ele>
        <time>2015-10-24T10:01:35.568Z</time>
      </trkpt>
      <trkpt lat="43.70283" lon="5.94779">
        <ele>575</ele>
        <time>2015-10-24T10:01:36.544Z</time>
      </trkpt>
      <trkpt lat="43.7028" lon="5.9479">
        <ele>575</ele>
        <time>2015-10-24T10:01:38.568Z</time>
      </trkpt>
      <trkpt lat="43.70278" lon="5.94796">
        <ele>575</ele>
        <time>2015-10-24T10:01:39.544Z</time>
      </trkpt>
      <trkpt lat="43.70275" lon="5.94807">
        <ele>575</ele>
        <time>2015-10-24T10:01:41.566Z</time>
      </trkpt>
      <trkpt lat="43.70274" lon="5.94813">
        <ele>576</ele>
        <time>2015-10-24T10:01:42.544Z</time>
      </trkpt>
      <trkpt lat="43.70272" lon="5.94819">
        <ele>576</ele>
        <time>2015-10-24T10:01:43.566Z</time>
      </trkpt>
      <trkpt lat="43.7027" lon="5.94827">
        <ele>577</ele>
        <time>2015-10-24T10:01:44.543Z</time>
      </trkpt>
      <trkpt lat="43.70269" lon="5.94834">
        <ele>577</ele>
        <time>2015-10-24T10:01:45.567Z</time>
      </trkpt>
      <trkpt lat="43.70268" lon="5.94842">
        <ele>578</ele>
        <time>2015-10-24T10:01:46.545Z</time>
      </trkpt>
      <trkpt lat="43.70266" lon="5.94849">
        <ele>578</ele>
        <time>2015-10-24T10:01:47.602Z</time>
      </trkpt>
      <trkpt lat="43.70265" lon="5.94855">
        <ele>579</ele>
        <time>2015-10-24T10:01:48.544Z</time>
      </trkpt>
      <trkpt lat="43.70262" lon="5.94863">
        <ele>580</ele>
        <time>2015-10-24T10:01:50.567Z</time>
      </trkpt>
      <trkpt lat="43.70262" lon="5.94866">
        <ele>580</ele>
        <time>2015-10-24T10:01:51.544Z</time>
      </trkpt>
      <trkpt lat="43.70259" lon="5.94875">
        <ele>580</ele>
        <time>2015-10-24T10:01:55.568Z</time>
      </trkpt>
      <trkpt lat="43.70258" lon="5.94878">
        <ele>580</ele>
        <time>2015-10-24T10:01:56.544Z</time>
      </trkpt>
      <trkpt lat="43.70255" lon="5.94886">
        <ele>580</ele>
        <time>2015-10-24T10:01:59.567Z</time>
      </trkpt>
      <trkpt lat="43.70254" lon="5.94889">
        <ele>580</ele>
        <time>2015-10-24T10:02:00.543Z</time>
      </trkpt>
      <trkpt lat="43.70251" lon="5.949">
        <ele>580</ele>
        <time>2015-10-24T10:02:03.548Z</time>
      </trkpt>
      <trkpt lat="43.7025" lon="5.94904">
        <ele>580</ele>
        <time>2015-10-24T10:02:04.544Z</time>
      </trkpt>
      <trkpt lat="43.70247" lon="5.94914">
        <ele>581</ele>
        <time>2015-10-24T10:02:07.568Z</time>
      </trkpt>
      <trkpt lat="43.70246" lon="5.94917">
        <ele>581</ele>
        <time>2015-10-24T10:02:08.548Z</time>
      </trkpt>
      <trkpt lat="43.70243" lon="5.94928">
        <ele>581</ele>
        <time>2015-10-24T10:02:11.568Z</time>
      </trkpt>
      <trkpt lat="43.70242" lon="5.94931">
        <ele>581</ele>
        <time>2015-10-24T10:02:12.552Z</time>
      </trkpt>
      <trkpt lat="43.70241" lon="5.94943">
        <ele>582</ele>
        <time>2015-10-24T10:02:15.566Z</time>
      </trkpt>
      <trkpt lat="43.70241" lon="5.94948">
        <ele>581</ele>
        <time>2015-10-24T10:02:16.544Z</time>
      </trkpt>
      <trkpt lat="43.70243" lon="5.94957">
        <ele>580</ele>
        <time>2015-10-24T10:02:18.566Z</time>
      </trkpt>
      <trkpt lat="43.70247" lon="5.94961">
        <ele>579</ele>
        <time>2015-10-24T10:02:19.545Z</time>
      </trkpt>
      <trkpt lat="43.70252" lon="5.94962">
        <ele>579</ele>
        <time>2015-10-24T10:02:20.592Z</time>
      </trkpt>
      <trkpt lat="43.7026" lon="5.94959">
        <ele>577</ele>
        <time>2015-10-24T10:02:21.545Z</time>
      </trkpt>
      <trkpt lat="43.70267" lon="5.94959">
        <ele>577</ele>
        <time>2015-10-24T10:02:22.567Z</time>
      </trkpt>
      <trkpt lat="43.70275" lon="5.94959">
        <ele>576</ele>
        <time>2015-10-24T10:02:23.544Z</time>
      </trkpt>
      <trkpt lat="43.70284" lon="5.94959">
        <ele>575</ele>
        <time>2015-10-24T10:02:24.562Z</time>
      </trkpt>
      <trkpt lat="43.70291" lon="5.94961">
        <ele>575</ele>
        <time>2015-10-24T10:02:25.543Z</time>
      </trkpt>
      <trkpt lat="43.70298" lon="5.94967">
        <ele>574</ele>
        <time>2015-10-24T10:02:26.598Z</time>
      </trkpt>
      <trkpt lat="43.70306" lon="5.94975">
        <ele>573</ele>
        <time>2015-10-24T10:02:27.543Z</time>
      </trkpt>
      <trkpt lat="43.70306" lon="5.94975">
        <ele>573</ele>
        <time>2015-10-24T10:02:27.570Z</time>
      </trkpt>
      <trkpt lat="43.70313" lon="5.94984">
        <ele>573</ele>
        <time>2015-10-24T10:02:28.544Z</time>
      </trkpt>
      <trkpt lat="43.70313" lon="5.94984">
        <ele>573</ele>
        <time>2015-10-24T10:02:28.573Z</time>
      </trkpt>
      <trkpt lat="43.70322" lon="5.94992">
        <ele>573</ele>
        <time>2015-10-24T10:02:29.543Z</time>
      </trkpt>
      <trkpt lat="43.70322" lon="5.94992">
        <ele>573</ele>
        <time>2015-10-24T10:02:29.571Z</time>
      </trkpt>
      <trkpt lat="43.70329" lon="5.95">
        <ele>572</ele>
        <time>2015-10-24T10:02:30.544Z</time>
      </trkpt>
      <trkpt lat="43.70329" lon="5.95">
        <ele>572</ele>
        <time>2015-10-24T10:02:30.571Z</time>
      </trkpt>
      <trkpt lat="43.70337" lon="5.95008">
        <ele>571</ele>
        <time>2015-10-24T10:02:31.569Z</time>
      </trkpt>
      <trkpt lat="43.70337" lon="5.95008">
        <ele>571</ele>
        <time>2015-10-24T10:02:31.598Z</time>
      </trkpt>
      <trkpt lat="43.70345" lon="5.95017">
        <ele>571</ele>
        <time>2015-10-24T10:02:32.536Z</time>
      </trkpt>
      <trkpt lat="43.70345" lon="5.95017">
        <ele>571</ele>
        <time>2015-10-24T10:02:32.560Z</time>
      </trkpt>
      <trkpt lat="43.70353" lon="5.95025">
        <ele>570</ele>
        <time>2015-10-24T10:02:33.552Z</time>
      </trkpt>
      <trkpt lat="43.70353" lon="5.95025">
        <ele>570</ele>
        <time>2015-10-24T10:02:33.579Z</time>
      </trkpt>
      <trkpt lat="43.7036" lon="5.95034">
        <ele>570</ele>
        <time>2015-10-24T10:02:34.544Z</time>
      </trkpt>
      <trkpt lat="43.7036" lon="5.95034">
        <ele>570</ele>
        <time>2015-10-24T10:02:34.571Z</time>
      </trkpt>
      <trkpt lat="43.70368" lon="5.95043">
        <ele>569</ele>
        <time>2015-10-24T10:02:35.544Z</time>
      </trkpt>
      <trkpt lat="43.70368" lon="5.95043">
        <ele>569</ele>
        <time>2015-10-24T10:02:35.571Z</time>
      </trkpt>
      <trkpt lat="43.70376" lon="5.95051">
        <ele>569</ele>
        <time>2015-10-24T10:02:36.545Z</time>
      </trkpt>
      <trkpt lat="43.70376" lon="5.95051">
        <ele>569</ele>
        <time>2015-10-24T10:02:36.572Z</time>
      </trkpt>
      <trkpt lat="43.70384" lon="5.9506">
        <ele>568</ele>
        <time>2015-10-24T10:02:37.543Z</time>
      </trkpt>
      <trkpt lat="43.70384" lon="5.9506">
        <ele>568</ele>
        <time>2015-10-24T10:02:37.572Z</time>
      </trkpt>
      <trkpt lat="43.70391" lon="5.9507">
        <ele>567</ele>
        <time>2015-10-24T10:02:38.546Z</time>
      </trkpt>
      <trkpt lat="43.70391" lon="5.9507">
        <ele>567</ele>
        <time>2015-10-24T10:02:38.574Z</time>
      </trkpt>
      <trkpt lat="43.70399" lon="5.95079">
        <ele>567</ele>
        <time>2015-10-24T10:02:39.546Z</time>
      </trkpt>
      <trkpt lat="43.70399" lon="5.95079">
        <ele>567</ele>
        <time>2015-10-24T10:02:39.575Z</time>
      </trkpt>
      <trkpt lat="43.70407" lon="5.95089">
        <ele>566</ele>
        <time>2015-10-24T10:02:40.545Z</time>
      </trkpt>
      <trkpt lat="43.70414" lon="5.95097">
        <ele>566</ele>
        <time>2015-10-24T10:02:41.573Z</time>
      </trkpt>
      <trkpt lat="43.7042" lon="5.95106">
        <ele>565</ele>
        <time>2015-10-24T10:02:42.570Z</time>
      </trkpt>
      <trkpt lat="43.7042" lon="5.95106">
        <ele>565</ele>
        <time>2015-10-24T10:02:42.599Z</time>
      </trkpt>
      <trkpt lat="43.70428" lon="5.95114">
        <ele>565</ele>
        <time>2015-10-24T10:02:43.543Z</time>
      </trkpt>
      <trkpt lat="43.70435" lon="5.9512">
        <ele>566</ele>
        <time>2015-10-24T10:02:44.570Z</time>
      </trkpt>
      <trkpt lat="43.70442" lon="5.95125">
        <ele>565</ele>
        <time>2015-10-24T10:02:45.542Z</time>
      </trkpt>
      <trkpt lat="43.70447" lon="5.95129">
        <ele>565</ele>
        <time>2015-10-24T10:02:46.568Z</time>
      </trkpt>
      <trkpt lat="43.70449" lon="5.95135">
        <ele>564</ele>
        <time>2015-10-24T10:02:47.544Z</time>
      </trkpt>
      <trkpt lat="43.7045" lon="5.95143">
        <ele>565</ele>
        <time>2015-10-24T10:02:48.567Z</time>
      </trkpt>
      <trkpt lat="43.70449" lon="5.9515">
        <ele>564</ele>
        <time>2015-10-24T10:02:49.540Z</time>
      </trkpt>
      <trkpt lat="43.70447" lon="5.95157">
        <ele>565</ele>
        <time>2015-10-24T10:02:50.567Z</time>
      </trkpt>
      <trkpt lat="43.70444" lon="5.95164">
        <ele>565</ele>
        <time>2015-10-24T10:02:51.543Z</time>
      </trkpt>
      <trkpt lat="43.70441" lon="5.9517">
        <ele>564</ele>
        <time>2015-10-24T10:02:52.567Z</time>
      </trkpt>
      <trkpt lat="43.7044" lon="5.95178">
        <ele>564</ele>
        <time>2015-10-24T10:02:53.569Z</time>
      </trkpt>
      <trkpt lat="43.70438" lon="5.95184">
        <ele>564</ele>
        <time>2015-10-24T10:02:54.570Z</time>
      </trkpt>
      <trkpt lat="43.70437" lon="5.95192">
        <ele>564</ele>
        <time>2015-10-24T10:02:55.544Z</time>
      </trkpt>
      <trkpt lat="43.70435" lon="5.95198">
        <ele>565</ele>
        <time>2015-10-24T10:02:56.567Z</time>
      </trkpt>
      <trkpt lat="43.70433" lon="5.95204">
        <ele>565</ele>
        <time>2015-10-24T10:02:57.555Z</time>
      </trkpt>
      <trkpt lat="43.70432" lon="5.95209">
        <ele>564</ele>
        <time>2015-10-24T10:02:58.566Z</time>
      </trkpt>
      <trkpt lat="43.7043" lon="5.95216">
        <ele>564</ele>
        <time>2015-10-24T10:02:59.544Z</time>
      </trkpt>
      <trkpt lat="43.70429" lon="5.95223">
        <ele>564</ele>
        <time>2015-10-24T10:03:00.566Z</time>
      </trkpt>
      <trkpt lat="43.70427" lon="5.95229">
        <ele>564</ele>
        <time>2015-10-24T10:03:01.543Z</time>
      </trkpt>
      <trkpt lat="43.70425" lon="5.95235">
        <ele>563</ele>
        <time>2015-10-24T10:03:02.566Z</time>
      </trkpt>
      <trkpt lat="43.70424" lon="5.95242">
        <ele>563</ele>
        <time>2015-10-24T10:03:03.542Z</time>
      </trkpt>
      <trkpt lat="43.70422" lon="5.95248">
        <ele>564</ele>
        <time>2015-10-24T10:03:04.592Z</time>
      </trkpt>
      <trkpt lat="43.70421" lon="5.95254">
        <ele>563</ele>
        <time>2015-10-24T10:03:05.544Z</time>
      </trkpt>
      <trkpt lat="43.7042" lon="5.95261">
        <ele>564</ele>
        <time>2015-10-24T10:03:06.566Z</time>
      </trkpt>
      <trkpt lat="43.70419" lon="5.95269">
        <ele>564</ele>
        <time>2015-10-24T10:03:07.544Z</time>
      </trkpt>
      <trkpt lat="43.7042" lon="5.95275">
        <ele>564</ele>
        <time>2015-10-24T10:03:08.567Z</time>
      </trkpt>
      <trkpt lat="43.7042" lon="5.95282">
        <ele>564</ele>
        <time>2015-10-24T10:03:09.544Z</time>
      </trkpt>
      <trkpt lat="43.70421" lon="5.95288">
        <ele>564</ele>
        <time>2015-10-24T10:03:10.567Z</time>
      </trkpt>
      <trkpt lat="43.70422" lon="5.95295">
        <ele>565</ele>
        <time>2015-10-24T10:03:11.544Z</time>
      </trkpt>
      <trkpt lat="43.70423" lon="5.95302">
        <ele>564</ele>
        <time>2015-10-24T10:03:12.567Z</time>
      </trkpt>
      <trkpt lat="43.70424" lon="5.95308">
        <ele>564</ele>
        <time>2015-10-24T10:03:13.539Z</time>
      </trkpt>
      <trkpt lat="43.70424" lon="5.9532">
        <ele>565</ele>
        <time>2015-10-24T10:03:15.601Z</time>
      </trkpt>
      <trkpt lat="43.70423" lon="5.95326">
        <ele>565</ele>
        <time>2015-10-24T10:03:16.543Z</time>
      </trkpt>
      <trkpt lat="43.70421" lon="5.95332">
        <ele>565</ele>
        <time>2015-10-24T10:03:17.626Z</time>
      </trkpt>
      <trkpt lat="43.70418" lon="5.95337">
        <ele>566</ele>
        <time>2015-10-24T10:03:18.544Z</time>
      </trkpt>
      <trkpt lat="43.70413" lon="5.95345">
        <ele>567</ele>
        <time>2015-10-24T10:03:20.566Z</time>
      </trkpt>
      <trkpt lat="43.7041" lon="5.95349">
        <ele>567</ele>
        <time>2015-10-24T10:03:21.544Z</time>
      </trkpt>
      <trkpt lat="43.70404" lon="5.95357">
        <ele>567</ele>
        <time>2015-10-24T10:03:23.567Z</time>
      </trkpt>
      <trkpt lat="43.70402" lon="5.95361">
        <ele>567</ele>
        <time>2015-10-24T10:03:24.544Z</time>
      </trkpt>
      <trkpt lat="43.70398" lon="5.9537">
        <ele>567</ele>
        <time>2015-10-24T10:03:26.592Z</time>
      </trkpt>
      <trkpt lat="43.70396" lon="5.95375">
        <ele>567</ele>
        <time>2015-10-24T10:03:27.544Z</time>
      </trkpt>
      <trkpt lat="43.70391" lon="5.95382">
        <ele>567</ele>
        <time>2015-10-24T10:03:29.567Z</time>
      </trkpt>
      <trkpt lat="43.70388" lon="5.95386">
        <ele>567</ele>
        <time>2015-10-24T10:03:30.543Z</time>
      </trkpt>
      <trkpt lat="43.70382" lon="5.95392">
        <ele>565</ele>
        <time>2015-10-24T10:03:49.566Z</time>
      </trkpt>
      <trkpt lat="43.7038" lon="5.95395">
        <ele>565</ele>
        <time>2015-10-24T10:03:50.543Z</time>
      </trkpt>
      <trkpt lat="43.70376" lon="5.95402">
        <ele>565</ele>
        <time>2015-10-24T10:03:52.567Z</time>
      </trkpt>
      <trkpt lat="43.70374" lon="5.95405">
        <ele>565</ele>
        <time>2015-10-24T10:03:53.549Z</time>
      </trkpt>
      <trkpt lat="43.70369" lon="5.95412">
        <ele>565</ele>
        <time>2015-10-24T10:03:55.568Z</time>
      </trkpt>
      <trkpt lat="43.70367" lon="5.95415">
        <ele>565</ele>
        <time>2015-10-24T10:03:56.545Z</time>
      </trkpt>
      <trkpt lat="43.70363" lon="5.95421">
        <ele>566</ele>
        <time>2015-10-24T10:03:58.559Z</time>
      </trkpt>
      <trkpt lat="43.70361" lon="5.95424">
        <ele>566</ele>
        <time>2015-10-24T10:03:59.543Z</time>
      </trkpt>
      <trkpt lat="43.70357" lon="5.95431">
        <ele>566</ele>
        <time>2015-10-24T10:04:01.570Z</time>
      </trkpt>
      <trkpt lat="43.70355" lon="5.95434">
        <ele>566</ele>
        <time>2015-10-24T10:04:02.543Z</time>
      </trkpt>
      <trkpt lat="43.7035" lon="5.95441">
        <ele>567</ele>
        <time>2015-10-24T10:04:04.592Z</time>
      </trkpt>
      <trkpt lat="43.70348" lon="5.95445">
        <ele>567</ele>
        <time>2015-10-24T10:04:05.544Z</time>
      </trkpt>
      <trkpt lat="43.70344" lon="5.95452">
        <ele>567</ele>
        <time>2015-10-24T10:04:07.568Z</time>
      </trkpt>
      <trkpt lat="43.70342" lon="5.95456">
        <ele>567</ele>
        <time>2015-10-24T10:04:08.543Z</time>
      </trkpt>
      <trkpt lat="43.70338" lon="5.95464">
        <ele>568</ele>
        <time>2015-10-24T10:04:10.567Z</time>
      </trkpt>
      <trkpt lat="43.70336" lon="5.95468">
        <ele>568</ele>
        <time>2015-10-24T10:04:11.544Z</time>
      </trkpt>
      <trkpt lat="43.70333" lon="5.95476">
        <ele>568</ele>
        <time>2015-10-24T10:04:13.567Z</time>
      </trkpt>
      <trkpt lat="43.70331" lon="5.9548">
        <ele>568</ele>
        <time>2015-10-24T10:04:14.544Z</time>
      </trkpt>
      <trkpt lat="43.70327" lon="5.95488">
        <ele>568</ele>
        <time>2015-10-24T10:04:16.567Z</time>
      </trkpt>
      <trkpt lat="43.70325" lon="5.95492">
        <ele>569</ele>
        <time>2015-10-24T10:04:17.551Z</time>
      </trkpt>
      <trkpt lat="43.70322" lon="5.955">
        <ele>569</ele>
        <time>2015-10-24T10:04:19.567Z</time>
      </trkpt>
      <trkpt lat="43.7032" lon="5.95505">
        <ele>569</ele>
        <time>2015-10-24T10:04:20.634Z</time>
      </trkpt>
      <trkpt lat="43.70316" lon="5.95514">
        <ele>570</ele>
        <time>2015-10-24T10:04:22.570Z</time>
      </trkpt>
      <trkpt lat="43.70313" lon="5.95518">
        <ele>570</ele>
        <time>2015-10-24T10:04:23.544Z</time>
      </trkpt>
      <trkpt lat="43.70309" lon="5.95527">
        <ele>569</ele>
        <time>2015-10-24T10:04:25.569Z</time>
      </trkpt>
      <trkpt lat="43.70307" lon="5.95532">
        <ele>569</ele>
        <time>2015-10-24T10:04:26.544Z</time>
      </trkpt>
      <trkpt lat="43.70303" lon="5.95541">
        <ele>570</ele>
        <time>2015-10-24T10:04:28.568Z</time>
      </trkpt>
      <trkpt lat="43.70301" lon="5.95545">
        <ele>570</ele>
        <time>2015-10-24T10:04:29.544Z</time>
      </trkpt>
      <trkpt lat="43.70297" lon="5.95554">
        <ele>570</ele>
        <time>2015-10-24T10:04:31.641Z</time>
      </trkpt>
      <trkpt lat="43.70295" lon="5.95559">
        <ele>570</ele>
        <time>2015-10-24T10:04:32.544Z</time>
      </trkpt>
      <trkpt lat="43.7029" lon="5.95567">
        <ele>569</ele>
        <time>2015-10-24T10:04:34.567Z</time>
      </trkpt>
      <trkpt lat="43.70288" lon="5.95572">
        <ele>569</ele>
        <time>2015-10-24T10:04:35.544Z</time>
      </trkpt>
      <trkpt lat="43.70286" lon="5.95577">
        <ele>570</ele>
        <time>2015-10-24T10:04:36.568Z</time>
      </trkpt>
      <trkpt lat="43.70284" lon="5.95583">
        <ele>570</ele>
        <time>2015-10-24T10:04:37.542Z</time>
      </trkpt>
      <trkpt lat="43.70279" lon="5.95593">
        <ele>570</ele>
        <time>2015-10-24T10:04:39.566Z</time>
      </trkpt>
      <trkpt lat="43.70276" lon="5.95599">
        <ele>570</ele>
        <time>2015-10-24T10:04:40.757Z</time>
      </trkpt>
      <trkpt lat="43.70274" lon="5.95605">
        <ele>570</ele>
        <time>2015-10-24T10:04:41.566Z</time>
      </trkpt>
      <trkpt lat="43.70271" lon="5.95611">
        <ele>570</ele>
        <time>2015-10-24T10:04:42.569Z</time>
      </trkpt>
      <trkpt lat="43.70268" lon="5.95618">
        <ele>570</ele>
        <time>2015-10-24T10:04:43.576Z</time>
      </trkpt>
      <trkpt lat="43.70266" lon="5.95624">
        <ele>570</ele>
        <time>2015-10-24T10:04:44.544Z</time>
      </trkpt>
      <trkpt lat="43.70263" lon="5.95631">
        <ele>570</ele>
        <time>2015-10-24T10:04:45.567Z</time>
      </trkpt>
      <trkpt lat="43.70261" lon="5.95637">
        <ele>570</ele>
        <time>2015-10-24T10:04:46.543Z</time>
      </trkpt>
      <trkpt lat="43.70258" lon="5.95642">
        <ele>569</ele>
        <time>2015-10-24T10:04:47.567Z</time>
      </trkpt>
      <trkpt lat="43.70256" lon="5.95648">
        <ele>569</ele>
        <time>2015-10-24T10:04:48.544Z</time>
      </trkpt>
      <trkpt lat="43.70252" lon="5.95658">
        <ele>569</ele>
        <time>2015-10-24T10:04:50.567Z</time>
      </trkpt>
      <trkpt lat="43.70249" lon="5.95663">
        <ele>569</ele>
        <time>2015-10-24T10:04:51.544Z</time>
      </trkpt>
      <trkpt lat="43.70247" lon="5.95669">
        <ele>569</ele>
        <time>2015-10-24T10:04:52.567Z</time>
      </trkpt>
      <trkpt lat="43.70244" lon="5.95675">
        <ele>569</ele>
        <time>2015-10-24T10:04:53.569Z</time>
      </trkpt>
      <trkpt lat="43.70242" lon="5.9568">
        <ele>568</ele>
        <time>2015-10-24T10:04:54.569Z</time>
      </trkpt>
      <trkpt lat="43.70241" lon="5.95686">
        <ele>569</ele>
        <time>2015-10-24T10:04:55.545Z</time>
      </trkpt>
      <trkpt lat="43.70236" lon="5.95696">
        <ele>567</ele>
        <time>2015-10-24T10:04:57.567Z</time>
      </trkpt>
      <trkpt lat="43.70234" lon="5.95701">
        <ele>568</ele>
        <time>2015-10-24T10:04:58.545Z</time>
      </trkpt>
      <trkpt lat="43.70229" lon="5.95711">
        <ele>568</ele>
        <time>2015-10-24T10:05:00.567Z</time>
      </trkpt>
      <trkpt lat="43.70227" lon="5.95716">
        <ele>567</ele>
        <time>2015-10-24T10:05:01.544Z</time>
      </trkpt>
      <trkpt lat="43.70223" lon="5.95726">
        <ele>567</ele>
        <time>2015-10-24T10:05:03.568Z</time>
      </trkpt>
      <trkpt lat="43.70221" lon="5.95732">
        <ele>567</ele>
        <time>2015-10-24T10:05:04.568Z</time>
      </trkpt>
      <trkpt lat="43.70218" lon="5.95742">
        <ele>567</ele>
        <time>2015-10-24T10:05:06.567Z</time>
      </trkpt>
      <trkpt lat="43.70216" lon="5.95747">
        <ele>567</ele>
        <time>2015-10-24T10:05:07.543Z</time>
      </trkpt>
      <trkpt lat="43.70213" lon="5.95753">
        <ele>566</ele>
        <time>2015-10-24T10:05:08.569Z</time>
      </trkpt>
      <trkpt lat="43.70211" lon="5.95758">
        <ele>566</ele>
        <time>2015-10-24T10:05:09.544Z</time>
      </trkpt>
      <trkpt lat="43.70207" lon="5.95768">
        <ele>566</ele>
        <time>2015-10-24T10:05:11.567Z</time>
      </trkpt>
      <trkpt lat="43.70204" lon="5.95774">
        <ele>566</ele>
        <time>2015-10-24T10:05:12.544Z</time>
      </trkpt>
      <trkpt lat="43.702" lon="5.95784">
        <ele>566</ele>
        <time>2015-10-24T10:05:14.574Z</time>
      </trkpt>
      <trkpt lat="43.70198" lon="5.9579">
        <ele>567</ele>
        <time>2015-10-24T10:05:15.585Z</time>
      </trkpt>
      <trkpt lat="43.70193" lon="5.95799">
        <ele>566</ele>
        <time>2015-10-24T10:05:17.566Z</time>
      </trkpt>
      <trkpt lat="43.70192" lon="5.95803">
        <ele>567</ele>
        <time>2015-10-24T10:05:18.544Z</time>
      </trkpt>
      <trkpt lat="43.70188" lon="5.95812">
        <ele>566</ele>
        <time>2015-10-24T10:05:21.568Z</time>
      </trkpt>
      <trkpt lat="43.70187" lon="5.95815">
        <ele>567</ele>
        <time>2015-10-24T10:05:22.544Z</time>
      </trkpt>
      <trkpt lat="43.70185" lon="5.95823">
        <ele>565</ele>
        <time>2015-10-24T10:05:53.592Z</time>
      </trkpt>
      <trkpt lat="43.70183" lon="5.95826">
        <ele>565</ele>
        <time>2015-10-24T10:05:54.544Z</time>
      </trkpt>
      <trkpt lat="43.7018" lon="5.95835">
        <ele>565</ele>
        <time>2015-10-24T10:05:57.577Z</time>
      </trkpt>
      <trkpt lat="43.70179" lon="5.95837">
        <ele>565</ele>
        <time>2015-10-24T10:05:58.546Z</time>
      </trkpt>
      <trkpt lat="43.70175" lon="5.95847">
        <ele>566</ele>
        <time>2015-10-24T10:06:02.569Z</time>
      </trkpt>
      <trkpt lat="43.70174" lon="5.95849">
        <ele>566</ele>
        <time>2015-10-24T10:06:03.545Z</time>
      </trkpt>
      <trkpt lat="43.7017" lon="5.95858">
        <ele>567</ele>
        <time>2015-10-24T10:06:07.571Z</time>
      </trkpt>
      <trkpt lat="43.70169" lon="5.95861">
        <ele>567</ele>
        <time>2015-10-24T10:06:08.545Z</time>
      </trkpt>
      <trkpt lat="43.70165" lon="5.9587">
        <ele>567</ele>
        <time>2015-10-24T10:06:12.570Z</time>
      </trkpt>
      <trkpt lat="43.70163" lon="5.95873">
        <ele>567</ele>
        <time>2015-10-24T10:06:13.543Z</time>
      </trkpt>
      <trkpt lat="43.70159" lon="5.95883">
        <ele>567</ele>
        <time>2015-10-24T10:06:16.567Z</time>
      </trkpt>
      <trkpt lat="43.70157" lon="5.95886">
        <ele>567</ele>
        <time>2015-10-24T10:06:17.549Z</time>
      </trkpt>
      <trkpt lat="43.70155" lon="5.95898">
        <ele>567</ele>
        <time>2015-10-24T10:06:20.593Z</time>
      </trkpt>
      <trkpt lat="43.70156" lon="5.95903">
        <ele>566</ele>
        <time>2015-10-24T10:06:21.546Z</time>
      </trkpt>
      <trkpt lat="43.70158" lon="5.95908">
        <ele>566</ele>
        <time>2015-10-24T10:06:22.567Z</time>
      </trkpt>
      <trkpt lat="43.7016" lon="5.95914">
        <ele>566</ele>
        <time>2015-10-24T10:06:23.544Z</time>
      </trkpt>
      <trkpt lat="43.70164" lon="5.95919">
        <ele>566</ele>
        <time>2015-10-24T10:06:24.569Z</time>
      </trkpt>
      <trkpt lat="43.7017" lon="5.95922">
        <ele>565</ele>
        <time>2015-10-24T10:06:25.544Z</time>
      </trkpt>
      <trkpt lat="43.70175" lon="5.95924">
        <ele>565</ele>
        <time>2015-10-24T10:06:26.568Z</time>
      </trkpt>
      <trkpt lat="43.70179" lon="5.95927">
        <ele>565</ele>
        <time>2015-10-24T10:06:27.544Z</time>
      </trkpt>
      <trkpt lat="43.70186" lon="5.95934">
        <ele>565</ele>
        <time>2015-10-24T10:06:29.566Z</time>
      </trkpt>
      <trkpt lat="43.7019" lon="5.95937">
        <ele>564</ele>
        <time>2015-10-24T10:06:30.545Z</time>
      </trkpt>
      <trkpt lat="43.70198" lon="5.95939">
        <ele>564</ele>
        <time>2015-10-24T10:06:32.563Z</time>
      </trkpt>
      <trkpt lat="43.70201" lon="5.95939">
        <ele>563</ele>
        <time>2015-10-24T10:06:33.544Z</time>
      </trkpt>
      <trkpt lat="43.70209" lon="5.95944">
        <ele>563</ele>
        <time>2015-10-24T10:06:35.565Z</time>
      </trkpt>
      <trkpt lat="43.70212" lon="5.95946">
        <ele>563</ele>
        <time>2015-10-24T10:06:36.544Z</time>
      </trkpt>
      <trkpt lat="43.70217" lon="5.95953">
        <ele>562</ele>
        <time>2015-10-24T10:06:38.568Z</time>
      </trkpt>
      <trkpt lat="43.70219" lon="5.95958">
        <ele>562</ele>
        <time>2015-10-24T10:06:39.544Z</time>
      </trkpt>
      <trkpt lat="43.70221" lon="5.95968">
        <ele>563</ele>
        <time>2015-10-24T10:06:41.568Z</time>
      </trkpt>
      <trkpt lat="43.70222" lon="5.95974">
        <ele>563</ele>
        <time>2015-10-24T10:06:42.568Z</time>
      </trkpt>
      <trkpt lat="43.70225" lon="5.95985">
        <ele>564</ele>
        <time>2015-10-24T10:06:44.567Z</time>
      </trkpt>
      <trkpt lat="43.70226" lon="5.9599">
        <ele>565</ele>
        <time>2015-10-24T10:06:45.547Z</time>
      </trkpt>
      <trkpt lat="43.7023" lon="5.96">
        <ele>564</ele>
        <time>2015-10-24T10:06:47.568Z</time>
      </trkpt>
      <trkpt lat="43.70233" lon="5.96005">
        <ele>564</ele>
        <time>2015-10-24T10:06:48.544Z</time>
      </trkpt>
      <trkpt lat="43.70239" lon="5.96012">
        <ele>564</ele>
        <time>2015-10-24T10:06:50.568Z</time>
      </trkpt>
      <trkpt lat="43.70242" lon="5.96015">
        <ele>564</ele>
        <time>2015-10-24T10:06:51.544Z</time>
      </trkpt>
      <trkpt lat="43.70249" lon="5.96022">
        <ele>563</ele>
        <time>2015-10-24T10:06:53.593Z</time>
      </trkpt>
      <trkpt lat="43.70251" lon="5.96025">
        <ele>563</ele>
        <time>2015-10-24T10:06:54.544Z</time>
      </trkpt>
      <trkpt lat="43.70257" lon="5.96034">
        <ele>563</ele>
        <time>2015-10-24T10:06:57.568Z</time>
      </trkpt>
      <trkpt lat="43.70259" lon="5.96038">
        <ele>564</ele>
        <time>2015-10-24T10:06:58.544Z</time>
      </trkpt>
      <trkpt lat="43.70257" lon="5.9605">
        <ele>564</ele>
        <time>2015-10-24T10:07:01.567Z</time>
      </trkpt>
      <trkpt lat="43.70255" lon="5.96053">
        <ele>564</ele>
        <time>2015-10-24T10:07:02.545Z</time>
      </trkpt>
      <trkpt lat="43.7025" lon="5.9606">
        <ele>563</ele>
        <time>2015-10-24T10:07:04.568Z</time>
      </trkpt>
      <trkpt lat="43.70248" lon="5.96065">
        <ele>564</ele>
        <time>2015-10-24T10:07:05.544Z</time>
      </trkpt>
      <trkpt lat="43.70246" lon="5.96076">
        <ele>564</ele>
        <time>2015-10-24T10:07:07.567Z</time>
      </trkpt>
      <trkpt lat="43.70247" lon="5.9608">
        <ele>564</ele>
        <time>2015-10-24T10:07:08.544Z</time>
      </trkpt>
      <trkpt lat="43.70252" lon="5.96088">
        <ele>564</ele>
        <time>2015-10-24T10:07:10.560Z</time>
      </trkpt>
      <trkpt lat="43.70255" lon="5.96091">
        <ele>563</ele>
        <time>2015-10-24T10:07:11.543Z</time>
      </trkpt>
      <trkpt lat="43.70261" lon="5.96098">
        <ele>563</ele>
        <time>2015-10-24T10:07:13.567Z</time>
      </trkpt>
      <trkpt lat="43.70262" lon="5.96103">
        <ele>563</ele>
        <time>2015-10-24T10:07:14.544Z</time>
      </trkpt>
      <trkpt lat="43.7026" lon="5.96113">
        <ele>563</ele>
        <time>2015-10-24T10:07:16.579Z</time>
      </trkpt>
      <trkpt lat="43.70258" lon="5.96118">
        <ele>563</ele>
        <time>2015-10-24T10:07:17.543Z</time>
      </trkpt>
      <trkpt lat="43.70253" lon="5.96127">
        <ele>563</ele>
        <time>2015-10-24T10:07:19.567Z</time>
      </trkpt>
      <trkpt lat="43.70251" lon="5.96131">
        <ele>563</ele>
        <time>2015-10-24T10:07:20.568Z</time>
      </trkpt>
      <trkpt lat="43.70245" lon="5.96139">
        <ele>563</ele>
        <time>2015-10-24T10:07:22.569Z</time>
      </trkpt>
      <trkpt lat="43.70242" lon="5.96143">
        <ele>563</ele>
        <time>2015-10-24T10:07:23.544Z</time>
      </trkpt>
      <trkpt lat="43.70237" lon="5.96152">
        <ele>563</ele>
        <time>2015-10-24T10:07:25.567Z</time>
      </trkpt>
      <trkpt lat="43.70235" lon="5.96156">
        <ele>563</ele>
        <time>2015-10-24T10:07:26.550Z</time>
      </trkpt>
      <trkpt lat="43.70232" lon="5.96167">
        <ele>564</ele>
        <time>2015-10-24T10:07:28.615Z</time>
      </trkpt>
      <trkpt lat="43.70231" lon="5.96172">
        <ele>564</ele>
        <time>2015-10-24T10:07:29.543Z</time>
      </trkpt>
      <trkpt lat="43.70229" lon="5.96183">
        <ele>564</ele>
        <time>2015-10-24T10:07:31.593Z</time>
      </trkpt>
      <trkpt lat="43.70228" lon="5.96188">
        <ele>565</ele>
        <time>2015-10-24T10:07:32.544Z</time>
      </trkpt>
      <trkpt lat="43.70227" lon="5.962">
        <ele>565</ele>
        <time>2015-10-24T10:07:34.568Z</time>
      </trkpt>
      <trkpt lat="43.70227" lon="5.96206">
        <ele>565</ele>
        <time>2015-10-24T10:07:35.545Z</time>
      </trkpt>
      <trkpt lat="43.70228" lon="5.96217">
        <ele>565</ele>
        <time>2015-10-24T10:07:37.576Z</time>
      </trkpt>
      <trkpt lat="43.70229" lon="5.96223">
        <ele>566</ele>
        <time>2015-10-24T10:07:38.545Z</time>
      </trkpt>
      <trkpt lat="43.7023" lon="5.96233">
        <ele>566</ele>
        <time>2015-10-24T10:07:40.567Z</time>
      </trkpt>
      <trkpt lat="43.70229" lon="5.96239">
        <ele>566</ele>
        <time>2015-10-24T10:07:41.545Z</time>
      </trkpt>
      <trkpt lat="43.70225" lon="5.96247">
        <ele>566</ele>
        <time>2015-10-24T10:07:43.568Z</time>
      </trkpt>
      <trkpt lat="43.70222" lon="5.96251">
        <ele>566</ele>
        <time>2015-10-24T10:07:44.545Z</time>
      </trkpt>
      <trkpt lat="43.70217" lon="5.96259">
        <ele>566</ele>
        <time>2015-10-24T10:07:46.568Z</time>
      </trkpt>
      <trkpt lat="43.70216" lon="5.96263">
        <ele>566</ele>
        <time>2015-10-24T10:07:47.543Z</time>
      </trkpt>
      <trkpt lat="43.70215" lon="5.96271">
        <ele>566</ele>
        <time>2015-10-24T10:07:49.567Z</time>
      </trkpt>
      <trkpt lat="43.70215" lon="5.96275">
        <ele>566</ele>
        <time>2015-10-24T10:07:50.545Z</time>
      </trkpt>
      <trkpt lat="43.70212" lon="5.96285">
        <ele>566</ele>
        <time>2015-10-24T10:07:53.596Z</time>
      </trkpt>
      <trkpt lat="43.7021" lon="5.96287">
        <ele>566</ele>
        <time>2015-10-24T10:07:54.546Z</time>
      </trkpt>
      <trkpt lat="43.70204" lon="5.96296">
        <ele>566</ele>
        <time>2015-10-24T10:07:57.569Z</time>
      </trkpt>
      <trkpt lat="43.70202" lon="5.96298">
        <ele>566</ele>
        <time>2015-10-24T10:07:58.544Z</time>
      </trkpt>
      <trkpt lat="43.70195" lon="5.96306">
        <ele>566</ele>
        <time>2015-10-24T10:08:01.569Z</time>
      </trkpt>
      <trkpt lat="43.70193" lon="5.96308">
        <ele>566</ele>
        <time>2015-10-24T10:08:02.546Z</time>
      </trkpt>
      <trkpt lat="43.70185" lon="5.96315">
        <ele>566</ele>
        <time>2015-10-24T10:08:05.568Z</time>
      </trkpt>
      <trkpt lat="43.70183" lon="5.96318">
        <ele>567</ele>
        <time>2015-10-24T10:08:06.545Z</time>
      </trkpt>
      <trkpt lat="43.70177" lon="5.96325">
        <ele>566</ele>
        <time>2015-10-24T10:08:09.600Z</time>
      </trkpt>
      <trkpt lat="43.70175" lon="5.96328">
        <ele>566</ele>
        <time>2015-10-24T10:08:10.547Z</time>
      </trkpt>
      <trkpt lat="43.7017" lon="5.96337">
        <ele>567</ele>
        <time>2015-10-24T10:08:14.567Z</time>
      </trkpt>
      <trkpt lat="43.70169" lon="5.9634">
        <ele>567</ele>
        <time>2015-10-24T10:08:15.544Z</time>
      </trkpt>
      <trkpt lat="43.70166" lon="5.96351">
        <ele>567</ele>
        <time>2015-10-24T10:08:18.568Z</time>
      </trkpt>
      <trkpt lat="43.70164" lon="5.96354">
        <ele>567</ele>
        <time>2015-10-24T10:08:19.544Z</time>
      </trkpt>
      <trkpt lat="43.70158" lon="5.96363">
        <ele>566</ele>
        <time>2015-10-24T10:08:22.569Z</time>
      </trkpt>
      <trkpt lat="43.70156" lon="5.96366">
        <ele>566</ele>
        <time>2015-10-24T10:08:23.545Z</time>
      </trkpt>
      <trkpt lat="43.70149" lon="5.96373">
        <ele>564</ele>
        <time>2015-10-24T10:08:26.568Z</time>
      </trkpt>
      <trkpt lat="43.70147" lon="5.96376">
        <ele>564</ele>
        <time>2015-10-24T10:08:27.543Z</time>
      </trkpt>
      <trkpt lat="43.7014" lon="5.96383">
        <ele>565</ele>
        <time>2015-10-24T10:08:30.567Z</time>
      </trkpt>
      <trkpt lat="43.70138" lon="5.96385">
        <ele>565</ele>
        <time>2015-10-24T10:08:31.756Z</time>
      </trkpt>
      <trkpt lat="43.70131" lon="5.96391">
        <ele>566</ele>
        <time>2015-10-24T10:08:34.568Z</time>
      </trkpt>
      <trkpt lat="43.70128" lon="5.96393">
        <ele>566</ele>
        <time>2015-10-24T10:08:35.546Z</time>
      </trkpt>
      <trkpt lat="43.70125" lon="5.96401">
        <ele>566</ele>
        <time>2015-10-24T10:08:54.570Z</time>
      </trkpt>
      <trkpt lat="43.70124" lon="5.96405">
        <ele>566</ele>
        <time>2015-10-24T10:08:55.544Z</time>
      </trkpt>
      <trkpt lat="43.7012" lon="5.96412">
        <ele>566</ele>
        <time>2015-10-24T10:08:57.569Z</time>
      </trkpt>
      <trkpt lat="43.70117" lon="5.96414">
        <ele>566</ele>
        <time>2015-10-24T10:08:58.570Z</time>
      </trkpt>
      <trkpt lat="43.70112" lon="5.96418">
        <ele>566</ele>
        <time>2015-10-24T10:09:00.567Z</time>
      </trkpt>
      <trkpt lat="43.70109" lon="5.9642">
        <ele>567</ele>
        <time>2015-10-24T10:09:01.542Z</time>
      </trkpt>
      <trkpt lat="43.70103" lon="5.96424">
        <ele>566</ele>
        <time>2015-10-24T10:09:03.568Z</time>
      </trkpt>
      <trkpt lat="43.701" lon="5.96426">
        <ele>566</ele>
        <time>2015-10-24T10:09:04.546Z</time>
      </trkpt>
      <trkpt lat="43.70094" lon="5.9643">
        <ele>567</ele>
        <time>2015-10-24T10:09:06.567Z</time>
      </trkpt>
      <trkpt lat="43.70091" lon="5.96432">
        <ele>567</ele>
        <time>2015-10-24T10:09:07.544Z</time>
      </trkpt>
      <trkpt lat="43.70085" lon="5.96438">
        <ele>567</ele>
        <time>2015-10-24T10:09:09.593Z</time>
      </trkpt>
      <trkpt lat="43.70082" lon="5.96441">
        <ele>566</ele>
        <time>2015-10-24T10:09:10.545Z</time>
      </trkpt>
      <trkpt lat="43.70077" lon="5.96448">
        <ele>567</ele>
        <time>2015-10-24T10:09:12.569Z</time>
      </trkpt>
      <trkpt lat="43.70076" lon="5.96453">
        <ele>567</ele>
        <time>2015-10-24T10:09:13.544Z</time>
      </trkpt>
      <trkpt lat="43.70078" lon="5.96463">
        <ele>566</ele>
        <time>2015-10-24T10:09:15.568Z</time>
      </trkpt>
      <trkpt lat="43.70079" lon="5.96467">
        <ele>566</ele>
        <time>2015-10-24T10:09:16.545Z</time>
      </trkpt>
      <trkpt lat="43.70082" lon="5.96479">
        <ele>565</ele>
        <time>2015-10-24T10:09:18.568Z</time>
      </trkpt>
      <trkpt lat="43.70083" lon="5.96484">
        <ele>565</ele>
        <time>2015-10-24T10:09:19.545Z</time>
      </trkpt>
      <trkpt lat="43.70086" lon="5.96495">
        <ele>565</ele>
        <time>2015-10-24T10:09:21.569Z</time>
      </trkpt>
      <trkpt lat="43.70087" lon="5.96501">
        <ele>566</ele>
        <time>2015-10-24T10:09:22.545Z</time>
      </trkpt>
      <trkpt lat="43.70089" lon="5.96512">
        <ele>566</ele>
        <time>2015-10-24T10:09:24.567Z</time>
      </trkpt>
      <trkpt lat="43.7009" lon="5.96517">
        <ele>566</ele>
        <time>2015-10-24T10:09:25.545Z</time>
      </trkpt>
      <trkpt lat="43.70091" lon="5.96528">
        <ele>567</ele>
        <time>2015-10-24T10:09:27.568Z</time>
      </trkpt>
      <trkpt lat="43.70091" lon="5.96533">
        <ele>568</ele>
        <time>2015-10-24T10:09:28.545Z</time>
      </trkpt>
      <trkpt lat="43.70092" lon="5.96544">
        <ele>569</ele>
        <time>2015-10-24T10:09:32.568Z</time>
      </trkpt>
      <trkpt lat="43.70092" lon="5.96547">
        <ele>569</ele>
        <time>2015-10-24T10:09:33.545Z</time>
      </trkpt>
      <trkpt lat="43.70091" lon="5.96556">
        <ele>570</ele>
        <time>2015-10-24T10:09:36.572Z</time>
      </trkpt>
      <trkpt lat="43.70091" lon="5.9656">
        <ele>570</ele>
        <time>2015-10-24T10:09:37.544Z</time>
      </trkpt>
      <trkpt lat="43.70085" lon="5.96568">
        <ele>569</ele>
        <time>2015-10-24T10:09:40.568Z</time>
      </trkpt>
      <trkpt lat="43.70083" lon="5.96571">
        <ele>569</ele>
        <time>2015-10-24T10:09:41.546Z</time>
      </trkpt>
      <trkpt lat="43.70078" lon="5.96576">
        <ele>569</ele>
        <time>2015-10-24T10:09:43.560Z</time>
      </trkpt>
      <trkpt lat="43.70074" lon="5.96579">
        <ele>570</ele>
        <time>2015-10-24T10:09:44.543Z</time>
      </trkpt>
      <trkpt lat="43.70068" lon="5.96584">
        <ele>570</ele>
        <time>2015-10-24T10:09:46.570Z</time>
      </trkpt>
      <trkpt lat="43.70065" lon="5.96586">
        <ele>569</ele>
        <time>2015-10-24T10:09:47.547Z</time>
      </trkpt>
      <trkpt lat="43.70059" lon="5.9659">
        <ele>570</ele>
        <time>2015-10-24T10:09:49.570Z</time>
      </trkpt>
      <trkpt lat="43.70057" lon="5.96592">
        <ele>570</ele>
        <time>2015-10-24T10:09:50.545Z</time>
      </trkpt>
      <trkpt lat="43.70051" lon="5.96597">
        <ele>571</ele>
        <time>2015-10-24T10:09:52.596Z</time>
      </trkpt>
      <trkpt lat="43.70049" lon="5.96599">
        <ele>571</ele>
        <time>2015-10-24T10:09:53.544Z</time>
      </trkpt>
      <trkpt lat="43.70042" lon="5.96605">
        <ele>570</ele>
        <time>2015-10-24T10:09:56.568Z</time>
      </trkpt>
      <trkpt lat="43.7004" lon="5.96607">
        <ele>570</ele>
        <time>2015-10-24T10:09:57.546Z</time>
      </trkpt>
      <trkpt lat="43.70033" lon="5.96612">
        <ele>570</ele>
        <time>2015-10-24T10:10:00.568Z</time>
      </trkpt>
      <trkpt lat="43.70031" lon="5.96614">
        <ele>571</ele>
        <time>2015-10-24T10:10:01.545Z</time>
      </trkpt>
      <trkpt lat="43.70026" lon="5.96622">
        <ele>570</ele>
        <time>2015-10-24T10:10:04.568Z</time>
      </trkpt>
      <trkpt lat="43.70025" lon="5.96625">
        <ele>570</ele>
        <time>2015-10-24T10:10:05.546Z</time>
      </trkpt>
      <trkpt lat="43.70026" lon="5.96636">
        <ele>570</ele>
        <time>2015-10-24T10:10:08.815Z</time>
      </trkpt>
      <trkpt lat="43.70027" lon="5.9664">
        <ele>570</ele>
        <time>2015-10-24T10:10:09.544Z</time>
      </trkpt>
      <trkpt lat="43.70026" lon="5.96651">
        <ele>572</ele>
        <time>2015-10-24T10:10:14.569Z</time>
      </trkpt>
      <trkpt lat="43.70026" lon="5.96653">
        <ele>572</ele>
        <time>2015-10-24T10:10:15.545Z</time>
      </trkpt>
      <trkpt lat="43.70027" lon="5.96653">
        <ele>571</ele>
        <time>2015-10-24T10:10:38.701Z</time>
      </trkpt>
    </trkseg>
  </trk>
</gpx>